     2.10           OBSERVATION DATA    G (GPS)             RINEX VERSION / TYPE
teqc 2002Apr3 Duncan Agnew 20050511 23:58:27UTC             PGM / RUN BY / DATE
OSX 5.3|G3|cc|OSX 5.3+|G3+                                  COMMENT
BIT 2 OF LLI FLAGS DATA COLLECTED UNDER A/S CONDITION       COMMENT
86-37.1 L                                                   MARKER NAME
6893                                                        MARKER NUMBER
Alex Espinoza Nolte Engineering                             OBSERVER / AGENCY
220136893 TRIMBLE 4800 NP 1.20 / SP 1.43                    REC # / TYPE / VERS
N/A TRM4800                                                 ANT # / TYPE
 -2324973.0000 -4817669.0000  3461705.0000                  APPROX POSITION XYZ
        2.0000        0.0000        0.0000                  ANTENNA: DELTA H/E/N
     1     1                                                WAVELENGTH FACT L1/2
     7    C1    L1    L2    P1    P2    S1    S2            # / TYPES OF OBSERV
SNR is mapped to RINEX snr flag value [1-9]                 COMMENT
L1: 3 -> 1; 8 -> 5; 40 -> 9                                 COMMENT
L2: 1 -> 1; 5 -> 5; 60 -> 9                                 COMMENT
  2004     7     1    17    34   20.0000000     GPS         TIME OF FIRST OBS
                                                            END OF HEADER
 04  7  1 17 34 20.0000000  0  8G 3G 9G14G15G18G19G21G22
  22143544.7224      -1566.84059     -1058.79957                  22143542.9884
        46.2504         36.5004
  23292166.3834     -18042.93459    -12530.72157                  23292165.3124
        44.0004         29.2504
  21157764.3814    -105028.10959    -72519.80858                  21157761.5214
        52.0004         42.0004
  20214973.3544     -40787.57059    -29021.47958                  20214970.5824
        52.0004         44.5004
  21842187.0624      68488.55559     47071.10357                  21842184.3944
        50.5004         38.2504
  23799776.7584    -112950.49659    -68515.98857                  23799773.3284
        44.2504         30.5004
  21758141.9454      87268.28159     53845.65257                  21758138.6974
        47.2504         37.7504
  20965531.0494       6400.48459      3697.07258                  20965526.2524
        51.2504         43.7504
 04  7  1 17 34 30.0000000  0  8G 3G 9G14G15G18G19G21G22
  22143451.5834      -2056.03949     -1440.01647                  22143449.8644
        47.5004         37.2504
  23291397.7844     -22081.24649    -15677.45947                  23291397.2184
        45.0004         29.5004
  21153401.9164    -127954.34449    -90384.40448                  21153398.8414
        51.2504         42.5004
  20213234.1234     -49927.94949    -36143.84748                  20213231.1814
        51.5004         45.2504
  21844958.4194      83052.13749     58419.33447                  21844955.3094
        51.0004         38.5004
  23794940.1674    -138365.44949    -88319.82347                  23794936.8174
        44.7504         30.5004
  21761782.6234     106400.69149     68753.99747                  21761779.4594
        48.2504         37.7504
  20965753.4954       7568.30149      4607.05648                  20965748.4334
        52.5004         44.0004
 04  7  1 17 34 40.0000000  0  8G 3G 9G14G15G18G19G21G22
  22143362.6074      -2524.76649     -1805.25847                  22143360.7264
        47.0004         37.2504
  23290633.5744     -26095.16449    -18805.17947                  23290633.2394
        44.5004         29.0004
  21149041.1504    -150869.02749   -108239.99048                  21149038.7504
        52.2504         42.2504
  20211495.3904     -59064.26649    -43263.05948                  20211492.4204
        51.0004         45.0004
  21847724.6434      97588.11349     69746.06647                  21847721.4124
        50.2504         38.0004
  23790105.0164    -163774.31649   -108118.94347                  23790101.7654
        44.0004         30.5004
  21765423.5084     125533.21549     83662.45447                  21765420.6154
        48.2504         38.0004
  20965972.0234       8716.52049      5501.76048                  20965966.9484
        50.5004         44.0004
 04  7  1 17 34 50.0000000  0  8G 3G 9G14G15G18G19G21G22
  22143280.7134      -2951.65649     -2137.90047                  22143279.0214
        48.2504         36.7504
  23289879.0524     -30063.26649    -21897.20747                  23289877.9404
        45.0004         29.7504
  21144687.1194    -173750.70749   -126069.86748                  21144684.1444
        52.2504         42.7504
  20209761.5574     -68175.09849    -50362.41248                  20209758.6264
        52.5004         45.5004
  21850489.7784     112117.77349     81067.86547                  21850486.0514
        50.2504         38.7504
  23785275.0564    -189155.55949   -127896.51247                  23785271.7944
        44.0004         31.2504
  21769068.5244     144687.27049     98587.66747                  21769065.4404
        48.2504         37.7504
  20966190.5934       9866.51649      6397.86548                  20966185.7004
        52.2504         44.5004
 04  7  1 17 35  0.0000000  0  8G 3G 9G14G15G18G19G21G22
  22143209.5764      -3328.25449     -2431.36447                  22143207.6254
        46.7504         36.7504
  23289133.4204     -33977.07449    -24946.91747                  23289133.1544
        45.0004         29.0004
  21140340.5744    -196590.82049   -143867.35148                  21140337.5124
        52.0004         42.5004
  20208034.3214     -77251.90249    -57435.24448                  20208031.7924
        52.5004         45.2504
  21853255.1324     126649.71549     92391.45447                  21853251.7594
        50.0004         38.0004
  23780451.9194    -214500.62949   -147645.92147                  23780448.4504
        43.7504         31.2504
  21772719.5174     163871.32449    113536.26647                  21772716.0924
        48.0004         37.5004
  20966411.3194      11026.71149      7301.91948                  20966406.3274
        52.0004         44.2504
 04  7  1 17 35 10.0000000  0  8G 3G 9G14G15G18G19G21G22
  22143148.5094      -3647.05949     -2679.78747                  22143146.7524
        47.5004         37.0004
  23288401.2374     -37828.93749    -27948.36547                  23288400.5574
        45.5004         29.2504
  21136003.7924    -219381.89849   -161626.61948                  21136000.4994
        52.0004         42.5004
  20206315.1914     -86287.10549    -64475.66648                  20206312.3044
        53.0004         45.2504
  21856022.2324     141191.42249    103722.65447                  21856018.7894
        50.0004         37.7504
  23775637.8424    -239801.94549   -167361.21547                  23775633.8954
        44.5004         30.2504
  21776376.8164     183092.73849    128513.97247                  21776373.6664
        48.2504         37.5004
  20966635.4864      12204.56349      8219.71548                  20966630.9664
        53.5004         43.7504
 04  7  1 17 35 20.0000000  0  8G 3G 9G14G15G18G19G21G22
  22143100.0734      -3902.62549     -2878.93547                  22143098.1294
        47.0004         36.2504
  23287680.8984     -41613.37549    -30897.28347                  23287679.5634
        45.5004         29.2504
  21131676.8124    -242118.30949   -179343.30048                  21131674.0844
        52.0004         42.5004
  20204604.8514     -95275.10249    -71479.30748                  20204601.9364
        51.7504         45.0004
  21858792.1414     155748.35549    115065.71247                  21858788.7614
        50.0004         37.7504
  23770832.3364    -265053.88349   -187038.03647                  23770828.5654
        42.7504         31.2504
  21780042.6414     202357.12549    143525.17447                  21780039.5134
        48.2504         38.0004
  20966864.0814      13405.57849      9155.57248                  20966859.0804
        51.5004         43.7504
 04  7  1 17 35 30.0000000  0  8G 3G 9G14G15G18G19G21G22
  22143062.5884      -4098.91449     -3031.90247                  22143060.4864
        45.5004         36.5004
  23286972.2674     -45334.27349    -33796.65347                  23286971.6604
        45.5004         29.0004
  21127360.3464    -264803.96549   -197020.43148                  21127357.4074
        51.7504         43.0004
  20202902.7194    -104219.89549    -78449.27948                  20202899.7874
        51.5004         44.7504
  21861564.5784     170316.57049    126417.55747                  21861560.8854
        50.5004         38.0004
  23766035.4794    -290260.37949   -206679.45147                  23766032.6524
        44.0004         30.5004
  21783716.0094     221660.44949    158566.70847                  21783713.0874
        47.5004         37.2504
  20967096.2514      14625.77749     10106.36648                  20967090.8094
        51.5004         43.7504
 04  7  1 17 35 40.0000000  0  8G 3G 9G14G15G18G19G21G22
  22143037.2244      -4234.31249     -3137.41847                  22143035.0564
        46.0004         36.7504
  23286277.1284     -48989.97349    -36645.25347                  23286276.3024
        45.2504         29.2504
  21123053.3074    -287437.27349   -214656.77548                  21123050.4774
        51.5004         42.7504
  20201209.0404    -113119.67649    -85384.17248                  20201206.3854
        52.7504         45.0004
  21864339.4004     184897.68449    137779.45747                  21864335.6844
        49.7504         38.5004
  23761247.4974    -315419.63749   -226284.06247                  23761243.8754
        43.2504         31.5004
  21787397.3154     241004.60949    173640.06747                  21787394.2624
        48.0004         38.0004
  20967332.3464      15866.79349     11073.38948                  20967327.4124
        53.0004         44.0004
 04  7  1 17 35 50.0000000  0  8G 3G 9G14G15G18G19G21G22
  22143022.7524      -4309.44949     -3195.95847                  22143020.7894
        47.5004         36.7504
  23285593.6554     -52581.03949    -39443.47947                  23285592.4724
        45.0004         28.2504
  21118756.2324    -310018.69149   -232252.67548                  21118753.3424
        51.5004         42.7504
  20199523.9874    -121975.05149    -92284.45648                  20199521.0954
        54.0004         45.2504
  21867116.0944     199490.94549    149150.83647                  21867112.5404
        50.5004         38.5004
  23756469.3394    -340532.19549   -245852.27047                  23756465.4494
        44.0004         32.0004
  21791085.9544     260388.68449    188744.53547                  21791083.0344
        48.0004         37.5004
  20967572.1874      17127.93849     12056.10648                  20967567.3134
        53.2504         44.5004
 04  7  1 17 36  0.0000000  0  8G 3G 9G14G15G18G19G21G22
  22143019.3194      -4327.71149     -3210.20047                  22143017.1634
        49.0004         37.0004
  23284922.2164     -56110.72749    -42193.88347                  23284920.6434
        45.0004         29.0004
  21114468.2934    -332551.48449   -249810.68848                  21114465.1674
        51.5004         42.7504
  20197846.7854    -130789.25049    -99152.67548                  20197843.8874
        53.2504         45.2504
  21869894.9124     214093.04749    160529.08147                  21869891.1824
        50.5004         38.0004
  23751699.3504    -365601.34849   -265386.68147                  23751694.8954
        43.7504         32.0004
  21794781.2604     279809.43849    203877.57447                  21794778.3274
        48.5004         37.7504
  20967815.7294      18405.93449     13051.94148                  20967810.0994
        53.2504         45.0004
 04  7  1 17 36 10.0000000  0  8G 3G 9G14G15G18G19G21G22
  22143026.2224      -4290.81249     -3181.45447                  22143024.1194
        48.5004         36.7504
  23284261.8114     -59580.74249    -44897.78847                  23284260.4644
        45.2504         29.0004
  21110189.3474    -355037.36349   -267332.14648                  21110186.3254
        51.5004         42.5004
  20196176.9304    -139563.87549   -105990.05048                  20196174.2124
        53.5004         45.5004
  21872675.0224     228702.25449    171912.87547                  21872671.5274
        50.5004         38.2504
  23746936.0164    -390628.70349   -284888.50747                  23746932.5274
        44.0004         31.7504
  21798483.7794     299265.01249    219037.74547                  21798480.6684
        49.2504         37.5004
  20968061.6434      19698.91049     14059.45748                  20968056.6984
        52.7504         44.5004
 04  7  1 17 36 20.0000000  0  8G 3G 9G14G15G18G19G21G22
  22143044.2694      -4196.49649     -3107.96347                  22143042.5614
        48.7504         37.0004
  23283613.3444     -62988.78549    -47553.37347                  23283611.8784
        45.2504         28.5004
  21105919.9814    -377474.07049   -284815.28548                  21105916.5974
        52.5004         42.0004
  20194515.1244    -148296.67649   -112794.82148                  20194512.4654
        53.2504         45.0004
  21875457.2094     243320.79749    183303.95047                  21875453.8034
        50.7504         38.0004
  23742182.3514    -415611.98449   -304355.99247                  23742178.4104
        43.7504         32.0004
  21802193.1764     318757.66849    234226.82247                  21802189.9714
        50.0004         37.5004
  20968311.2694      21009.16449     15080.42548                  20968306.1444
        52.7504         44.2504
 04  7  1 17 36 30.0000000  0  8G 3G 9G14G15G18G19G21G22
  22143072.1544      -4049.96149     -2993.80447                  22143069.9854
        49.0004         36.7504
  23282975.4164     -66339.98849    -50164.71747                  23282974.0264
        46.0004         28.5004
  21101658.4574    -399866.61349   -302264.01948                  21101655.5024
        52.0004         42.5004
  20192860.5024    -156992.73049   -119570.97548                  20192857.5774
        53.7504         45.2504
  21878239.6524     257943.60249    194698.33347                  21878236.4654
        50.2504         38.2504
  23737435.2144    -440556.16849   -323792.98047                  23737431.9784
        43.5004         31.7504
  21805908.5034     338282.32449    249440.81747                  21805905.3614
        48.5004         37.2504
  20968562.7364      22331.58649     16110.87848                  20968557.6924
        54.0004         44.0004
 04  7  1 17 36 40.0000000  0  8G 3G 9G14G15G18G19G21G22
  22143110.1274      -3851.27049     -2838.97947                  22143108.3094
        49.5004         36.2504
  23282348.7184     -69634.22749    -52731.64447                  23282346.7454
        45.2504         28.0004
  21097405.8504    -422214.99249   -319678.32348                  21097402.6684
        51.7504         42.2504
  20191212.6694    -165651.95349   -126318.43648                  20191209.7794
        54.0004         45.0004
  21881023.0354     272570.67649    206096.04147                  21881019.8264
        50.5004         38.2504
  23732695.5414    -465461.22749   -343199.50947                  23732692.6254
        43.7504         31.5004
  21809630.2824     357838.97749    264679.76247                  21809627.1094
        48.7504         37.5004
  20968816.5844      23666.08649     17150.75548                  20968811.3404
        53.7504         43.7504
 04  7  1 17 36 50.0000000  0  8G 3G 9G14G15G18G19G21G22
  22143157.6714      -3600.82049     -2643.82347                  22143155.7694
        47.2504         37.0004
  23281732.4674     -72871.88749    -55254.49747                  23281731.0374
        44.5004         28.7504
  21093161.4814    -444519.55149   -337058.49748                  21093157.9004
        51.5004         42.5004
  20189571.6894    -174274.73449   -133037.47848                  20189568.9224
        53.0004         45.5004
  21883807.1534     287201.44549    217496.62847                  21883804.0734
        50.2504         38.2504
  23727963.6114    -490327.46149   -362575.77347                  23727960.7804
        42.7504         32.2504
  21813357.5984     377427.35949    279943.42947                  21813354.4614
        48.7504         37.7504
  20969072.8484      25012.20749     18199.67448                  20969067.7184
        53.2504         44.0004
 04  7  1 17 37  0.0000000  0  8G 3G 9G14G15G18G19G21G22
  22143214.6904      -3300.13349     -2409.52847                  22143212.4174
        47.2504         36.7504
  23281126.4764     -76054.52349    -57734.45447                  23281124.9344
        44.5004         28.7504
  21088925.0344    -466781.79749   -354405.69948                  21088922.2534
        51.7504         42.5004
  20187937.5154    -182862.52749   -139729.27048                  20187934.2904
        53.7504         45.2504
  21886591.3894     301834.43049    228898.95247                  21886588.3894
        50.2504         38.5004
  23723238.6364    -515156.34449   -381922.96247                  23723235.9004
        44.0004         31.7504
  21817090.7874     397045.67249    295230.39147                  21817087.9754
        48.2504         37.2504
  20969331.2414      26368.42649     19256.46748                  20969326.4174
        52.7504         43.7504
 04  7  1 17 37 10.0000000  0  8G 3G 9G14G15G18G19G21G22
  22143281.9414      -2946.60549     -2134.05547                  22143280.0504
        48.0004         36.5004
  23280532.1974     -79179.35249    -60169.37147                  23280530.8174
        44.5004         29.2504
  21084697.2184    -488998.92249   -371717.73848                  21084694.2774
        51.5004         42.7504
  20186310.4674    -191412.51649   -146391.59248                  20186307.4734
        53.7504         45.5004
  21889376.9534     316472.39149    240305.14847                  21889374.1094
        50.5004         38.0004
  23718521.9604    -539945.09449   -401238.85147                  23718518.4494
        44.0004         31.7504
  21820829.9864     416696.66849    310542.85647                  21820827.3194
        48.2504         37.5004
  20969591.3934      27737.41849     20323.21748                  20969586.3134
        52.2504         44.2504
 04  7  1 17 37 20.0000000  0  8G 3G 9G14G15G18G19G21G22
  22143358.5584      -2544.34449     -1820.60147                  22143357.0124
        48.0004         37.2504
  23279947.8254     -82250.41849    -62562.40647                  23279946.4924
        45.2504         29.2504
  21080477.6614    -511174.98049   -388997.77348                  21080474.3204
        52.0004         42.7504
  20184689.9794    -199928.79349   -153027.65848                  20184687.1854
        53.0004         45.7504
  21892162.6464     331111.10249    251711.92447                  21892160.0504
        50.5004         38.5004
  23713811.9254    -564697.71549   -420526.59947                  23713807.8434
        44.7504         32.2504
  21824574.9254     436376.25849    325877.58747                  21824572.2814
        49.5004         37.5004
  20969853.4654      29115.03549     21396.67848                  20969848.2404
        53.2504         44.2504
 04  7  1 17 37 30.0000000  0  8G 3G 9G14G15G18G19G21G22
  22143443.6204      -2097.48849     -1472.41047                  22143441.9274
        49.5004         36.5004
  23279373.0304     -85271.93049    -64916.80547                  23279371.5564
        44.7504         29.5004
  21076263.9794    -533314.20349   -406249.11348                  21076261.0054
        51.7504         42.2504
  20183074.7314    -208415.46549   -159640.65048                  20183072.1274
        52.5004         45.7504
  21894947.5414     345746.43849    263116.07247                  21894944.7584
        50.5004         37.5004
  23709107.7624    -589418.28949   -439789.37247                  23709104.1224
        44.5004         31.2504
  21828324.7474     456080.39849    341231.44847                  21828322.1724
        49.5004         36.7504
  20970116.7404      30497.11749     22473.61748                  20970111.6474
        53.5004         44.0004
 04  7  1 17 37 40.0000000  0  8G 3G 9G14G15G18G19G21G22
  22143538.1354      -1600.04749     -1084.80347                  22143536.7794
        49.2504         37.0004
  23278808.6764     -88237.74249    -67227.82947                  23278806.7094
        45.0004         28.7504
  21072059.6264    -555410.45749   -423466.97148                  21072056.3474
        52.0004         42.0004
  20181466.6534    -216866.39549   -166225.79848                  20181464.1914
        51.7504         45.0004
  21897733.2254     360384.31349    274522.19647                  21897730.1734
        50.2504         37.7504
  23704410.4874    -614100.71149   -459022.42047                  23704407.1674
        44.2504         31.0004
  21832080.2634     475814.96949    356609.02647                  21832077.2324
        49.2504         36.5004
  20970381.6804      31889.64849     23558.70848                  20970376.3904
        52.0004         44.0004
 04  7  1 17 37 50.0000000  0  8G 3G 9G14G15G18G19G21G22
  22143641.2544      -1058.43749      -662.78447                  22143639.3964
        49.2504         37.2504
  23278253.3324     -91154.27349    -69500.44947                  23278251.9764
        45.0004         29.0004
  21067861.9314    -577470.04749   -440656.25948                  21067858.7434
        52.2504         42.5004
  20179864.1654    -225287.98849   -172788.08148                  20179861.3344
        51.2504         45.0004
  21900518.1324     375018.31649    285925.32147                  21900514.7764
        50.5004         37.5004
  23699719.7864    -638751.30949   -478230.67047                  23699716.5974
        44.5004         32.0004
  21835839.7474     495573.56649    372005.30547                  21835836.8524
        48.5004         37.2504
  20970647.6614      33286.21949     24646.93548                  20970642.0994
        51.2504         43.5004
 04  7  1 17 38  0.0000000  0  8G 3G 9G14G15G18G19G21G22
  22143753.5014       -470.70749      -204.82847                  22143751.6684
        46.5004         36.5004
  23277708.1784     -94019.46549    -71733.07347                  23277707.0894
        44.7504         29.0004
  21063671.2764    -599490.87949   -457815.35748                  21063668.2524
        51.5004         41.7504
  20178267.7774    -233678.04349   -179325.80048                  20178264.4864
        52.5004         44.7504
  21903302.6714     389650.60549    297327.07547                  21903299.2504
        51.0004         37.5004
  23695035.3584    -663367.96549   -497412.48547                  23695032.1834
        44.0004         31.7504
  21839604.9684     515358.04749    387421.75747                  21839602.5664
        49.0004         36.2504
  20970914.2614      34688.78549     25739.83248                  20970909.3964
        50.2504         43.5004
 04  7  1 17 38 10.0000000  0  8G 3G 9G14G15G18G19G21G22
  22143874.0414        163.78949       289.59847                  22143871.7254
        45.5004         37.5004
  23277172.5604     -96832.67249    -73925.15847                  23277171.4034
        42.7504         30.0004
  21059488.6354    -621472.36349   -474943.76348                  21059485.2774
        51.5004         42.5004
  20176676.9624    -242035.96949   -185838.45848                  20176674.0334
        51.5004         45.5004
  21906086.8584     404281.57449    308727.84547                  21906083.5004
        50.7504         37.7504
  23690357.9434    -687950.01649   -516567.31847                  23690354.2754
        44.7504         31.5004
  21843375.0794     535169.05149    402858.91047                  21843371.8654
        49.0004         36.7504
  20971182.2724      36097.99249     26837.92948                  20971177.0914
        49.7504         44.0004
 04  7  1 17 38 20.0000000  0  8G 3G 9G14G15G18G19G21G22
  22144003.6044        844.39149       819.92747                  22144001.6744
        48.5004         36.7504
  23276647.4624     -99594.40649    -76077.13247                  23276645.6784
        44.2504         29.0004
  21055313.0914    -643415.05549   -492041.95448                  21055309.8964
        51.5004         42.5004
  20175092.8004    -250362.25849   -192326.47348                  20175089.9024
        52.5004         45.5004
  21908870.6984     418910.69949    320127.15247                  21908867.0744
        51.0004         37.7504
  23685686.4784    -712497.93449   -535695.55947                  23685682.9004
        45.5004         32.0004
  21847149.9654     555006.01249    418316.27147                  21847146.5134
        49.2504         37.0004
  20971451.7144      37513.19149     27940.67448                  20971446.8054
        51.7504         44.0004
 04  7  1 17 38 30.0000000  0  8G 3G 9G14G15G18G19G21G22
  22144141.8114       1572.44549      1387.23547                  22144140.0574
        48.0004         37.2504
  23276131.7204    -102303.27049    -78187.95947                  23276130.6714
        43.0004         28.2504
  21051144.9164    -665317.50449   -509108.80648                  21051141.9154
        51.5004         42.5004
  20173514.3844    -258655.46949   -198788.71648                  20173511.0614
        52.7504         45.7504
  21911654.2624     433539.39549    331526.13247                  21911650.9144
        50.0004         38.5004
  23681021.5514    -737010.28549   -554796.07847                  23681018.0104
        44.2504         32.0004
  21850929.7594     574870.34049    433794.95347                  21850926.7994
        48.7504         37.5004
  20971722.3294      38935.71149     29049.13448                  20971717.4654
        51.2504         44.2504
 04  7  1 17 38 40.0000000  0  8G 3G 9G14G15G18G19G21G22
  22144289.1124       2346.25849      1990.20647                  22144287.6134
        45.0004         36.5004
  23275625.9354    -104960.92649    -80258.84647                  23275624.7584
        43.7504         29.0004
  21046984.4284    -687181.32849   -526145.53948                  21046981.5144
        51.7504         42.5004
  20171942.6004    -266917.22349   -205226.45148                  20171939.9264
        52.5004         45.5004
  21914437.5964     448165.91849    342923.43347                  21914434.2304
        51.0004         38.5004
  23676363.4124    -761488.72349   -573870.18147                  23676360.0124
        45.0004         32.2504
  21854714.9314     594760.52349    449293.79447                  21854711.9554
        49.2504         37.0004
  20971994.0814      40363.87149     30161.98748                  20971989.0964
        51.0004         44.0004
 04  7  1 17 38 50.0000000  0  8G 3G 9G14G15G18G19G21G22
  22144445.2474       3166.60249      2629.41947                  22144443.1914
        44.5004         37.0004
  23275130.0484    -107566.52349    -82289.15647                  23275128.7794
        44.0004         27.5004
  21042831.4954    -709005.73449   -543151.56948                  21042828.2674
        52.0004         42.5004
  20170376.5254    -275146.69149   -211639.03148                  20170373.3204
        51.0004         45.5004
  21917220.7244     462790.98449    354319.58147                  21917217.4354
        50.2504         38.0004
  23671712.0874    -785932.35549   -592917.14747                  23671708.5374
        45.2504         31.7504
  21858504.8424     614677.12949    464813.20947                  21858501.3524
        49.0004         36.5004
  20972267.2874      41798.40249     31279.79548                  20972261.9874
        48.7504         44.0004
 04  7  1 17 39  0.0000000  0  8G 3G 9G14G15G18G19G21G22
  22144610.0924       4031.44949      3303.33147                  22144607.9444
        44.5004         36.5004
  23274643.5374    -110122.05549    -84280.45547                  23274642.4454
        43.7504         27.5004
  21038685.6254    -730792.71549   -560128.42948                  21038682.1184
        52.2504         42.5004
  20168816.3924    -283345.87149   -218028.00448                  20168813.7004
        53.7504         45.2504
  21920002.8404     477412.62949    365713.05247                  21919999.6054
        50.5004         37.5004
  23667066.6974    -810343.04349   -611938.48047                  23667063.0014
        45.7504         32.0004
  21862299.5884     634618.02749    480351.55547                  21862296.2834
        48.7504         36.2504
  20972540.8664      43237.27749     32400.99248                  20972535.8784
        51.0004         43.7504
 04  7  1 17 39 10.0000000  0  8G 3G 9G14G15G18G19G21G22
  22144783.8144       4942.02749      4012.84347                  22144781.8134
        47.2504         36.7504
  23274167.5464    -112626.17649    -86231.77347                  23274165.5594
        43.0004         28.2504
  21034547.0574    -752540.86349   -577075.05848                  21034543.7434
        51.2504         42.0004
  20167262.1014    -291513.36349   -224392.30148                  20167259.1734
        52.0004         44.7504
  21922785.0664     492032.12549    377104.86247                  21922781.4824
        50.2504         36.5004
  23662428.4454    -834719.46949   -630933.08247                  23662424.6714
        46.0004         31.2504
  21866099.1994     654584.58649    495909.88447                  21866095.4614
        49.2504         36.5004
  20972815.8614      44681.81649     33526.59248                  20972810.9734
        50.7504         43.2504
 04  7  1 17 39 20.0000000  0  8G 3G 9G14G15G18G19G21G22
  22144965.4474       5899.33649      4758.80547                  22144963.6904
        49.2504         37.5004
  23273700.6574    -115077.78949    -88142.07347                  23273699.2534
        44.0004         29.0004
  21030416.0384    -774249.12949   -593990.56048                  21030412.5914
        51.2504         42.5004
  20165714.2534    -299648.01249   -230730.97548                  20165711.1414
        52.5004         45.5004
  21925566.8354     506650.48049    388495.77847                  21925563.3454
        50.7504         37.5004
  23657796.4724    -859060.50449   -649900.10347                  23657793.1334
        44.7504         32.5004
  21869903.5024     674577.86749    511489.07547                  21869900.5424
        50.0004         37.0004
  20973092.0324      46133.03549     34657.43148                  20973087.1954
        52.2504         44.0004
 04  7  1 17 39 30.0000000  0  8G 3G 9G14G15G18G19G21G22
  22145155.8934       6899.98849      5538.53347                  22145154.1714
        49.0004         36.5004
  23273243.5354    -117480.29349    -90014.14247                  23273242.2384
        43.2504         28.2504
  21026291.9394    -795920.87149   -610877.62348                  21026288.6144
        51.5004         42.5004
  20164171.6824    -307753.22349   -237046.72748                  20164168.8664
        51.7504         45.5004
  21928348.0294     521264.39149    399883.23247                  21928344.7714
        50.5004         37.5004
  23653170.7134    -883369.39149   -668842.08347                  23653166.5154
        46.2504         31.5004
  21873712.9014     694594.72349    527086.61447                  21873709.1584
        49.0004         36.5004
  20973368.7444      47587.52749     35790.79148                  20973363.2764
        50.2504         44.0004
 04  7  1 17 39 40.0000000  0  8G 3G 9G14G15G18G19G21G22
  22145355.0474       7947.39149      6354.67847                  22145353.1284
        48.7504         37.7504
  23272796.6094    -119830.18049    -91845.23747                  23272795.2824
        43.7504         28.7504
  21022175.3724    -817552.54349   -627733.46948                  21022172.2464
        51.7504         43.0004
  20162635.4644    -315825.43749   -243336.76548                  20162632.9594
        52.5004         45.7504
  21931128.3314     535877.15249    411269.80147                  21931125.4084
        50.5004         38.7504
  23648552.0394    -907642.69949   -687756.34747                  23648548.0984
        45.5004         32.2504
  21877527.1004     714638.18049    542704.87747                  21877523.8334
        49.5004         37.5004
  20973647.0014      49048.62949     36929.31048                  20973641.7004
        51.5004         45.0004
 04  7  1 17 39 50.0000000  0  8G 3G 9G14G15G18G19G21G22
  22145563.1934       9039.68049      7205.80847                  22145561.3854
        48.7504         37.0004
  23272358.6744    -122129.21949    -93636.69047                  23272357.4544
        43.7504         27.7504
  21018066.5734    -839145.90649   -644559.45748                  21018063.4104
        51.5004         43.0004
  20161105.4604    -323866.37949   -249602.44548                  20161102.5294
        52.5004         45.5004
  21933908.5674     550487.07849    422654.14047                  21933905.6404
        50.0004         38.5004
  23643938.7634    -931882.06249   -706644.15647                  23643934.8954
        45.0004         31.2504
  21881345.5414     734706.65249    558342.63047                  21881342.5834
        49.2504         36.7504
  20973925.6854      50514.59449     38071.61248                  20973920.9424
        51.7504         44.0004
 04  7  1 17 40  0.0000000  0  8G 3G 9G14G15G18G19G21G22
  22145779.3984      10176.09049      8091.31447                  22145777.9964
        49.5004         37.0004
  23271930.8504    -124378.23049    -95389.14947                  23271929.3884
        42.7504         27.5004
  21013964.7384    -860701.73849   -661356.20848                  21013961.5874
        52.0004         43.2504
  20159581.0564    -331876.84049   -255844.36148                  20159578.5214
        53.0004         45.2504
  21936688.3494     565093.20349    434035.53647                  21936685.2224
        50.5004         38.5004
  23639332.7464    -956088.29349   -725506.14647                  23639329.2534
        45.5004         31.0004
  21885170.0174     754799.17649    573999.13447                  21885166.3414
        49.5004         36.7504
  20974205.4754      51984.57449     39217.05548                  20974200.2754
        53.2504         44.0004
 04  7  1 17 40 10.0000000  0  8G 3G 9G14G15G18G19G21G22
  22146003.8364      11355.27049      9010.14647                  22146002.1474
        48.5004         36.5004
  23271512.0504    -126578.53949    -97103.68247                  23271510.8974
        43.0004         26.7504
  21009869.5024    -882221.35949   -678124.74048                  21009866.1264
        51.5004         42.7504
  20158062.0524    -339858.09849   -262063.52548                  20158059.3284
        51.7504         45.5004
  21939466.4664     579694.19949    445412.91747                  21939463.4404
        50.5004         38.0004
  23634731.9884    -980262.57449   -744343.24247                  23634728.1624
        45.0004         31.5004
  21888997.0994     774914.32049    589673.26247                  21888993.8884
        48.5004         36.5004
  20974485.8924      53457.14849     40364.50748                  20974480.6514
        51.0004         44.0004
 04  7  1 17 40 20.0000000  0  8G 3G 9G14G15G18G19G21G22
  22146236.9214      12580.88349      9965.16747                  22146235.3914
        49.0004         35.7504
  23271103.5204    -128726.39849    -98777.33347                  23271102.2804
        43.7504         26.5004
  21005782.1124    -903701.02749   -694862.13848                  21005778.7564
        51.7504         42.0004
  20156549.8734    -347806.35549   -268256.98948                  20156546.8754
        52.7504         44.5004
  21942244.8934     594293.77349    456789.20147                  21942241.8334
        50.5004         37.7504
  23630138.8224   -1004401.19949   -763152.55547                  23630135.0554
        45.0004         30.5004
  21892829.7984     795056.11749    605368.15347                  21892826.7904
        49.0004         35.7504
  20974767.2024      54936.07849     41516.90948                  20974762.5274
        52.5004         43.5004
 04  7  1 17 40 30.0000000  0  8G 3G 9G14G15G18G19G21G22
  22146478.4264      13850.22749     10954.26247                  22146476.7574
        48.0004         36.5004
  23270704.1864    -130824.35249   -100412.09647                  23270702.8154
        43.2504         29.0004
  21001701.5954    -925143.23049   -711570.33748                  21001698.5004
        51.5004         43.0004
  20155042.9564    -355724.17249   -274426.70748                  20155040.3154
        52.7504         45.5004
  21945022.0834     608889.30949    468162.34647                  21945019.2804
        50.0004         38.2504
  23625552.2764   -1028506.64849   -781936.00647                  23625548.3944
        45.0004         31.2504
  21896667.1164     815221.66849    621081.56747                  21896664.6114
        49.0004         36.2504
  20975049.3814      56418.67249     42672.19148                  20975044.2654
        53.0004         44.0004
 04  7  1 17 40 40.0000000  0  8G 3G 9G14G15G18G19G21G22
  22146728.2864      15163.21149     11977.35547                  22146726.4204
        48.5004         37.2504
  23270313.8884    -132872.47349   -102008.02947                  23270312.9304
        43.0004         27.5004
  20997628.4324    -946548.07049   -728249.43948                  20997625.2174
        51.5004         42.7504
  20153542.2024    -363611.52049   -280572.69748                  20153539.4584
        52.5004         46.0004
  21947799.3204     623480.66449    479532.22347                  21947795.7464
        50.5004         38.0004
  23620971.0024   -1052578.95349   -800693.63747                  23620967.5914
        45.0004         31.5004
  21900509.2784     835410.82049    636813.34847                  21900506.3654
        48.2504         36.0004
  20975332.0054      57904.90649     43830.28048                  20975326.8404
        51.2504         44.0004
 04  7  1 17 40 50.0000000  0  8G 3G 9G14G15G18G19G21G22
  22146986.6774      16519.49649     13034.20447                  22146984.4414
        48.0004         37.0004
  23269934.4974    -134870.95349   -103565.28747                  23269932.9564
        42.7504         29.0004
  20993562.2834    -967915.72349   -744899.54248                  20993559.1664
        51.2504         43.0004
  20152046.9334    -371468.62549   -286695.12148                  20152044.2834
        51.2504         46.0004
  21950574.8504     638067.60249    490898.65547                  21950571.4034
        51.0004         38.5004
  23616396.1294   -1076618.32049   -819425.61647                  23616393.0074
        44.5004         30.5004
  21904355.7184     855623.55149    652563.50947                  21904352.2794
        48.2504         36.5004
  20975615.6234      59394.39149     44990.92148                  20975610.5584
        50.7504         44.0004
 04  7  1 17 41  0.0000000  0  8G 3G 9G14G15G18G19G21G22
  22147252.2084      17916.12149     14122.47647                  22147250.7414
        48.7504         37.2504
  23269562.8274    -136822.74249   -105086.15347                  23269561.7364
        42.5004         28.5004
  20989502.1574    -989249.06649   -761522.92648                  20989499.7054
        51.5004         43.2504
  20150557.1084    -379298.40649   -292796.25048                  20150554.2504
        52.5004         45.5004
  21953348.9344     652647.16049    502259.34447                  21953345.7214
        50.7504         38.0004
  23611828.0534   -1100627.58249   -838134.09247                  23611823.9344
        45.0004         31.0004
  21908205.7254     875856.85549    668329.70547                  21908203.2674
        48.5004         36.7504
  20975899.1614      60884.18449     46151.79548                  20975893.9544
        52.0004         44.2504
 04  7  1 17 41 10.0000000  0  8G 3G 9G14G15G18G19G21G22
  22147526.7844      19359.34049     15247.03747                  22147525.2944
        47.7504         36.7504
  23269201.7104    -138721.53149   -106565.72047                  23269200.4914
        43.2504         28.2504
  20985450.7454   -1010541.93449   -778114.76848                  20985447.8154
        51.2504         43.0004
  20149073.4314    -387094.58649   -298871.20348                  20149070.6574
        52.7504         45.5004
  21956123.2654     667225.54749    513619.11347                  21956120.1404
        50.7504         37.7504
  23607266.1554   -1124600.43049   -856814.24947                  23607262.5564
        44.2504         30.5004
  21912061.2344     896116.94949    684116.78447                  21912058.3004
        49.2504         36.2504
  20976183.5874      62380.54749     47317.79648                  20976178.7274
        52.7504         44.0004
 04  7  1 17 41 20.0000000  0  8G 3G 9G14G15G18G19G21G22
  22147809.5234      20844.64849     16404.42547                  22147807.8144
        48.5004         36.0004
  23268849.5114    -140571.77749   -108007.46147                  23268848.5164
        43.2504         28.0004
  20981405.5994   -1031798.75049   -794678.51148                  20981402.9404
        52.0004         43.0004
  20147595.5684    -394861.55549   -304923.39248                  20147593.0704
        53.2504         45.5004
  21958896.4234     681798.20749    524974.44147                  21958893.1534
        50.5004         38.0004
  23602709.6834   -1148541.25049   -875469.40747                  23602706.1094
        45.0004         30.5004
  21915920.8024     916399.00849    699920.96047                  21915917.9464
        49.0004         36.7504
  20976468.9684      63878.92249     48485.36548                  20976463.9734
        52.7504         44.0004
 04  7  1 17 41 30.0000000  0  8G 3G 9G14G15G18G19G21G22
  22148101.3234      22378.28949     17599.45747                  22148099.0954
        47.2504         36.5004
  23268507.9344    -142367.16049   -109406.47847                  23268507.0784
        41.7504         26.5004
  20977368.6254   -1053013.10249   -811209.17748                  20977365.6504
        51.2504         41.7504
  20146124.2554    -402592.87549   -310947.80148                  20146121.2544
        53.0004         44.5004
  21961669.7574     696371.45749    536330.20247                  21961665.9084
        50.2504         36.7504
  23598160.7334   -1172443.68749   -894094.69747                  23598157.9764
        44.5004         29.2504
  21919785.8124     936709.41849    715747.24247                  21919783.0774
        49.0004         35.7504
  20976755.6464      65385.59049     49659.38048                  20976750.6194
        53.0004         42.7504
 04  7  1 17 41 40.0000000  0  8G 3G 9G14G15G18G19G21G22
  22148401.0294      23953.48049     18826.87747                  22148399.0364
        49.0004         37.0004
  23268175.6804    -144114.40649   -110767.96547                  23268173.9154
        42.7504         28.5004
  20973338.3804   -1074191.70349   -827711.97848                  20973335.4104
        51.7504         42.7504
  20144658.8574    -410295.31249   -316949.70948                  20144655.7144
        53.0004         45.5004
  21964441.5984     710938.54749    547681.16547                  21964438.4244
        50.5004         38.0004
  23593618.8464   -1196314.44149   -912695.25847                  23593615.3564
        44.0004         31.0004
  21923655.0294     957041.49649    731590.39547                  21923651.6874
        49.2504         37.0004
  20977042.7084      66893.74249     50834.55348                  20977037.5494
        51.7504         43.7504
 04  7  1 17 41 50.0000000  0  8G 3G 9G14G15G18G19G21G22
  22148708.9324      25570.14149     20086.60247                  22148706.6914
        48.5004         36.7504
  23267851.2434    -145813.50849   -112091.93247                  23267850.7854
        43.5004         27.5004
  20969315.4534   -1095334.59849   -844186.95348                  20969311.9334
        51.0004         42.7504
  20143198.3534    -417968.85949   -322929.08648                  20143195.4584
        54.0004         45.5004
  21967212.5544     725499.47349    559027.35047                  21967209.2094
        50.2504         37.7504
  23589082.4224   -1220153.41849   -931271.08347                  23589078.2144
        45.5004         31.5004
  21927528.3984     977395.23849    747450.45247                  21927525.2764
        49.0004         37.0004
  20977329.6944      68403.35949     52010.87748                  20977324.5414
        52.5004         44.0004
 04  7  1 17 42  0.0000000  0  8G 3G 9G14G15G18G19G21G22
  22149024.7534      27231.85249     21381.42847                  22149022.7764
        47.5004         36.5004
  23267538.2654    -147460.82849   -113375.56247                  23267536.9184
        42.5004         28.0004
  20965299.1674   -1116438.09049   -860631.21948                  20965296.2324
        51.5004         43.0004
  20141744.4654    -425609.82049   -328883.09648                  20141741.3234
        53.7504         46.0004
  21969982.9184     740057.82849    570371.51047                  21969979.4344
        50.0004         38.7504
  23584553.1944   -1243957.01249   -949819.31947                  23584549.3324
        44.5004         31.5004
  21931406.3824     997774.13349    763330.09547                  21931403.3114
        49.0004         37.0004
  20977618.0884      69918.01649     53191.12248                  20977612.7604
        53.2504         44.5004
 04  7  1 17 42 10.0000000  0  8G 3G 9G14G15G18G19G21G22
  22149348.7914      28933.36749     22707.28447                  22149346.7684
        46.5004         36.5004
  23267234.0024    -149061.59849   -114622.91547                  23267232.2954
        44.0004         27.7504
  20961290.0294   -1137507.41849   -877048.87748                  20961287.2324
        51.5004         43.0004
  20140295.6704    -433223.35949   -334815.73048                  20140292.6854
        53.5004         45.5004
  21972751.7244     754608.34049    581709.56447                  21972748.5864
        50.0004         37.5004
  23580028.4094   -1267730.33649   -968343.98547                  23580025.3264
        45.5004         30.7504
  21935288.2574    1018173.03149    779225.31047                  21935284.4074
        49.0004         37.0004
  20977906.3564      71432.47749     54371.21748                  20977901.1064
        53.5004         44.0004
 04  7  1 17 42 20.0000000  0  8G 3G 9G14G15G18G19G21G22
  22149680.7184      30677.85949     24066.62147                  22149679.2684
        47.7504         36.7504
  23266938.2234    -150612.51249   -115831.40947                  23266937.3874
        43.2504         28.5004
  20957287.8744   -1158539.23049   -893437.29948                  20957284.4444
        51.0004         43.0004
  20138852.6824    -440806.14849   -340724.39348                  20138849.9644
        54.5004         45.5004
  21975519.9494     769154.21949    593044.00347                  21975516.5494
        50.5004         37.7504
  23575510.9764   -1291470.04749   -986842.42947                  23575507.8244
        45.0004         31.0004
  21939174.0404    1038595.17649    795138.65447                  21939171.2764
        48.5004         37.0004
  20978195.1234      72949.98449     55553.69448                  20978190.1554
        53.5004         43.7504
 04  7  1 17 42 30.0000000  0  8G 3G 9G14G15G18G19G21G22
  22150020.9254      32464.64549     25458.90647                  22150018.6424
        46.7504         37.0004
  23266652.3074    -152114.23449   -117001.58247                  23266651.4824
        43.2504         27.7504
  20953292.6004   -1179534.21949   -909797.02248                  20953289.3734
        51.0004         42.7504
  20137415.5644    -448358.81249   -346609.59148                  20137412.6294
        52.7504         45.5004
  21978286.7174     783694.75449    604374.28447                  21978283.8694
        50.5004         37.2504
  23571000.2764   -1315176.72349  -1005315.16247                  23570996.7634
        45.0004         31.0004
  21943064.9324    1059040.07449    811069.73547                  21943061.5374
        49.2504         37.0004
  20978484.2154      74469.83649     56737.98648                  20978479.2314
        53.0004         43.7504
 04  7  1 17 42 40.0000000  0  8G 3G 9G14G15G18G19G21G22
  22150368.6714      34293.09049     26883.66247                  22150366.6334
        45.0004         36.0004
  23266376.1084    -153567.32449   -118133.87946                  23266374.9064
        41.7504         25.5004
  20949304.1794   -1200492.94149   -926128.49448                  20949301.2984
        51.5004         42.0004
  20135983.7624    -455881.85549   -352471.71848                  20135980.9184
        52.0004         44.5004
  21981052.7254     798229.40249    615699.96247                  21981049.4254
        50.5004         36.7504
  23566495.2354   -1338850.87949  -1023762.56147                  23566491.8374
        44.0004         30.0004
  21946959.3444    1079507.04349    827017.98647                  21946956.3154
        49.5004         36.0004
  20978773.7704      75991.41849     57923.62548                  20978768.9884
        52.5004         43.0004
 04  7  1 17 42 50.0000000  0  8G 3G 9G14G15G18G19G21G22
  22150724.9584      36163.05149     28340.78147                  22150723.1554
        48.5004         36.7504
  23266109.0544    -154971.90649   -119228.34347                  23266108.4154
        41.5004         28.0004
  20945322.6644   -1221415.48049   -942431.75648                  20945320.0884
        51.5004         43.0004
  20134557.6724    -463375.43049   -358310.86148                  20134554.8344
        53.5004         45.7504
  21983817.5634     812758.01649    627020.96547                  21983813.9714
        50.7504         37.5004
  23561995.9324   -1362492.61349  -1042184.68347                  23561992.3234
        44.5004         30.7504
  21950858.2474    1099995.58649    842983.09247                  21950855.3244
        49.0004         36.7504
  20979063.9564      77514.56649     59110.50148                  20979059.1434
        53.2504         43.7504
 04  7  1 17 43  0.0000000  0  8G 3G 9G14G15G18G19G21G22
  22151088.6454      38075.07449     29830.65347                  22151086.5114
        47.5004         37.5004
  23265850.9844    -156327.35949   -120284.53647                  23265850.3944
        42.5004         27.5004
  20941348.2914   -1242301.15649   -958706.31048                  20941345.1444
        51.5004         43.2504
  20133137.5834    -470838.85949   -364126.51848                  20133134.5674
        53.2504         45.5004
  21986580.5704     827281.09449    638337.63647                  21986577.7724
        50.5004         37.7504
  23557503.3534   -1386101.25049  -1060580.99747                  23557499.6804
        45.0004         31.2504
  21954761.7524    1120506.66849    858965.73847                  21954758.6404
        49.7504         36.7504
  20979354.0944      79039.81649     60299.00148                  20979348.9324
        53.7504         44.0004
 04  7  1 17 43 10.0000000  0  8G 3G 9G14G15G18G19G21G22
  22151459.5334      40026.63349     31351.34547                  22151457.4134
        46.5004         37.7504
  23265602.0764    -157636.18049   -121304.39447                  23265601.0374
        43.5004         28.0004
  20937380.3464   -1263152.46949   -974954.07648                  20937377.4824
        51.5004         44.0004
  20131722.4184    -478274.58649   -369920.59448                  20131719.7824
        53.0004         46.0004
  21989343.1634     841796.09449    649648.02347                  21989339.7764
        50.5004         38.7504
  23553016.6584   -1409679.25449  -1078953.47647                  23553013.4664
        44.5004         31.2504
  21958668.2114    1141037.31649    874963.63547                  21958664.9754
        48.5004         36.7504
  20979644.1124      80564.61349     61487.15748                  20979639.6044
        52.5004         44.5004
 04  7  1 17 43 20.0000000  0  8G 3G 9G14G15G18G19G21G22
  22151838.6014      42017.05949     32902.31647                  22151836.9224
        46.5004         37.0004
  23265361.4214    -158898.95349   -122288.36647                  23265360.5664
        43.0004         28.7504
  20933418.7554   -1283969.98049   -991175.51048                  20933415.9094
        51.2504         43.0004
  20130312.8454    -485683.14149   -375693.50148                  20130309.7024
        53.5004         45.5004
  21992103.7944     856302.49249    660951.70547                  21992100.2684
        50.5004         38.5004
  23548535.2794   -1433227.14549  -1097302.46147                  23548532.1034
        44.7504         31.5004
  21962578.9214    1161587.12549    890976.46047                  21962575.3824
        49.0004         36.7504
  20979933.9944      82088.36349     62674.48648                  20979928.4514
        52.7504         44.0004
 04  7  1 17 43 30.0000000  0  8G 3G 9G14G15G18G19G21G22
  22152225.2264      44050.14849     34486.53647                  22152223.5764
        46.5004         37.0004
  23265130.8474    -160111.75849   -123233.42347                  23265129.5014
        42.7504         27.2504
  20929464.6314   -1304749.84849  -1007367.60048                  20929461.9494
        52.0004         43.0004
  20128908.9414    -493060.68049   -381442.23148                  20128906.0684
        53.5004         45.7504
  21994863.4034     870804.05149    672251.61947                  21994860.2964
        50.5004         38.0004
  23544061.1504   -1456741.02049  -1115624.95847                  23544057.6984
        45.0004         31.0004
  21966494.0344    1182159.97349    907007.22447                  21966490.7684
        49.5004         35.7504
  20980224.5534      83614.88749     63863.98348                  20980219.8894
        52.5004         43.7504
 04  7  1 17 43 40.0000000  0  8G 3G 9G14G15G18G19G21G22
  22152620.0484      46125.43849     36103.64147                  22152618.6964
        44.2504         37.0004
  23264909.9824    -161275.04749   -124139.87047                  23264908.4264
        42.0004         27.0004
  20925517.3324   -1325492.41849  -1023530.64348                  20925514.4744
        51.0004         42.5004
  20127510.7364    -500407.58649   -387167.10048                  20127508.0234
        52.2504         45.5004
  21997621.9344     885300.32449    683547.40847                  21997618.3864
        51.0004         38.2504
  23539592.7984   -1480221.23449  -1133921.21947                  23539589.3084
        45.5004         31.0004
  21970412.8874    1202755.31349    923055.53447                  21970409.4764
        48.5004         36.0004
  20980515.4044      85143.67649     65055.24448                  20980510.6674
        51.5004         44.0004
 04  7  1 17 43 50.0000000  0  8G 3G 9G14G15G18G19G21G22
  22153023.2174      48242.15249     37753.02147                  22153021.1714
        44.5004         36.5004
  23264697.2224    -162389.51649   -125008.31947                  23264696.2124
        41.2504         26.5004
  20921577.1694   -1346198.42249  -1039665.18648                  20921574.2884
        50.7504         42.0004
  20126118.4184    -507724.51649   -392868.61748                  20126115.4874
        53.5004         44.7504
  22000379.1264     899790.52049    694838.45647                  22000376.2624
        50.7504         37.5004
  23535131.0534   -1503668.46949  -1152191.78747                  23535127.7024
        45.0004         30.2504
  21974336.4314    1223372.34849    939120.73647                  21974332.8264
        49.0004         35.5004
  20980806.7414      86674.01249     66247.70148                  20980801.6594
        50.0004         43.0004
 04  7  1 17 44  0.0000000  0  8G 3G 9G14G15G18G19G21G22
  22153432.9954      50397.58249     39432.56947                  22153431.2234
        44.5004         36.5004
  23264493.4924    -163457.82849   -125840.71947                  23264493.4524
        42.7504         28.0004
  20917643.3204   -1366870.43749  -1055773.23248                  20917640.7314
        51.0004         43.0004
  20124731.2614    -515014.03949   -398548.75148                  20124728.2674
        53.7504         45.7504
  22003134.8344     914271.96549    706122.69447                  22003131.8374
        50.7504         38.2504
  23530674.9634   -1527085.28549  -1170438.63047                  23530671.3774
        45.2504         31.0004
  21978263.0344    1244008.40649    955200.77147                  21978259.8404
        49.2504         36.2504
  20981097.9114      88203.22349     67439.29848                  20981092.6184
        50.7504         43.7504
 04  7  1 17 44 10.0000000  0  8G 3G 9G14G15G18G19G21G22
  22153851.3004      52593.89849     41143.97647                  22153848.8944
        46.5004         36.7504
  23264300.3644    -164477.69149   -126635.45047                  23264299.4224
        43.0004         27.5004
  20913716.5434   -1387506.27049  -1071853.12048                  20913713.4124
        51.0004         43.0004
  20123349.9334    -522273.88349   -404205.79248                  20123347.1504
        52.7504         45.5004
  22005889.0414     928746.97349    717401.90047                  22005886.5784
        50.0004         37.7504
  23526225.4944   -1550469.36749  -1188659.99447                  23526221.8564
        46.0004         31.0004
  21982194.0754    1264665.64149    971297.28847                  21982190.6284
        47.7504         35.5004
  20981388.9504      89733.51249     68631.72048                  20981383.8864
        53.2504         43.7504
 04  7  1 17 44 20.0000000  0  8G 3G 9G14G15G18G19G21G22
  22154276.9014      54831.55149     42887.59747                  22154275.5894
        47.5004         37.0004
  23264115.0694    -165448.68049   -127392.05247                  23264114.5524
        42.0004         28.5004
  20909796.4154   -1408105.40249  -1087904.37048                  20909793.6674
        51.5004         43.5004
  20121973.8334    -529503.56649   -409839.30848                  20121971.2184
        53.5004         46.0004
  22008642.6904     943215.90649    728676.38847                  22008639.7714
        50.5004         38.0004
  23521781.2894   -1573820.16049  -1206855.39947                  23521778.0494
        45.0004         31.5004
  21986129.1664    1285344.58249    987410.74947                  21986125.9644
        48.7504         36.5004
  20981680.3174      91265.35249     69825.36248                  20981675.0654
        53.0004         44.2504
 04  7  1 17 44 30.0000000  0  8G 3G 9G14G15G18G19G21G22
  22154710.5334      57108.65649     44661.95147                  22154708.9934
        45.0004         36.5004
  23263939.5704    -166372.58649   -128111.96747                  23263938.6314
        42.7504         27.2504
  20905883.6014   -1428669.62949  -1103928.43848                  20905880.6894
        51.0004         43.7504
  20120603.7424    -536704.81249   -415450.67248                  20120601.1304
        53.0004         45.7504
  22011394.4484     957676.89849    739944.68147                  22011391.5424
        49.5004         38.0004
  23517344.3454   -1597139.42649  -1225026.25547                  23517340.7714
        45.7504         31.7504
  21990067.7624    1306043.47349   1003539.73047                  21990064.6284
        47.7504         36.0004
  20981971.9524      92796.84049     71018.72548                  20981966.7504
        52.5004         44.0004
 04  7  1 17 44 40.0000000  0  8G 3G 9G14G15G18G19G21G22
  22155150.8054      59424.00049     46466.11047                  22155149.5824
        44.2504         36.0004
  23263772.7994    -167250.52349   -128796.07947                  23263771.0884
        43.0004         28.2504
  20901976.5524   -1449200.02349  -1119926.14048                  20901973.7544
        51.5004         43.0004
  20119238.5024    -543878.71949   -421040.73248                  20119235.3414
        52.2504         46.0004
  22014144.6334     972128.84849    751205.92647                  22014141.0884
        50.0004         37.7504
  23512912.7054   -1620428.28149  -1243173.40947                  23512908.7954
        46.0004         31.0004
  21994010.0254    1326761.21149   1019683.40847                  21994007.2504
        47.5004         36.2504
  20982262.7894      94326.71149     72210.83148                  20982258.1054
        51.7504         43.7504
 04  7  1 17 44 50.0000000  0  8G 3G 9G14G15G18G19G21G22
  22155599.3844      61781.03549     48302.75247                  22155597.5134
        47.0004         36.5004
  23263615.0614    -168079.03149   -129441.66847                  23263613.8754
        42.0004         28.2504
  20898076.8744   -1469693.13349  -1135894.79248                  20898074.4254
        51.0004         43.0004
  20117879.3604    -551021.76249   -426606.74248                  20117876.4664
        53.2504         45.7504
  22016893.5734     986575.17649    762462.79647                  22016890.7094
        50.0004         38.2504
  23508487.4384   -1643683.16049  -1261294.07647                  23508483.8694
        46.0004         32.0004
  21997957.0664    1347501.09849   1035844.34947                  21997953.8714
        48.5004         36.5004
  20982554.4264      95858.44149     73404.38948                  20982549.6734
        54.0004         44.0004
 04  7  1 17 45  0.0000000  0  8G 3G 9G14G15G18G19G21G22
  22156055.8134      64178.10949     50170.60147                  22156054.1694
        44.0004         35.7504
  23263465.6404    -168859.63349   -130049.91847                  23263464.9034
        42.0004         26.5004
  20894183.8734   -1490150.46149  -1151835.56548                  20894181.6494
        51.0004         42.2504
  20116525.3324    -558135.46549   -432149.89448                  20116522.3594
        52.0004         45.0004
  22019641.5794    1001014.39849    773714.12147                  22019638.1454
        50.5004         36.7504
  23504068.2094   -1666905.57849  -1279389.46447                  23504064.2004
        46.0004         31.0004
  22001907.9344    1368261.49249   1052021.26147                  22001904.4824
        47.2504         35.2504
  20982846.2014      97390.50849     74598.19548                  20982840.7584
        53.0004         43.7504
 04  7  1 17 45 10.0000000  0  8G 3G 9G14G15G18G19G21G22
  22156519.7824      66616.87549     52070.92747                  22156517.8124
        46.2504         36.0004
  23263326.6874    -169590.63349   -130619.53047                  23263325.5864
        42.2504         28.0004
  20890298.4614   -1510570.31649  -1167747.13948                  20890295.7164
        51.2504         42.7504
  20115177.5464    -565218.11349   -437668.84448                  20115175.2204
        52.7504         45.5004
  22022388.2024    1015447.98049    784961.07247                  22022384.7094
        49.7504         37.5004
  23499655.5204   -1690093.82049  -1297458.21247                  23499651.9264
        47.0004         31.5004
  22005862.3224    1389044.20749   1068215.55847                  22005859.6684
        47.0004         36.2504
  20983137.6844      98924.52749     75793.52948                  20983132.9314
        52.5004         44.0004
 04  7  1 17 45 20.0000000  0  8G 3G 9G14G15G18G19G21G22
  22156990.9294      69093.95349     54001.11547                  22156988.9904
        46.2504         36.5004
  23263197.1584    -170275.34849   -131153.07847                  23263195.6284
        43.0004         28.0004
  20886419.0404   -1530956.03949  -1183632.10948                  20886416.2134
        51.7504         43.0004
  20113835.2694    -572273.00049   -443166.16048                  20113832.5434
        53.5004         45.5004
  22025133.0994    1029872.57049    796200.99247                  22025129.1354
        49.5004         37.2504
  23495249.0724   -1713251.12149  -1315502.84447                  23495245.2314
        45.7504         32.0004
  22009820.9374    1409845.85549   1084424.62347                  22009817.6914
        47.5004         35.7504
  20983429.5594     100457.07849     76987.72448                  20983424.3894
        52.7504         43.7504
 04  7  1 17 45 30.0000000  0  8G 3G 9G14G15G18G19G21G22
  22157470.3614      71613.22349     55964.17847                  22157468.5784
        46.0004         36.2504
  23263076.0854    -170909.87949   -131647.51247                  23263074.5834
        43.0004         28.0004
  20882546.6534   -1551303.66449  -1199487.39048                  20882543.9324
        51.2504         43.5004
  20112498.9224    -579296.15249   -448638.75048                  20112495.8924
        53.0004         46.0004
  22027876.9974    1044292.09849    807436.98547                  22027873.5814
        49.2504         37.7504
  23490848.4794   -1736373.55949  -1333520.33047                  23490844.9214
        46.0004         32.0004
  22013783.7184    1430670.06649   1100651.26647                  22013781.1064
        47.5004         35.7504
  20983721.8024     101992.04749     78183.79648                  20983716.7324
        51.2504         44.0004
 04  7  1 17 45 40.0000000  0  8G 3G 9G14G15G18G19G21G22
  22157957.4304      74170.79349     57957.07747                  22157955.5124
        47.0004         35.7504
  23262964.1334    -171498.08649   -132105.84747                  23262962.4524
        42.5004         27.5004
  20878681.1384   -1571617.00849  -1215315.95648                  20878679.0174
        51.0004         43.0004
  20111167.8494    -586291.38749   -454089.58348                  20111164.9524
        52.7504         45.5004
  22030619.0114    1058702.71149    818666.03047                  22030615.6954
        50.2504         37.5004
  23486454.6304   -1759464.85249  -1351513.51647                  23486450.9574
        46.0004         31.5004
  22017750.3064    1451512.96949   1116892.48247                  22017747.0054
        47.0004         35.7504
  20984013.2824     103525.56649     79378.74648                  20984008.4774
        51.5004         43.7504
 04  7  1 17 45 50.0000000  0  8G 3G 9G14G15G18G19G21G22
  22158451.0434      76766.57449     59979.76247                  22158449.7574
        47.0004         36.2504
  23262860.8194    -172039.93749   -132528.04147                  23262859.9114
        44.0004         27.5004
  20874822.2704   -1591896.04749  -1231117.80448                  20874819.7964
        51.0004         43.2504
  20109841.7644    -593258.67649   -459518.63948                  20109839.0784
        53.0004         45.5004
  22033359.9344    1073104.35249    829888.07947                  22033356.4574
        48.7504         37.2504
  23482066.5804   -1782525.03549  -1369482.48747                  23482062.6834
        45.7504         32.2504
  22021720.0284    1472374.65249   1133148.31447                  22021717.0224
        47.2504         35.0004
  20984305.0474     105057.60949     80572.54448                  20984300.0784
        52.0004         43.7504
 04  7  1 17 46  0.0000000  0  8G 3G 9G14G15G18G19G21G22
  22158953.3014      79405.27049     62035.88147                  22158951.8374
        47.2504         35.7504
  23262767.5494    -172530.69149   -132910.45847                  23262766.3374
        43.2504         27.2504
  20870971.1804   -1612136.12149  -1246889.27148                  20870967.9114
        51.2504         43.5004
  20108522.2064    -600193.27049   -464922.21648                  20108519.3334
        53.0004         45.5004
  22036099.4514    1087501.73849    841106.81147                  22036096.2384
        48.2504         37.5004
  23477684.7854   -1805549.31649  -1387423.48347                  23477681.5674
        46.2504         32.0004
  22025694.1564    1493259.73049   1149422.38447                  22025691.7204
        47.5004         35.7504
  20984596.9524     106592.86749     81768.84848                  20984592.2564
        51.2504         43.7504
 04  7  1 17 46 10.0000000  0  8G 3G 9G14G15G18G19G21G22
  22159462.9124      82083.71949     64122.97047                  22159461.4084
        45.7504         35.5004
  23262683.3864    -172973.47349   -133255.50847                  23262682.8884
        41.7504         27.2504
  20867125.9084   -1632340.28949  -1262632.79248                  20867123.4324
        50.7504         42.0004
  20107208.3484    -607098.21149   -470302.70748                  20107205.4244
        53.0004         44.5004
  22038837.8614    1101891.71149    852319.75847                  22038835.0094
        50.0004         36.2504
  23473309.8514   -1828540.72349  -1405338.86447                  23473305.6554
        46.0004         30.2504
  22029672.5634    1514165.23849   1165712.35947                  22029669.6774
        45.0004         35.5004
  20984889.5234     108128.21149     82965.20348                  20984884.3594
        50.7504         42.7504
 04  7  1 17 46 20.0000000  0  8G 3G 9G14G15G18G19G21G22
  22159979.8744      84800.54349     66239.98247                  22159978.1954
        45.5004         36.2504
  23262608.5014    -173369.58649   -133564.13247                  23262607.2934
        43.5004         28.7504
  20863288.0254   -1652509.83649  -1278349.31248                  20863285.2754
        50.7504         43.7504
  20105899.6344    -613974.71549   -475661.01748                  20105897.1944
        52.0004         45.7504
  22041574.5624    1116272.99649    863525.94747                  22041571.1934
        49.5004         37.5004
  23468940.6354   -1851500.49249  -1423229.57347                  23468936.6104
        46.0004         32.2504
  22033654.1804    1535089.69949   1182017.12847                  22033651.3504
        47.5004         36.5004
  20985180.8724     109662.26249     84160.57748                  20985176.2354
        51.2504         44.0004
 04  7  1 17 46 30.0000000  0  8G 3G 9G14G15G18G19G21G22
  22160504.9084      87557.32849     68388.11747                  22160502.9554
        47.5004         36.5004
  23262541.6624    -173717.33249   -133835.13447                  23262540.9034
        41.7504         29.0004
  20859456.9614   -1672642.98449  -1294037.47548                  20859454.0944
        50.7504         43.7504
  20104596.7394    -620821.04349   -480995.82948                  20104593.8424
        53.0004         45.2504
  22044309.9414    1130647.20749    874726.62147                  22044306.8784
        50.0004         37.5004
  23464577.8824   -1874426.84449  -1441094.25747                  23464574.3024
        46.5004         32.5004
  22037639.6054    1556034.69549   1198337.88247                  22037637.0134
        47.2504         36.0004
  20985473.2324     111196.66849     85356.20148                  20985468.2964
        52.0004         43.7504
 04  7  1 17 46 40.0000000  0  8G 3G 9G14G15G18G19G21G22
  22161037.2724      90356.18049     70569.03947                  22161035.8074
        47.5004         36.2504
  23262485.6954    -174014.64549   -134066.77447                  23262484.4184
        42.2504         29.0004
  20855632.7434   -1692737.65249  -1309695.64548                  20855629.9944
        51.0004         44.0004
  20103300.2604    -627635.10549   -486305.47748                  20103297.4414
        53.0004         46.0004
  22047044.4194    1145016.36349    885923.34947                  22047041.2224
        49.5004         37.7504
  23460222.1604   -1897317.73449  -1458931.29947                  23460218.3354
        46.7504         32.2504
  22041630.2044    1577002.32449   1214676.29347                  22041626.9414
        46.2504         36.0004
  20985765.4754     112733.46149     86553.70748                  20985760.6024
        52.2504         44.0004
 04  7  1 17 46 50.0000000  0  8G 3G 9G14G15G18G19G21G22
  22161576.5984      93192.03949     72778.78247                  22161575.6524
        45.5004         36.0004
  23262437.4454    -174266.51649   -134263.05647                  23262436.6364
        42.2504         29.0004
  20851815.4154   -1712798.85549  -1325327.74648                  20851812.5314
        50.5004         43.5004
  20102008.7154    -634421.89549   -491593.89148                  20102005.9734
        52.5004         45.7504
  22049776.8784    1159375.55149    897112.32047                  22049773.2944
        49.5004         37.5004
  23455872.5164   -1920178.05549  -1476744.54647                  23455867.9664
        46.5004         32.2504
  22045623.4494    1597987.56349   1231028.39847                  22045620.1884
        46.2504         35.5004
  20986057.6914     114267.71149     87749.21648                  20986052.8694
        52.0004         43.7504
 04  7  1 17 47  0.0000000  0  8G 3G 9G14G15G18G19G21G22
  22162123.1854      96062.69549     75015.63947                  22162121.3344
        46.5004         36.0004
  23262397.5354    -174475.03949   -134425.53047                  23262396.7574
        43.0004         28.2504
  20848004.0724   -1732828.68749  -1340935.41348                  20848001.5004
        51.2504         43.2504
  20100722.0304    -641183.38349   -496862.58548                  20100719.1654
        53.0004         45.5004
  22052506.7994    1173722.52049    908291.77047                  22052503.5634
        50.2504         37.2504
  23451527.2094   -1943009.83649  -1494535.53347                  23451523.4644
        46.5004         31.7504
  22049619.3684    1618988.47349   1247392.72347                  22049616.2524
        46.5004         36.2504
  20986348.5054     115797.16049     88940.98848                  20986343.3274
        52.2504         43.5004
 04  7  1 17 47 10.0000000  0  8G 3G 9G14G15G18G19G21G22
  22162676.8334      98972.16049     77282.76147                  22162675.0884
        45.7504         35.5004
  23262367.2334    -174636.14149   -134551.05847                  23262365.4294
        42.5004         29.0004
  20844199.1044   -1752823.04749  -1356515.42348                  20844196.3334
        51.0004         43.5004
  20099440.9674    -647915.54749   -502108.43048                  20099438.5524
        53.7504         45.5004
  22055235.4474    1188061.39149    919464.90347                  22055232.1544
        49.7504         37.5004
  23447188.8894   -1965808.93449  -1512301.07447                  23447184.8034
        46.5004         32.0004
  22053619.7424    1640008.90649   1263772.26047                  22053616.6264
        46.2504         36.0004
  20986639.7074     117325.87549     90132.19548                  20986634.9674
        50.2504         43.2504
 04  7  1 17 47 20.0000000  0  8G 3G 9G14G15G18G19G21G22
  22163237.3774     101920.01649     79579.79547                  22163235.9524
        46.7504         35.7504
  23262345.6154    -174750.12949   -134639.87947                  23262343.9234
        42.5004         28.0004
  20840401.0484   -1772782.21949  -1372068.02148                  20840398.0684
        50.7504         43.0004
  20098165.7794    -654618.66049   -507331.64948                  20098162.6934
        53.0004         44.7504
  22057962.5674    1202391.69149    930631.37047                  22057959.4024
        50.2504         37.0004
  23442856.4174   -1988575.74649  -1530041.42947                  23442852.1994
        46.7504         31.5004
  22057623.3264    1661048.48049   1280166.73347                  22057620.4534
        46.7504         35.0004
  20986929.9694     118853.48849     91322.54148                  20986925.5384
        51.0004         43.0004
 04  7  1 17 47 30.0000000  0  8G 3G 9G14G15G18G19G21G22
  22163805.5764     104904.56649     81905.41047                  22163803.7244
        44.2504         36.2504
  23262332.9414    -174818.81249   -134693.39447                  23262331.4194
        43.5004         27.5004
  20836609.3914   -1792707.90649  -1387594.51548                  20836606.5394
        51.0004         43.7504
  20096895.1464    -661294.37549   -512533.50348                  20096892.5694
        52.0004         45.7504
  22060687.3854    1216711.72749    941789.82547                  22060684.2354
        50.0004         37.2504
  23438529.9214   -2011311.82049  -1547757.82647                  23438525.5154
        46.5004         31.5004
  22061630.4034    1682105.38349   1296574.69047                  22061627.0214
        46.5004         35.5004
  20987220.3334     120378.24649     92510.66348                  20987215.4414
        51.2504         44.0004
 04  7  1 17 47 40.0000000  0  8G 3G 9G14G15G18G19G21G22
  22164380.6454     107927.91849     84261.25747                  22164379.4844
        48.2504         36.2504
  23262327.7524    -174840.00449   -134709.91547                  23262326.9514
        42.5004         27.7504
  20832824.3754   -1812597.92249  -1403093.22748                  20832821.5244
        51.0004         44.0004
  20095630.5634    -667940.49249   -517712.30148                  20095627.3674
        54.2504         45.5004
  22063410.8864    1231023.68449    952941.99247                  22063407.5944
        49.2504         37.5004
  23434209.9014   -2034014.95349  -1565448.59447                  23434205.5834
        46.5004         32.2504
  22065641.1384    1703181.76249   1312997.81847                  22065637.6844
        46.0004         35.5004
  20987510.4224     121902.28149     93698.21748                  20987505.3274
        51.0004         43.5004
 04  7  1 17 47 50.0000000  0  8G 3G 9G14G15G18G19G21G22
  22164964.1294     110992.57849     86649.30447                  22164962.5614
        44.5004         36.7504
  23262333.9854    -174811.03549   -134687.33347                  23262332.8004
        41.7504         28.0004
  20829046.5564   -1832449.71549  -1418562.15448                  20829043.8274
        51.0004         44.7504
  20094371.8554    -674554.37149   -522865.97948                  20094369.1504
        52.2504         46.2504
  22066133.0084    1245330.15249    964089.88647                  22066129.8834
        49.5004         37.5004
  23429895.9404   -2056682.52749  -1583111.62747                  23429892.2154
        46.7504         33.0004
  22069656.2004    1724280.21149   1329438.14747                  22069652.9864
        46.2504         35.5004
  20987800.5124     123428.11349     94887.17248                  20987795.7174
        51.0004         43.7504
 04  7  1 17 48  0.0000000  0  8G 3G 9G14G15G18G19G21G22
  22165554.6604     114096.47349     89067.90247                  22165552.9344
        46.2504         36.0004
  23262348.4224    -174733.92649   -134627.23447                  23262347.3634
        43.0004         26.7504
  20825276.0644   -1852265.21149  -1434002.79648                  20825272.8004
        51.7504         44.5004
  20093118.7674    -681137.97749   -527996.06148                  20093115.8974
        53.5004         46.0004
  22068853.9954    1259629.08649    975231.89247                  22068851.2964
        49.5004         36.7504
  23425588.9654   -2079316.44949  -1600748.44047                  23425584.7654
        47.0004         33.0004
  22073674.6404    1745398.75049   1345894.14547                  22073671.6014
        46.5004         35.5004
  20988091.0974     124953.80549     96076.01748                  20988086.4144
        51.7504         44.0004
 04  7  1 17 48 10.0000000  0  8G 3G 9G14G15G18G19G21G22
  22166152.3484     117239.96149     91517.37347                  22166151.1384
        48.0004         35.7504
  23262372.4204    -174608.30549   -134529.34147                  23262370.7774
        42.0004         28.5004
  20821511.8924   -1872044.02349  -1449414.84848                  20821509.1824
        51.5004         43.2504
  20091872.0114    -687690.86349   -533102.21048                  20091868.9544
        53.2504         45.5004
  22071574.0544    1273920.82449    986368.30747                  22071570.4674
        49.0004         36.5004
  23421288.1054   -2101916.23849  -1618358.65547                  23421284.4634
        46.5004         32.0004
  22077697.4754    1766537.68449   1362366.02647                  22077694.6624
        46.2504         34.7504
  20988380.9954     126479.64549     97264.98248                  20988376.2054
        51.0004         43.2504
 04  7  1 17 48 20.0000000  0  8G 3G 9G14G15G18G19G21G22
  22166758.6434     120422.23449     93997.05947                  22166757.0074
        45.7504         35.7504
  23262405.0794    -174434.92649   -134394.23847                  23262404.1234
        41.7504         27.0004
  20817755.1874   -1891786.86349  -1464798.87248                  20817752.2744
        51.5004         43.7504
  20090630.7654    -694213.77749   -538185.00648                  20090627.7254
        52.7504         45.5004
  22074292.0324    1288204.50849    997498.44147                  22074289.0154
        48.0004         36.5004
  23416994.2194   -2124482.63349  -1635942.84947                  23416989.7854
        46.5004         32.5004
  22081723.4514    1787696.19949   1378853.14847                  22081720.5514
        45.5004         35.0004
  20988671.5914     128004.84049     98453.44448                  20988666.4474
        51.5004         43.5004
 04  7  1 17 48 30.0000000  0  8G 3G 9G14G15G18G19G21G22
  22167371.8794     123644.90649     96508.21647                  22167370.0764
        45.2504         35.5004
  23262447.8764    -174212.10949   -134220.59847                  23262446.5014
        42.2504         27.5004
  20814005.3594   -1911491.99649  -1480153.52948                  20814002.3384
        51.7504         43.0004
  20089395.6874    -700704.98049   -543243.10048                  20089392.9644
        52.0004         44.7504
  22077009.0034    1302481.85249   1008623.62247                  22077006.2114
        48.0004         36.5004
  23412706.2464   -2147013.95349  -1653499.74347                  23412702.7384
        46.5004         32.5004
  22085753.9414    1808876.19549   1395357.02247                  22085751.2544
        44.0004         34.5004
  20988962.1044     129531.05149     99642.69548                  20988957.2844
        50.2504         43.0004
 04  7  1 17 48 40.0000000  0  8G 3G 9G14G15G18G19G21G22
  22167992.2354     126905.81349     99049.18447                  22167990.8394
        48.0004         36.7504
  23262498.9224    -173941.89149   -134010.02247                  23262497.7864
        43.0004         28.7504
  20810262.5154   -1931161.57849  -1495480.45848                  20810259.7464
        50.7504         44.0004
  20088165.8634    -707166.57449   -548278.10448                  20088163.2904
        53.0004         45.7504
  22079724.0724    1316750.73049   1019742.23247                  22079720.7434
        47.7504         37.2504
  23408425.6314   -2169512.09449  -1671030.73647                  23408421.6404
        47.0004         32.0004
  22089787.8154    1830075.20349   1411875.72647                  22089785.1644
        45.5004         34.5004
  20989252.2954     131056.16849    100831.09748                  20989247.5134
        51.7504         43.5004
 04  7  1 17 48 50.0000000  0  8G 3G 9G14G15G18G19G21G22
  22168619.5954     130202.33649    101617.89947                  22168617.6784
        46.7504         35.7504
  23262559.1514    -173626.88349   -133764.57947                  23262557.7654
        42.5004         29.0004
  20806526.0424   -1950798.16449  -1510781.68648                  20806522.7554
        51.5004         44.0004
  20086941.5004    -713601.06649   -553291.99448                  20086938.7724
        52.7504         45.5004
  22082437.5694    1331008.58249   1030852.23347                  22082434.3594
        48.0004         38.0004
  23404149.7754   -2191979.65249  -1688537.91747                  23404146.1944
        46.2504         32.0004
  22093825.1164    1851290.58649   1428407.17947                  22093822.4784
        45.0004         35.0004
  20989541.8124     132577.55149    102016.60048                  20989537.5264
        50.5004         43.5004
 04  7  1 17 49  0.0000000  0  8G 3G 9G14G15G18G19G21G22
  22169253.9794     133536.09449    104215.62147                  22169252.3854
        46.7504         36.2504
  23262627.7374    -173265.32449   -133482.84347                  23262626.5744
        42.2504         29.2504
  20802795.7244   -1970400.00449  -1526055.85348                  20802792.8314
        51.2504         44.0004
  20085722.5894    -720006.74249   -558283.43648                  20085719.9614
        52.7504         46.0004
  22085149.0824    1345257.03949   1041954.91547                  22085145.5544
        48.2504         37.7504
  23399880.5914   -2214414.89549  -1706019.92647                  23399876.6884
        46.7504         33.0004
  22097866.0364    1872524.11349   1444952.75747                  22097863.3484
        44.5004         35.5004
  20989830.8344     134096.85549    103200.45848                  20989825.9584
        51.0004         44.0004
 04  7  1 17 49 10.0000000  0  8G 3G 9G14G15G18G19G21G22
  22169896.5634     136912.10549    106846.27147                  22169894.8814
        47.7504         36.2504
  23262706.4474    -172852.26249   -133160.96447                  23262705.1444
        43.7504         29.2504
  20799073.4664   -1989961.98449  -1541298.94348                  20799070.1894
        51.2504         44.0004
  20084510.0054    -726378.49249   -563248.43748                  20084506.8974
        53.0004         45.7504
  22087859.2994    1359501.13349   1053054.19947                  22087856.0954
        47.2504         37.5004
  23395618.0974   -2236812.75449  -1723472.80647                  23395614.0164
        46.7504         32.5004
  22101910.8164    1893780.80149   1461516.39447                  22101908.1884
        45.0004         35.5004
  20990120.5514     135619.14849    104386.66248                  20990115.4594
        51.5004         43.5004
 04  7  1 17 49 20.0000000  0  8G 3G 9G14G15G18G19G21G22
  22170545.7374     140324.93049    109505.60747                  22170544.2284
        47.0004         35.7504
  23262793.9894    -172392.98849   -132803.09647                  23262792.2424
        43.5004         30.0004
  20795357.0074   -2009489.48449  -1556515.17748                  20795353.8924
        51.5004         44.0004
  20083303.0454    -732721.57849   -568191.10648                  20083300.2534
        52.0004         45.5004
  22090568.3534    1373735.35949   1064145.79847                  22090564.6184
        46.7504         37.0004
  23391362.3894   -2259178.52349  -1740900.67847                  23391358.8044
        46.7504         32.5004
  22105959.4954    1915055.27749   1478093.89747                  22105956.3114
        45.7504         35.5004
  20990409.9164     137138.98849    105570.94448                  20990404.9584
        51.7504         43.5004
 04  7  1 17 49 30.0000000  0  8G 3G 9G14G15G18G19G21G22
  22171202.6844     143776.37949    112195.05047                  22171200.9024
        46.2504         35.5004
  23262890.7834    -171885.63749   -132407.73247                  23262889.3144
        42.7504         29.7504
  20791648.0634   -2028980.57049  -1571703.02148                  20791644.9294
        51.5004         43.7504
  20082101.5724    -739034.07049   -573109.93148                  20082098.5024
        52.0004         45.5004
  22093275.2024    1387961.82049   1075231.35247                  22093271.8874
        46.2504         37.0004
  23387112.2864   -2281510.25449  -1758302.02647                  23387109.2214
        46.0004         32.5004
  22110011.4304    1936349.33249   1494686.66247                  22110008.6274
        45.7504         35.2504
  20990698.9614     138658.23449    106754.77948                  20990694.1544
        51.2504         43.2504
 04  7  1 17 49 40.0000000  0  8G 3G 9G14G15G18G19G21G22
  22171866.7044     147266.01249    114914.22747                  22171865.3384
        47.2504         35.0004
  23262996.3334    -171330.63349   -131975.25247                  23262995.0104
        43.2504         29.0004
  20787946.0994   -2048435.68049  -1586862.85048                  20787943.1274
        51.2504         43.0004
  20080906.1464    -745316.34849   -578005.21948                  20080903.4064
        52.0004         44.5004
  22095980.8754    1402180.01649   1086310.45547                  22095977.2484
        46.0004         36.2504
  23382869.2534   -2303808.27049  -1775677.10147                  23382865.7534
        46.0004         31.5004
  22114067.3394    1957662.53549   1511294.31147                  22114064.8054
        45.0004         34.7504
  20990987.9984     140176.49649    107937.82148                  20990983.0754
        51.5004         42.2504
 04  7  1 17 49 50.0000000  0  8G 3G 9G14G15G18G19G21G22
  22172537.8374     150790.90249    117660.89547                  22172535.9934
        45.7504         36.0004
  23263109.8974    -170730.86749   -131507.90847                  23263109.2854
        41.7504         30.0004
  20784250.0004   -2067857.74649  -1601996.92648                  20784246.9904
        50.7504         43.5004
  20079716.3194    -751571.28549   -582879.20448                  20079713.3944
        52.2504         45.7504
  22098684.3614    1416386.89149   1097380.73947                  22098681.0694
        48.5004         37.0004
  23378632.6074   -2326075.48449  -1793028.17247                  23378628.4764
        47.0004         32.7504
  22118126.2904    1978991.94149   1527914.62047                  22118123.9684
        44.5004         35.5004
  20991275.9424     141690.68049    109117.70248                  20991270.9394
        52.0004         43.5004
 04  7  1 17 50  0.0000000  0  8G 3G 9G14G15G18G19G21G22
  22173215.5144     154353.21549    120436.70547                  22173213.5944
        45.0004         36.2504
  23263233.1724    -170084.00849   -131003.86047                  23263232.0474
        41.7504         30.5004
  20780560.9544   -2087244.40649  -1617103.40548                  20780557.8254
        51.5004         43.7504
  20078531.3014    -757796.50849   -587730.03048                  20078528.6144
        52.0004         45.5004
  22101385.9044    1430584.73449   1108443.97947                  22101382.5584
        46.5004         36.7504
  23374401.2684   -2348309.51249  -1810353.39647                  23374397.0054
        46.0004         32.0004
  22122188.5994    2000339.85249   1544549.33147                  22122185.8474
        46.0004         35.0004
  20991563.7624     143203.13349    110296.23748                  20991558.5024
        52.0004         43.2504
 04  7  1 17 50 10.0000000  0  8G 3G 9G14G15G18G19G21G22
  22173901.1244     157955.44949    123243.64947                  22173899.4104
        46.5004         36.5004
  23263365.7734    -169387.62149   -130461.21847                  23263365.0694
        41.7504         30.7504
  20776879.1864   -2106593.11349  -1632180.31648                  20776875.9254
        51.5004         44.7504
  20077352.9894    -763989.49649   -592555.73948                  20077349.9684
        53.0004         46.2504
  22104086.9134    1444776.07049   1119502.15547                  22104083.1024
        46.5004         37.0004
  23370177.2594   -2370507.79749  -1827650.75847                  23370173.3424
        46.5004         32.5004
  22126254.4844    2021708.77049   1561200.41747                  22126252.1654
        45.7504         35.7504
  20991851.8274     144716.34849    111475.35548                  20991847.0374
        51.5004         44.2504
 04  7  1 17 50 20.0000000  0  8G 3G 9G14G15G18G19G21G22
  22174593.6694     161595.31649    126079.89647                  22174592.0864
        47.0004         36.5004
  23263507.5974    -168643.91049   -129881.70247                  23263506.6284
        43.0004         29.7504
  20773203.8464   -2125906.10549  -1647229.38448                  20773200.7954
        51.0004         44.0004
  20076180.2624    -770152.41849   -597358.01148                  20076177.5824
        52.7504         45.7504
  22106785.4144    1458958.65649   1130553.52847                  22106782.2984
        48.0004         36.7504
  23365958.9694   -2392672.41049  -1844921.87347                  23365955.3064
        45.5004         32.7504
  22130324.8744    2043096.41849   1577866.09847                  22130322.3364
        45.5004         35.0004
  20992139.3554     146228.11349    112653.35848                  20992134.9174
        50.7504         43.7504
 04  7  1 17 50 30.0000000  0  8G 3G 9G14G15G18G19G21G22
  22175293.4964     165271.81649    128944.70047                  22175291.6334
        46.2504         36.5004
  23263657.7014    -167853.81649   -129266.03747                  23263656.1104
        41.5004         30.5004
  20769535.2104   -2145184.32049  -1662251.37548                  20769531.9174
        50.5004         43.5004
  20075013.0514    -776286.18049   -602137.57448                  20075009.7014
        52.7504         45.5004
  22109482.4284    1473131.55149   1141597.32647                  22109478.6784
        45.0004         36.2504
  23361747.8804   -2414804.28949  -1862167.49947                  23361743.8874
        46.0004         32.5004
  22134398.2634    2064501.69549   1594545.52047                  22134395.2824
        45.5004         34.7504
  20992426.7514     147737.39849    113829.41848                  20992421.7514
        50.5004         43.2504
 04  7  1 17 50 40.0000000  0  8G 3G 9G14G15G18G19G21G22
  22175999.5664     168983.64149    131837.01347                  22175997.4844
        45.7504         36.0004
  23263817.0514    -167018.52049   -128615.14747                  23263815.7634
        42.0004         30.7504
  20765872.9994   -2164428.89849  -1677247.13948                  20765869.9764
        50.7504         43.5004
  20073850.9904    -782391.94549   -606895.30848                  20073848.0724
        52.0004         45.5004
  22112177.4574    1487293.52049   1152632.63047                  22112174.0704
        45.7504         36.5004
  23357541.8784   -2436904.57449  -1879388.46847                  23357538.2414
        46.0004         32.0004
  22138474.4084    2085923.66049   1611237.96647                  22138471.7774
        45.0004         34.5004
  20992713.0524     149242.99249    115002.61548                  20992708.0874
        52.0004         43.2504
 04  7  1 17 50 50.0000000  0  8G 3G 9G14G15G18G19G21G22
  22176713.1864     172732.81649    134758.42947                  22176711.4444
        45.5004         35.5004
  23263985.0414    -166136.08649   -127927.56547                  23263983.8654
        42.0004         30.0004
  20762217.9234   -2183637.81249  -1692215.13148                  20762214.4924
        50.7504         43.2504
  20072695.0694    -788467.65249   -611629.64848                  20072692.4204
        52.5004         45.0004
  22114870.8774    1501446.52049   1163660.92247                  22114867.2164
        45.2504         35.7504
  23353342.9334   -2458971.21149  -1896583.25747                  23353339.3704
        46.2504         32.0004
  22142554.7734    2107363.96949   1627944.65647                  22142551.8804
        46.5004         34.2504
  20992999.1984     150746.90649    116174.48148                  20992994.4904
        52.0004         42.5004
 04  7  1 17 51  0.0000000  0  8G 3G 9G14G15G18G19G21G22
  22177433.6814     176518.65249    137708.44947                  22177431.5264
        44.7504         36.5004
  23264161.3094    -165207.04749   -127203.61547                  23264159.8734
        41.5004         31.2504
  20758569.0054   -2202811.61749  -1707155.73848                  20758566.1104
        50.0004         43.7504
  20071544.3784    -794513.87549   -616340.98048                  20071541.6524
        51.2504         45.5004
  22117561.8334    1515590.00849   1174681.82047                  22117559.1824
        47.0004         36.7504
  23349149.9514   -2481004.71549  -1913752.18247                  23349146.7984
        46.2504         32.7504
  22146637.9744    2128822.03549   1644665.23347                  22146635.2034
        45.0004         35.2504
  20993285.0754     152248.52349    117344.57848                  20993280.0914
        51.7504         43.2504
 04  7  1 17 51 10.0000000  0  8G 3G 9G14G15G18G19G21G22
  22178160.7424     180340.45749    140686.46047                  22178158.7384
        46.0004         35.7504
  23264346.8884    -164232.01649   -126443.84947                  23264345.8464
        42.5004         30.5004
  20754927.1514   -2221950.96149  -1722069.51648                  20754923.6134
        50.0004         43.7504
  20070399.3634    -800531.21549   -621029.82348                  20070396.4714
        53.0004         45.7504
  22120251.7534    1529723.38349   1185694.83047                  22120248.5514
        46.2504         36.7504
  23344963.3054   -2503005.69949  -1930895.80347                  23344959.5134
        47.0004         32.5004
  22150723.9704    2150297.15249   1661399.06547                  22150721.7984
        45.2504         34.5004
  20993570.2764     153747.21149    118512.38448                  20993565.5004
        50.5004         43.2504
 04  7  1 17 51 20.0000000  0  8G 3G 9G14G15G18G19G21G22
  22178894.5954     184199.30149    143693.34147                  22178892.9154
        45.5004         36.7504
  23264540.6754    -163209.85249   -125647.37047                  23264540.3414
        42.0004         32.5004
  20751291.7554   -2241054.67249  -1736955.52948                  20751288.3684
        49.7504         44.7504
  20069260.2154    -806518.47749   -625695.23648                  20069257.2484
        52.0004         46.2504
  22122939.4314    1543847.71149   1196700.78047                  22122936.4254
        46.5004         37.2504
  23340782.9054   -2524972.95349  -1948013.13647                  23340779.8104
        46.2504         33.0004
  22154814.2584    2171790.61349   1678147.19547                  22154811.5854
        44.5004         34.7504
  20993855.3564     155244.05949    119678.74148                  20993850.5964
        50.2504         44.0004
 04  7  1 17 51 30.0000000  0  8G 3G 9G14G15G18G19G21G22
  22179636.1274     188094.34449    146728.45647                  22179634.5004
        44.2504         36.2504
  23264744.5694    -162141.34449   -124814.74147                  23264743.8664
        42.0004         31.0004
  20747663.1934   -2260123.48449  -1751814.33348                  20747660.0254
        49.5004         44.0004
  20068126.3044    -812476.34449   -630337.72448                  20068123.1334
        52.0004         45.7504
  22125625.5914    1557962.11349   1207699.01247                  22125622.0204
        47.2504         37.5004
  23336609.7184   -2546907.17249  -1965104.72547                  23336605.5654
        46.2504         33.2504
  22158908.0244    2193301.53549   1694908.94047                  22158904.7144
        45.7504         34.0004
  20994139.2754     156738.16049    120842.98848                  20994134.7024
        50.0004         43.5004
 04  7  1 17 51 40.0000000  0  8G 3G 9G14G15G18G19G21G22
  22180383.8814     192024.77349    149791.11647                  22180382.3854
        45.2504         36.0004
  23264956.9114    -161027.29749   -123946.66747                  23264956.4174
        43.5004         30.5004
  20744040.6814   -2279158.25449  -1766646.61348                  20744037.6234
        49.0004         44.0004
  20066998.1764    -818405.65249   -634957.96048                  20066994.9244
        52.2504         45.5004
  22128309.1144    1572065.78949   1218688.88847                  22128305.7904
        47.0004         36.7504
  23332441.2764   -2568809.13749  -1982171.18047                  23332437.4854
        45.7504         32.5004
  22163004.2914    2214829.00049   1711683.56447                  22163001.5004
        45.0004         34.2504
  20994423.2084     158228.74249    122004.47848                  20994418.2204
        50.0004         43.2504
 04  7  1 17 51 50.0000000  0  8G 3G 9G14G15G18G19G21G22
  22181139.0774     195991.69949    152882.21947                  22181137.0004
        45.5004         36.0004
  23265177.4724    -159866.47749   -123042.11547                  23265176.9664
        41.7504         30.5004
  20740425.3594   -2298157.71549  -1781451.37748                  20740422.1494
        48.7504         43.7504
  20065875.1774    -824305.09049   -639554.92648                  20065872.3544
        52.7504         45.5004
  22130990.8334    1586159.92249   1229671.32247                  22130988.0384
        47.5004         36.5004
  23328280.2714   -2590677.62549  -1999211.54447                  23328276.9204
        46.5004         32.7504
  22167104.0104    2236374.24249   1728472.06047                  22167101.4584
        44.7504         34.0004
  20994706.1094     159716.92649    123164.10548                  20994701.2844
        50.0004         43.0004
 04  7  1 17 52  0.0000000  0  8G 3G 9G14G15G18G19G21G22
  22181900.9434     199994.90249    156001.59147                  22181898.9564
        45.5004         35.5004
  23265407.7424    -158659.02349   -122101.26847                  23265406.6494
        42.2504         30.0004
  20736816.6584   -2317121.99249  -1796228.74548                  20736813.4584
        48.7504         43.2504
  20064758.2574    -830174.75049   -644128.70648                  20064755.4544
        52.2504         45.0004
  22133671.4284    1600244.31349   1240646.14147                  22133668.1094
        48.5004         36.0004
  23324125.1914   -2612512.65249  -2016225.86747                  23324121.3604
        46.2504         33.0004
  22171207.6624    2257937.03949   1745274.19547                  22171204.6294
        44.5004         33.5004
  20994988.9714     161202.56349    124321.72248                  20994983.8894
        50.5004         42.5004
 04  7  1 17 52 10.0000000  0  8G 3G 9G14G15G18G19G21G22
  22182669.4604     204034.35249    159149.21047                  22182668.0584
        46.2504         36.0004
  23265646.0784    -157405.02749   -121124.11647                  23265645.1694
        43.5004         30.5004
  20733214.6614   -2336051.12949  -1810978.70448                  20733210.9754
        49.2504         44.0004
  20063646.7274    -836014.63749   -648679.24948                  20063644.2834
        52.2504         45.5004
  22136349.7814    1614318.98449   1251613.42347                  22136346.5084
        46.0004         36.0004
  23319976.3104   -2634314.19549  -2033214.06147                  23319972.4914
        46.0004         34.0004
  22175314.2384    2279517.40649   1762090.07847                  22175311.9574
        43.5004         34.5004
  20995271.1324     162685.59049    125477.33748                  20995266.0814
        50.2504         43.5004
 04  7  1 17 52 20.0000000  0  8G 3G 9G14G15G18G19G21G22
  22183445.0224     208109.51649    162324.66947                  22183443.4714
        47.2504         36.5004
  23265893.7604    -156104.90649   -120111.01547                  23265892.6494
        44.0004         31.2504
  20729618.7794   -2354945.52749  -1825701.60548                  20729615.6994
        48.2504         44.0004
  20062541.2704    -841825.14849   -653206.92748                  20062538.3914
        51.0004         45.5004
  22139025.9254    1628383.47349   1262572.76447                  22139022.7434
        45.2504         36.0004
  23315833.9754   -2656082.71549  -2050176.53147                  23315830.0834
        46.5004         33.2504
  22179423.9114    2301114.84049   1778919.21447                  22179421.2744
        45.5004         34.0004
  20995552.7964     164165.56349    126630.56948                  20995548.4644
        49.5004         43.5004
 04  7  1 17 52 30.0000000  0  8G 3G 9G14G15G18G19G21G22
  22184227.1914     212219.69949    165527.39547                  22184224.9884
        46.5004         36.7504
  23266149.5344    -154759.30549   -119062.49947                  23266148.8254
        42.5004         31.5004
  20726029.6834   -2373805.85549  -1840397.96748                  20726026.6414
        48.0004         44.2504
  20061441.2244    -847606.91049   -657712.19948                  20061438.2924
        53.5004         46.0004
  22141700.3754    1642437.15649   1273523.68647                  22141697.1464
        47.2504         36.7504
  23311697.7604   -2677818.84449  -2067113.76547                  23311693.5524
        46.0004         33.5004
  22183537.2894    2322728.62949   1795761.10747                  22183534.8254
        45.2504         34.2504
  20995833.7334     165641.84849    127780.91248                  20995829.0424
        49.0004         43.7504
 04  7  1 17 52 40.0000000  0  8G 3G 9G14G15G18G19G21G22
  22185016.2574     216365.92249    168758.21147                  22185014.7214
        46.5004         35.5004
  23266414.9914    -153367.22749   -117977.76747                  23266413.5554
        42.5004         30.5004
  20722447.5144   -2392631.00449  -1855066.91048                  20722444.1294
        48.7504         44.0004
  20060346.5154    -853358.84849   -662194.22648                  20060343.4314
        53.2504         45.5004
  22144372.9934    1656480.97749   1284466.89847                  22144369.7854
        48.0004         36.5004
  23307567.6124   -2699521.38749  -2084024.82947                  23307564.1034
        46.5004         33.2504
  22187652.9824    2344359.66049   1812616.43847                  22187650.3944
        43.5004         34.7504
  20996114.0854     167115.39149    128929.12148                  20996109.3614
        50.5004         44.0004
 04  7  1 17 52 50.0000000  0  8G 3G 9G14G15G18G19G21G22
  22185811.2974     220545.21949    172014.81347                  22185809.5744
        46.5004         36.0004
  23266687.5094    -151931.48449   -116858.98747                  23266686.0144
        43.5004         30.5004
  20718871.4774   -2411423.77749  -1869710.62348                  20718868.1874
        49.2504         43.7504
  20059256.8304    -859083.69149   -666655.13948                  20059254.1844
        52.7504         45.5004
  22147042.7074    1670512.02349   1295400.18847                  22147038.8894
        46.0004         36.2504
  23303443.8414   -2721193.03149  -2100911.82447                  23303440.3844
        47.0004         32.7504
  22191772.4654    2366005.13349   1829483.02647                  22191769.4084
        44.5004         33.7504
  20996393.5334     168583.34849    130072.98448                  20996388.6114
        50.2504         43.0004
 04  7  1 17 53  0.0000000  0  8G 3G 9G14G15G18G19G21G22
  22186614.1104     224763.56349    175301.82247                  22186612.1344
        45.5004         35.7504
  23266970.2804    -150446.07849   -115701.53347                  23266969.2874
        43.0004         30.7504
  20715302.7154   -2430178.17249  -1884324.43548                  20715299.3474
        49.2504         44.0004
  20058173.9624    -864775.48049   -671090.30748                  20058171.4984
        52.5004         45.5004
  22149711.7574    1684536.39149   1306328.25747                  22149707.9814
        45.0004         36.5004
  23299327.0624   -2742827.84449  -2117770.11447                  23299323.2014
        46.2504         33.2504
  22195895.0554    2387671.07049   1846365.56947                  22195892.5644
        44.0004         33.7504
  20996673.0204     170051.64549    131217.10848                  20996668.2074
        50.2504         43.5004
 04  7  1 17 53 10.0000000  0  8G 3G 9G14G15G18G19G21G22
  22187423.7574     229018.47749    178617.32647                  22187421.8484
        46.7504         36.0004
  23267261.5744    -148913.39549   -114507.21247                  23267260.7874
        42.7504         30.2504
  20711740.5054   -2448896.60549  -1898910.22448                  20711737.3564
        49.5004         43.7504
  20057096.8604    -870436.50449   -675501.51248                  20057093.9644
        53.5004         45.2504
  22152378.7674    1698551.61749   1317249.19147                  22152375.4004
        47.0004         35.5004
  23295216.5114   -2764428.13349  -2134601.50847                  23295212.8654
        46.2504         32.7504
  22200021.2874    2409355.08649   1863262.17147                  22200018.8144
        43.7504         33.7504
  20996951.8644     171517.92649    132359.65148                  20996947.4304
        50.7504         43.5004
 04  7  1 17 53 20.0000000  0  8G 3G 9G14G15G18G19G21G22
  22188240.0764     233309.30549    181960.83247                  22188238.8594
        45.7504         36.5004
  23267562.5424    -147334.07449   -113276.57547                  23267561.4984
        43.0004         30.5004
  20708185.4514   -2467579.67249  -1913468.45048                  20708182.2714
        48.5004         44.0004
  20056025.1804    -876067.34449   -679889.16848                  20056022.5714
        52.2504         45.7504
  22155043.7394    1712557.00049   1328162.49247                  22155040.5864
        46.0004         36.7504
  23291112.4264   -2785994.48849  -2151406.42247                  23291108.9144
        46.7504         33.5004
  22204151.4424    2431056.42649   1880172.30147                  22204148.7344
        45.0004         34.2504
  20997230.6794     172981.50049    133500.10948                  20997225.6954
        51.0004         43.5004
 04  7  1 17 53 30.0000000  0  8G 3G 9G14G15G18G19G21G22
  22189062.8454     237632.62949    185329.64547                  22189061.5774
        45.5004         36.5004
  23267871.4554    -145711.39149   -112012.13747                  23267869.7114
        44.2504         29.5004
  20704636.1934   -2486230.59449  -1928001.63148                  20704632.7484
        50.5004         43.7504
  20054958.7954    -881671.24649   -684255.84848                  20054956.0444
        53.0004         45.7504
  22157706.4114    1726549.32049   1339065.57247                  22157702.9444
        46.5004         36.2504
  23287014.6764   -2807530.18749  -2168187.49847                  23287010.6514
        46.0004         32.7504
  22208283.4884    2452771.73849   1897093.29347                  22208280.7414
        45.5004         33.5004
  20997507.6914     174439.07049    134635.86948                  20997502.5534
        51.5004         43.5004
 04  7  1 17 53 40.0000000  0  8G 3G 9G14G15G18G19G21G22
  22189892.4524     241989.39149    188724.51947                  22189890.7834
        45.7504         36.7504
  23268188.6844    -144044.41449   -110713.19947                  23268186.6984
        44.5004         30.7504
  20701093.2574   -2504848.45749  -1942509.04548                  20701090.1484
        50.7504         44.0004
  20053897.3614    -887247.21949   -688600.75848                  20053894.9264
        53.0004         46.2504
  22160366.4784    1740529.52049   1349959.22947                  22160363.7504
        46.2504         36.5004
  23282922.1154   -2829034.24649  -2184943.90247                  23282918.3844
        46.5004         33.5004
  22212418.6014    2474501.98449   1914025.94047                  22212416.3424
        43.5004         34.2504
  20997784.1314     175891.52749    135767.65148                  20997779.3824
        50.7504         43.7504
 04  7  1 17 53 50.0000000  0  8G 3G 9G14G15G18G19G21G22
  22190727.9134     246382.81649    192147.95047                  22190726.4874
        44.7504         36.0004
  23268514.8504    -142329.94149   -109377.23447                  23268513.4704
        43.5004         29.5004
  20697557.7724   -2523430.00049  -1956988.16648                  20697554.0934
        50.5004         43.7504
  20052842.7504    -892792.02349   -692921.39348                  20052839.9714
        52.0004         46.0004
  22163025.2874    1754500.77749   1360845.91647                  22163022.3794
        45.5004         36.2504
  23278836.9244   -2850503.30149  -2201673.02847                  23278833.1204
        46.5004         33.0004
  22216557.8614    2496250.35549   1930972.70047                  22216554.6894
        44.0004         33.7504
  20998059.9534     177342.09449    136897.96148                  20998054.7514
        51.5004         43.5004
 04  7  1 17 54  0.0000000  0  8G 3G 9G14G15G18G19G21G22
  22191571.0344     250811.85549    195599.15047                  22191569.2644
        44.5004         36.0004
  23268849.4544    -140568.86749   -108004.95547                  23268848.1094
        42.5004         30.5004
  20694027.7464   -2541976.21149  -1971439.75848                  20694024.8294
        50.7504         43.7504
  20051793.2084    -898306.46949   -697218.35248                  20051790.8284
        53.0004         45.5004
  22165681.8484    1768462.09049   1371724.86747                  22165679.1894
        45.7504         36.0004
  23274757.8794   -2871938.18049  -2218375.50647                  23274754.2914
        46.0004         33.0004
  22220699.0974    2518015.85249   1947932.83147                  22220696.3774
        44.5004         33.5004
  20998335.8594     178789.78149    138026.04248                  20998331.0874
        50.7504         43.2504
 04  7  1 17 54 10.0000000  0  8G 3G 9G14G15G18G19G21G22
  22192420.1894     255274.63749    199076.64147                  22192418.4994
        44.5004         36.0004
  23269193.2144    -138763.05949   -106597.82547                  23269192.1474
        43.7504         31.0004
  20690504.6584   -2560488.81249  -1985865.14148                  20690501.9514
        49.7504         43.5004
  20050749.2684    -903792.42649   -701493.12348                  20050746.8164
        52.5004         45.5004
  22168336.3864    1782411.64549   1382594.62847                  22168333.7174
        46.2504         36.0004
  23270685.5424   -2893340.79749  -2235052.84947                  23270682.1154
        46.2504         33.0004
  22224843.9244    2539796.69549   1964904.88547                  22224840.7574
        44.0004         33.0004
  20998610.0374     180232.79349    139150.46648                  20998605.1074
        51.2504         43.0004
 04  7  1 17 54 20.0000000  0  8G 3G 9G14G15G18G19G21G22
  22193276.2704     259774.92249    202583.34647                  22193274.7224
        47.0004         36.0004
  23269546.4944    -136908.64849   -105152.83347                  23269545.3294
        42.5004         29.2504
  20686989.6184   -2578964.01249  -2000261.41348                  20686986.8284
        49.5004         43.0004
  20049711.4674    -909245.98049   -705742.65348                  20049708.7684
        52.5004         44.7504
  22170989.6024    1796353.26649   1393458.22447                  22170986.3744
        45.2504         35.0004
  23266618.9674   -2914707.18449  -2251701.99147                  23266615.7194
        46.2504         32.5004
  22228992.2584    2561596.59449   1981891.80447                  22228989.6494
        43.5004         33.0004
  20998884.7054     181674.96149    140274.22448                  20998880.5934
        51.5004         42.2504
 04  7  1 17 54 30.0000000  0  8G 3G 9G14G15G18G19G21G22
  22194139.4764     264309.66049    206116.89147                  22194137.8914
        44.7504         35.7504
  23269907.5594    -135008.62549   -103672.27447                  23269906.7764
        43.0004         30.0004
  20683480.3574   -2597404.75449  -2014630.81348                  20683477.3554
        48.5004         44.0004
  20048679.4714    -914670.06649   -709969.21348                  20048676.9074
        53.2504         45.7504
  22173640.4764    1810283.96149   1404313.31047                  22173637.4714
        48.5004         36.5004
  23262559.7604   -2936040.22749  -2268325.12747                  23262555.9744
        46.5004         33.0004
  22233144.2764    2583412.57449   1998891.26047                  22233140.9134
        44.5004         34.0004
  20999158.6674     183113.33649    141395.02948                  20999154.1234
        50.2504         43.2504
 04  7  1 17 54 40.0000000  0  8G 3G 9G14G15G18G19G21G22
  22195008.6914     268877.38749    209676.16847                  22195007.1784
        46.0004         36.2504
  23270277.5044    -133064.44149   -102157.33047                  23270276.5714
        42.7504         29.2504
  20679977.4294   -2615812.36549  -2028974.35048                  20679974.8064
        49.0004         43.5004
  20047652.3974    -920066.01249   -714173.84348                  20047649.7614
        53.5004         45.5004
  22176289.2424    1824202.31649   1415158.77147                  22176286.2994
        47.2504         36.5004
  23258506.1074   -2957341.28149  -2284923.32947                  23258502.7124
        45.7504         33.0004
  22237298.6174    2605243.13749   2015902.07547                  22237294.8574
        43.7504         33.5004
  20999430.8744     184546.35249    142511.67348                  20999426.2624
        50.0004         43.0004
 04  7  1 17 54 50.0000000  0  8G 3G 9G14G15G18G19G21G22
  22195884.4884     273480.92649    213263.32347                  22195883.0984
        47.2504         36.5004
  23270656.6374    -131073.26649   -100605.76647                  23270655.7894
        42.5004         30.0004
  20676481.5924   -2634183.97349  -2043289.92648                  20676478.8664
        49.0004         44.5004
  20046631.6644    -925431.00449   -718354.37048                  20046628.6024
        53.7504         46.2504
  22178936.0854    1838111.18449   1425996.83947                  22178932.8394
        48.2504         36.7504
  23254459.2074   -2978607.52349  -2301494.43547                  23254455.6794
        46.0004         33.5004
  22241455.9194    2627091.20349   2032926.52147                  22241453.1674
        44.7504         35.0004
  20999703.3244     185976.83649    143626.33048                  20999698.7344
        49.5004         43.7504
 04  7  1 17 55  0.0000000  0  8G 3G 9G14G15G18G19G21G22
  22196767.5674     278118.55949    216877.05147                  22196765.9684
        46.7504         36.0004
  23271044.1844    -129036.63349    -99018.77447                  23271042.8054
        43.5004         29.5004
  20672991.9524   -2652521.25449  -2057578.70748                  20672989.0154
        48.7504         44.0004
  20045616.1464    -930766.51249   -722511.90748                  20045613.2404
        53.2504         45.7504
  22181580.9704    1852008.94949   1436826.25147                  22181577.0384
        48.5004         37.0004
  23250418.6464   -2999840.44149  -2318039.54747                  23250414.9174
        46.0004         33.5004
  22245616.1924    2648955.15249   2049963.32447                  22245613.1194
        43.2504         35.2504
  20999974.8824     187403.21149    144737.78648                  20999970.0354
        49.0004         43.5004
 04  7  1 17 55 10.0000000  0  8G 3G 9G14G15G18G19G21G22
  22197656.1454     282789.77749    220516.96847                  22197654.9954
        45.5004         35.5004
  23271440.3244    -126955.07049    -97396.77047                  23271439.1924
        43.5004         29.7504
  20669509.0744   -2670824.68049  -2071841.11348                  20669506.1094
        48.2504         43.5004
  20044606.4154    -936073.08249   -726646.89348                  20044603.9674
        53.0004         45.5004
  22184223.3424    1865895.06349   1447646.60447                  22184220.2394
        49.0004         36.5004
  23246384.1354   -3021040.46149  -2334559.02247                  23246380.5264
        46.0004         32.7504
  22249779.6824    2670834.35949   2067012.04447                  22249776.9264
        44.2504         33.7504
  21000245.1724     188824.94949    145845.64048                  21000240.9994
        49.0004         43.5004
 04  7  1 17 55 20.0000000  0  8G 3G 9G14G15G18G19G21G22
  22198552.1854     287497.65649    224185.43847                  22198550.2194
        48.5004         35.5004
  23271846.0004    -124825.38349    -95737.25947                  23271844.4314
        43.7504         29.5004
  20666032.8084   -2689090.97349  -2086074.59148                  20666029.9324
        48.5004         43.7504
  20043602.9064    -941347.39849   -730756.77248                  20043600.2284
        53.2504         45.5004
  22186864.2414    1879772.75049   1458460.37347                  22186860.7654
        48.2504         36.2504
  23242357.0394   -3042204.31649  -2351050.33947                  23242353.7284
        46.2504         32.5004
  22253946.7694    2692732.06649   2084075.18147                  22253944.0554
        44.2504         33.5004
  21000515.5154     190245.25449    146952.35848                  21000510.8464
        49.7504         43.2504
 04  7  1 17 55 30.0000000  0  8G 3G 9G14G15G18G19G21G22
  22199453.2954     292235.97749    227877.62247                  22199452.2524
        46.5004         36.0004
  23272258.9204    -122653.76649    -94045.11947                  23272257.7864
        42.5004         30.0004
  20662562.6854   -2707326.29349  -2100283.92748                  20662559.7524
        48.5004         43.7504
  20042604.1374    -946595.66449   -734846.32648                  20042601.4004
        53.0004         45.5004
  22189501.8084    1893635.77349   1469262.72447                  22189498.6904
        48.7504         36.5004
  23238335.8814   -3063338.23449  -2367518.31247                  23238332.0384
        46.0004         32.7504
  22258115.9544    2714641.92649   2101147.77347                  22258113.3544
        43.5004         33.0004
  21000784.7374     191657.92649    148053.13548                  21000779.9604
        49.0004         43.0004
 04  7  1 17 55 40.0000000  0  8G 3G 9G14G15G18G19G21G22
  22200362.1664     297008.89549    231596.77747                  22200360.7684
        46.2504         36.5004
  23272680.7674    -120436.00849    -92316.96647                  23272680.0234
        41.7504         29.2504
  20659099.6474   -2725526.47349  -2114465.86448                  20659096.6444
        48.0004         44.5004
  20041611.0304    -951813.60949   -738912.24948                  20041608.1044
        53.5004         45.5004
  22192137.8724    1907488.20349   1480056.82747                  22192134.9344
        48.7504         36.5004
  23234320.2194   -3084437.94949  -2383959.63247                  23234316.8014
        46.2504         32.5004
  22262288.3804    2736568.19149   2118233.15747                  22262285.6244
        44.0004         33.5004
  21001052.7764     193067.07449    149151.18248                  21001048.6384
        49.2504         43.5004
 04  7  1 17 55 50.0000000  0  8G 3G 9G14G15G18G19G21G22
  22201277.6884     301817.84849    235344.00347                  22201275.5664
        47.0004         36.2504
  23273111.8854    -118170.63749    -90551.75447                  23273110.5924
        40.5004         29.0004
  20655643.1494   -2743689.98449  -2128619.24948                  20655640.3484
        48.0004         44.0004
  20040624.1004    -956999.65649   -742953.33148                  20040621.5794
        53.2504         45.5004
  22194772.4314    1921331.69149   1490843.94547                  22194769.3974
        48.0004         37.0004
  23230311.8954   -3105501.83649  -2400373.03647                  23230308.4694
        45.7504         32.7504
  22266464.3604    2758512.35949   2135332.48347                  22266461.5584
        44.0004         33.5004
  21001320.1334     194474.19549    150247.63048                  21001315.8314
        48.7504         43.5004
 04  7  1 17 56  0.0000000  0  8G 3G 9G14G15G18G19G21G22
  22202199.4874     306664.14849    239120.33847                  22202197.7384
        47.0004         36.5004
  23273551.9704    -115856.37549    -88748.40247                  23273550.8424
        41.2504         29.0004
  20652193.8254   -2761815.47749  -2142742.99348                  20652191.0784
        48.0004         44.5004
  20039643.6834    -962152.50449   -746968.54248                  20039641.1774
        53.5004         46.0004
  22197405.3634    1935167.47749   1501625.06447                  22197402.4814
        49.0004         37.0004
  23226310.6624   -3126528.57049  -2416757.49747                  23226307.2814
        46.0004         33.0004
  22270644.0304    2780475.60549   2152446.68047                  22270641.2394
        44.2504         33.5004
  21001587.9404     195880.53949    151343.47848                  21001582.9984
        49.2504         43.7504
 04  7  1 17 56 10.0000000  0  8G 3G 9G14G15G18G19G21G22
  22203127.8284     311542.23449    242921.45547                  22203126.5254
        47.5004         36.2504
  23274000.4684    -113498.58649    -86911.17247                  23273999.4654
        42.5004         29.5004
  20648750.8154   -2779908.40249  -2156841.36648                  20648748.2304
        49.0004         44.2504
  20038668.3954    -967277.49249   -750962.03848                  20038665.8314
        53.0004         46.0004
  22200035.8944    1948990.13349   1512395.96147                  22200033.0424
        49.5004         37.0004
  23222315.7074   -3147523.44149  -2433117.11447                  23222311.8714
        46.2504         32.5004
  22274825.5884    2802452.45749   2169571.48847                  22274823.0764
        44.0004         33.0004
  21001854.3614     197280.74249    152434.55748                  21001849.7834
        50.2504         43.7504
 04  7  1 17 56 20.0000000  0  8G 3G 9G14G15G18G19G21G22
  22204062.4384     316452.46949    246747.59147                  22204060.4074
        46.0004         36.0004
  23274457.8024    -111096.85249    -85039.68847                  23274456.1914
        42.2504         28.0004
  20645314.4244   -2797968.18049  -2170913.92748                  20645311.0104
        48.5004         43.7504
  20037698.6064    -972374.15249   -754933.47148                  20037695.8324
        52.5004         45.5004
  22202663.6214    1962800.07849   1523156.93847                  22202660.9214
        49.0004         37.0004
  23218326.7994   -3168486.00049  -2449451.57947                  23218322.5314
        45.7504         32.5004
  22279010.3554    2824443.41849   2186707.27247                  22279007.9144
        42.7504         33.5004
  21002119.7574     198675.17649    153521.11648                  21002115.2434
        49.2504         43.2504
 04  7  1 17 56 30.0000000  0  8G 3G 9G14G15G18G19G21G22
  22205002.3514     321395.50449    250599.30147                  22205001.3714
        47.5004         36.0004
  23274923.1734    -108650.54749    -83133.48247                  23274921.9094
        41.2504         28.0004
  20641883.6034   -2815994.22749  -2184960.19448                  20641880.8334
        49.5004         43.7504
  20036734.3164    -977441.71149   -758882.20948                  20036731.5594
        53.7504         45.5004
  22205289.4404    1976598.04349   1533908.59547                  22205286.3984
        49.2504         36.2504
  23214343.7324   -3189415.52749  -2465760.28947                  23214339.8544
        46.2504         32.7504
  22283198.3594    2846449.12149   2203854.55447                  22283195.4084
        44.7504         33.0004
  21002384.1954     200064.46149    154603.68048                  21002379.5144
        50.0004         42.7504
 04  7  1 17 56 40.0000000  0  8G 3G 9G14G15G18G19G21G22
  22205950.2574     326373.78949    254478.49147                  22205948.3234
        47.0004         36.0004
  23275398.2334    -106157.10249    -81190.49247                  23275396.7534
        42.5004         27.7504
  20638460.4644   -2833984.02749  -2198978.19948                  20638457.6864
        50.0004         44.5004
  20035775.8964    -982477.62149   -762806.29248                  20035773.2944
        53.5004         46.0004
  22207912.8254    1990386.52049   1544652.85147                  22207910.0224
        49.0004         36.2504
  23210368.2934   -3210309.45749  -2482041.26547                  23210364.5474
        46.7504         33.0004
  22287388.5224    2868472.06649   2221015.27347                  22287386.1934
        44.0004         34.0004
  21002647.8234     201451.19549    155684.25448                  21002643.5504
        50.0004         43.5004
 04  7  1 17 56 50.0000000  0  8G 3G 9G14G15G18G19G21G22
  22206903.8734     331387.00049    258384.88647                  22206902.1704
        45.7504         36.5004
  23275881.1864    -103616.85249    -79211.09947                  23275879.6274
        41.5004         28.0004
  20635044.2064   -2851937.85949  -2212968.20348                  20635041.0274
        49.7504         44.0004
  20034823.7714    -987482.17249   -766705.95048                  20034820.8794
        52.7504         45.5004
  22210534.8514    2004165.18849   1555389.47247                  22210532.5804
        48.5004         36.0004
  23206398.5744   -3231168.01649  -2498294.68147                  23206394.7054
        46.2504         32.5004
  22291582.7634    2890511.88749   2238189.14147                  22291580.4604
        43.7504         32.7504
  21002911.2694     202834.98049    156762.52548                  21002907.0354
        49.5004         43.5004
 04  7  1 17 57  0.0000000  0  8G 3G 9G14G15G18G19G21G22
  22207864.3464     336433.64149    262317.32147                  22207862.8314
        46.5004         36.7504
  23276373.5114    -101031.28949    -77196.35447                  23276371.5724
        41.5004         28.0004
  20631634.0644   -2869857.16449  -2226931.28848                  20631631.2774
        50.2504         44.7504
  20033877.0074    -992456.75849   -770582.25748                  20033874.1724
        53.5004         45.7504
  22213154.5424    2017932.55549   1566117.29247                  22213152.1584
        47.5004         36.5004
  23202435.3694   -3251992.61749  -2514521.63047                  23202432.2114
        46.0004         32.7504
  22295780.7104    2912566.97749   2255374.90447                  22295778.1264
        45.0004         33.5004
  21003173.8864     204214.39549    157837.38848                  21003169.4304
        50.5004         43.2504
 04  7  1 17 57 10.0000000  0  8G 3G 9G14G15G18G19G21G22
  22208831.5914     341514.03149    266276.06247                  22208829.6804
        44.0004         36.7504
  23276873.5964     -98399.89849    -75145.91447                  23276872.4434
        42.2504         28.5004
  20628231.2174   -2887741.45749  -2240867.09648                  20628228.0054
        50.5004         44.5004
  20032936.2254    -997400.89549   -774434.82048                  20032933.4914
        51.5004         45.7504
  22215772.8594    2031688.98049   1576836.56447                  22215769.6364
        49.0004         36.2504
  23198479.8564   -3272782.77349  -2530721.74047                  23198475.7424
        46.0004         33.0004
  22299979.9434    2934637.89149   2272572.99947                  22299977.6824
        44.5004         33.0004
  21003435.8534     205589.80949    158909.14348                  21003431.3264
        51.5004         43.5004
 04  7  1 17 57 20.0000000  0  8G 3G 9G14G15G18G19G21G22
  22209804.0794     346626.28149    270259.63047                  22209802.3154
        47.0004         36.0004
  23277382.8424     -95724.54749    -73061.22847                  23277381.4494
        41.2504         27.5004
  20624834.1894   -2905592.58249  -2254777.06348                  20624831.3484
        50.5004         44.5004
  20032000.5534   -1002316.35949   -778265.07048                  20031997.9184
        53.7504         46.0004
  22218387.9664    2045432.60949   1587545.87947                  22218384.6444
        48.0004         36.0004
  23194529.1374   -3293540.25849  -2546896.40647                  23194525.9904
        46.0004         33.0004
  22304182.6854    2956722.67249   2289781.89747                  22304180.2764
        45.5004         34.0004
  21003696.2904     206959.38749    159976.34048                  21003691.5904
        51.5004         43.2504
 04  7  1 17 57 30.0000000  0  8G 3G 9G14G15G18G19G21G22
  22210782.6994     351768.99649    274266.93247                  22210780.9424
        47.2504         36.2504
  23277900.2044     -93006.59849    -70943.30547                  23277898.5354
        41.7504         26.7504
  20621443.0734   -2923411.84849  -2268662.18748                  20621440.0664
        50.7504         44.2504
  20031070.5734   -1007204.48849   -782074.00648                  20031067.9534
        53.0004         45.5004
  22221000.4584    2059162.14549   1598244.21147                  22220997.1724
        48.5004         36.5004
  23190585.0934   -3314266.37549  -2563046.62047                  23190581.1244
        46.0004         32.7504
  22308387.7944    2978819.97749   2307000.54147                  22308385.0274
        45.7504         33.5004
  21003955.4234     208321.75049    161037.92148                  21003950.8234
        52.0004         43.0004
 04  7  1 17 57 40.0000000  0  8G 3G 9G14G15G18G19G21G22
  22211766.9964     356942.47749    278298.20447                  22211765.3644
        46.0004         35.7504
  23278425.4234     -90245.75849    -68792.02747                  23278423.5264
        42.5004         26.2504
  20618058.3464   -2941198.93449  -2282522.25848                  20618055.4794
        51.0004         44.2504
  20030145.6114   -1012064.87949   -785861.32448                  20030143.3044
        53.5004         45.2504
  22223610.8534    2072877.93049   1608931.83147                  22223607.5144
        48.5004         36.0004
  23186647.2064   -3334960.69949  -2579172.06547                  23186643.6224
        46.5004         32.5004
  22312595.5694    3000930.16449   2324229.25547                  22312591.9064
        46.0004         32.7504
  21004213.3094     209677.19549    162094.11048                  21004209.0504
        52.0004         43.0004
 04  7  1 17 57 50.0000000  0  8G 3G 9G14G15G18G19G21G22
  22212758.4234     362150.66849    282356.53347                  22212756.4594
        46.0004         36.0004
  23278960.5964     -87437.90649    -66604.08947                  23278958.0894
        41.5004         27.7504
  20614680.3064   -2958949.69149  -2296354.01148                  20614677.0774
        50.5004         44.5004
  20029226.7674   -1016893.38749   -789623.80248                  20029224.1594
        52.7504         46.0004
  22226218.7064    2086584.10549   1619611.94547                  22226215.4584
        48.5004         36.0004
  23182716.3744   -3355619.14849  -2595269.55647                  23182712.3844
        46.2504         33.0004
  22316805.7494    3023057.28949   2341471.14947                  22316803.0704
        44.7504         32.7504
  21004470.7644     211029.79349    163148.07848                  21004466.3484
        52.5004         44.0004
 04  7  1 17 58  0.0000000  0  8G 3G 9G14G15G18G19G21G22
  22213756.4744     367394.68849    286442.77947                  22213754.5404
        44.0004         35.5004
  23279504.0404     -84581.97749    -64378.65447                  23279501.8974
        42.0004         28.0004
  20611309.8084   -2976663.00049  -2310156.58248                  20611307.2474
        51.2504         44.7504
  20028314.4014   -1021688.85949   -793360.53748                  20028311.6294
        52.7504         46.0004
  22228825.6584    2100281.69549   1630285.39747                  22228822.4364
        48.5004         36.0004
  23178791.7274   -3376240.52349  -2611338.15347                  23178788.0114
        45.5004         32.2504
  22321019.9964    3045202.30549   2358726.99047                  22321016.8724
        46.0004         32.7504
  21004728.1034     212380.66449    164200.70248                  21004723.5904
        52.5004         43.5004
 04  7  1 17 58 10.0000000  0  8G 3G 9G14G15G18G19G21G22
  22214760.4814     372672.33249    290555.23047                  22214758.8674
        46.0004         36.5004
  23280056.0354     -81680.06649    -62117.45447                  23280053.9934
        43.0004         28.5004
  20607945.5674   -2994340.93749  -2323931.58548                  20607942.9174
        51.0004         45.0004
  20027407.6784   -1026453.38349   -797073.15048                  20027405.4004
        52.7504         45.7504
  22231430.3134    2113968.49249   1640950.42447                  22231427.0424
        48.7504         36.5004
  23174874.6814   -3396826.87949  -2627379.46547                  23174870.6524
        45.7504         32.0004
  22325237.0654    3067362.98049   2375995.03747                  22325233.9494
        44.5004         33.0004
  21004984.0304     213727.60549    165250.26648                  21004979.4524
        52.0004         43.5004
 04  7  1 17 58 20.0000000  0  8G 3G 9G14G15G18G19G21G22
  22215770.7884     377984.24249    294694.36947                  22215769.6054
        45.7504         37.0004
  23280617.2354     -78731.52049    -59819.85947                  23280615.2314
        43.7504         29.2504
  20604588.6304   -3011982.85549  -2337678.54248                  20604585.3734
        51.5004         45.0004
  20026506.8684   -1031186.29349   -800761.14048                  20026503.8184
        53.5004         46.0004
  22234032.6664    2127645.16849   1651607.56147                  22234029.6484
        48.2504         37.2504
  23170963.8084   -3417377.53149  -2643392.95547                  23170959.7774
        46.5004         32.7504
  22329457.1044    3089540.02349   2393275.82047                  22329454.7274
        46.0004         32.5004
  21005240.0134     215071.24249    166297.24848                  21005234.8924
        52.0004         43.5004
 04  7  1 17 58 30.0000000  0  8G 3G 9G14G15G18G19G21G22
  22216787.6004     383325.70349    298856.53547                  22216786.1564
        45.2504         36.5004
  23281186.0694     -75741.00449    -57489.57047                  23281184.1334
        42.5004         29.7504
  20601237.6414   -3029593.40649  -2351401.04348                  20601234.4454
        51.7504         45.2504
  20025611.6104   -1035892.15249   -804428.04948                  20025608.9414
        53.5004         45.5004
  22236632.6484    2141307.13349   1662253.24147                  22236629.7074
        48.0004         36.5004
  23167058.7204   -3437896.99649  -2659382.13347                  23167055.0794
        45.2504         32.5004
  22333679.8114    3111728.91449   2410565.85547                  22333676.7894
        45.5004         32.0004
  21005494.2914     216407.05549    167338.14348                  21005489.3564
        52.0004         43.5004
 04  7  1 17 58 40.0000000  0  8G 3G 9G14G15G18G19G21G22
  22217810.4364     388700.21149    303044.46547                  22217809.0054
        46.5004         36.0004
  23281764.2714     -72704.96149    -55123.82647                  23281762.8244
        43.0004         29.7504
  20597893.3154   -3047169.09049  -2365096.37648                  20597890.0904
        50.7504         45.0004
  20024721.9334   -1040567.37949   -808071.09348                  20024719.1414
        53.0004         45.7504
  22239230.2944    2154957.94949   1672890.23747                  22239227.0714
        48.7504         36.5004
  23163160.5604   -3458381.71149  -2675344.24747                  23163156.9904
        47.0004         32.0004
  22337904.6654    3133933.05149   2427867.74947                  22337902.2584
        45.7504         33.2504
  21005747.5934     217738.51649    168375.63348                  21005742.8274
        52.2504         43.0004
 04  7  1 17 58 50.0000000  0  8G 3G 9G14G15G18G19G21G22
  22218838.8524     394105.25449    307256.17947                  22218837.7964
        45.7504         36.0004
  23282349.7654     -69625.83649    -52724.51347                  23282348.4214
        44.0004         30.2504
  20594554.6814   -3064712.22349  -2378766.34248                  20594551.6804
        51.2504         44.7504
  20023837.5394   -1045214.30549   -811692.06848                  20023834.9074
        52.5004         45.5004
  22241825.7044    2168595.16049   1683516.62247                  22241822.3954
        47.7504         36.5004
  23159269.4744   -3478834.05949  -2691281.13747                  23159265.0054
        46.0004         32.5004
  22342132.8704    3156149.98449   2445179.62947                  22342129.4094
        45.7504         33.0004
  21005999.4944     219063.18049    169407.84148                  21005994.9674
        52.0004         43.0004
 04  7  1 17 59  0.0000000  0  8G 3G 9G14G15G18G19G21G22
  22219873.8254     399540.68849    311491.56747                  22219872.0014
        48.0004         36.2504
  23282943.7364     -66503.78549    -50291.74247                  23282942.7864
        44.2504         30.7504
  20591222.4204   -3082222.86349  -2392410.98948                  20591219.2714
        51.5004         45.0004
  20022958.8934   -1049833.00449   -815291.06748                  20022956.2104
        53.7504         45.5004
  22244417.5814    2182218.57449   1694132.26147                  22244414.7724
        48.5004         37.0004
  23155383.2784   -3499254.10949  -2707192.86047                  23155379.1784
        46.0004         32.5004
  22346362.6974    3178379.55549   2462501.36347                  22346359.5294
        45.5004         32.7504
  21006250.2224     220380.90249    170434.63648                  21006245.6684
        52.0004         43.5004
 04  7  1 17 59 10.0000000  0  8G 3G 9G14G15G18G19G21G22
  22220913.6974     405007.57849    315751.48547                  22220912.0244
        46.0004         36.2504
  23283546.9474     -63337.63749    -47824.61247                  23283545.2934
        44.0004         30.7504
  20587896.6004   -3099699.87549  -2406029.44048                  20587893.5254
        51.0004         45.2504
  20022085.2514   -1054422.28949   -818867.13348                  20022082.8984
        53.2504         45.7504
  22247007.9874    2195829.44949   1704738.13047                  22247004.9064
        48.7504         36.5004
  23151504.0384   -3519640.61349  -2723078.44747                  23151499.8854
        46.0004         32.0004
  22350595.6434    3200622.91849   2479833.82547                  22350592.8684
        45.7504         32.7504
  21006500.0574     221692.80149    171456.89448                  21006495.3084
        52.5004         43.2504
 04  7  1 17 59 20.0000000  0  8G 3G 9G14G15G18G19G21G22
  22221959.6494     410506.14849    320036.08447                  22221958.3664
        46.0004         36.7504
  23284157.1844     -60127.03949    -45322.84747                  23284156.0674
        43.5004         30.7504
  20584577.5044   -3117142.94549  -2419621.43448                  20584574.4544
        50.7504         45.0004
  20021217.5664   -1058981.79749   -822419.99948                  20021215.1084
        53.5004         46.0004
  22249595.4234    2209428.03149   1715334.42247                  22249592.5274
        47.7504         36.7504
  23147630.8474   -3539993.22349  -2738937.60347                  23147626.9824
        45.7504         32.2504
  22354831.0914    3222880.27349   2497177.19847                  22354828.7914
        45.0004         33.0004
  21006748.5874     222999.18049    172474.85348                  21006744.0684
        52.5004         43.2504
 04  7  1 17 59 30.0000000  0  8G 3G 9G14G15G18G19G21G22
  22223012.5254     416037.24249    324346.01847                  22223011.2904
        45.5004         37.0004
  23284777.0534     -56871.13349    -42785.76947                  23284775.9364
        43.2504         30.7504
  20581264.7974   -3134551.18749  -2433186.29848                  20581261.6904
        51.7504         45.0004
  20020356.1414   -1063510.59849   -825948.94248                  20020353.4884
        53.2504         45.7504
  22252181.2854    2223015.22749   1725921.82647                  22252177.8904
        48.2504         36.7504
  23143764.5814   -3560310.94549  -2754769.60047                  23143760.8764
        45.7504         32.5004
  22359069.6594    3245152.51249   2514532.16147                  22359066.7804
        45.0004         33.0004
  21006996.2474     224300.94549    173489.20248                  21006991.3554
        52.5004         43.7504
 04  7  1 17 59 40.0000000  0  8G 3G 9G14G15G18G19G21G22
  22224070.7704     421599.19149    328680.00147                  22224069.4394
        47.5004         36.5004
  23285404.9934     -53571.56649    -40214.67747                  23285403.5794
        44.5004         30.5004
  20577958.3894   -3151926.16449  -2446725.23648                  20577955.3694
        51.0004         44.7504
  20019499.4974   -1068010.27049   -829455.17448                  20019496.7764
        54.0004         45.5004
  22254764.0214    2236589.44549   1736499.13347                  22254760.9624
        48.2504         36.5004
  23139904.3174   -3580595.41049  -2770575.67147                  23139900.6344
        45.5004         33.2504
  22363310.1194    3267437.94149   2531897.41147                  22363307.2754
        46.5004         32.7504
  21007243.0344     225596.44149    174498.68448                  21007238.2194
        52.0004         43.2504
 04  7  1 17 59 50.0000000  0  8G 3G 9G14G15G18G19G21G22
  22225135.6544     427193.07049    333038.85747                  22225134.2104
        48.5004         36.2504
  23286041.1604     -50227.18449    -37608.66147                  23286040.1234
        45.2504         30.7504
  20574658.4874   -3169266.67649  -2460237.30848                  20574655.8224
        50.7504         44.7504
  20018649.4224   -1072479.59849   -832937.77948                  20018646.8794
        53.5004         45.5004
  22257344.7704    2250151.81649   1747067.21147                  22257341.5914
        48.7504         36.5004
  23136051.0254   -3600845.39549  -2786354.87447                  23136047.2574
        46.0004         32.7504
  22367553.8254    3289737.74649   2549273.85947                  22367550.8064
        46.0004         32.2504
  21007488.2134     226886.82849    175504.18048                  21007484.0504
        51.7504         43.0004
 04  7  1 18  0  0.0000000  0  8G 3G 9G14G15G18G19G21G22
  22226206.0194     432818.65649    337422.44647                  22226204.4164
        47.2504         36.0004
  23286686.5804     -46838.14149    -34967.82247                  23286685.2804
        44.0004         30.7504
  20571365.4314   -3186572.90249  -2473722.66148                  20571362.3074
        51.0004         44.5004
  20017804.2794   -1076918.73449   -836396.84448                  20017802.1254
        53.5004         45.5004
  22259923.3584    2263702.16049   1757625.92547                  22259920.6344
        48.0004         36.5004
  23132204.4664   -3621060.97349  -2802107.25547                  23132200.6964
        45.7504         32.5004
  22371799.6454    3312051.77049   2566661.39447                  22371797.1054
        45.5004         32.2504
  21007733.1454     228171.90249    176505.54348                  21007728.1494
        51.7504         42.7504
 04  7  1 18  0 10.0000000  0  8G 3G 9G14G15G18G19G21G22
  22227283.2154     438479.06349    341833.13147                  22227281.5204
        45.5004         36.5004
  23287339.9834     -43401.34849    -32289.81247                  23287338.8624
        43.7504         31.0004
  20568079.3314   -3203841.75449  -2487178.91548                  20568076.1934
        50.0004         45.0004
  20016966.2604   -1081324.52749   -839829.94048                  20016963.6054
        52.5004         46.0004
  22262500.0054    2277243.57449   1768177.65847                  22262497.3674
        47.5004         36.2504
  23128364.5534   -3641238.97349  -2817830.36347                  23128360.5184
        45.2504         33.5004
  22376049.4184    3334383.03149   2584062.36347                  22376046.3954
        46.2504         33.5004
  21007977.1744     229454.84449    177505.23248                  21007972.4234
        51.5004         43.2504
 04  7  1 18  0 20.0000000  0  8G 3G 9G14G15G18G19G21G22
  22228366.7594     444174.36349    346271.01947                  22228365.6894
        44.7504         36.2504
  23288003.1334     -39916.73849    -29574.53647                  23288001.2954
        45.5004         31.2504
  20564800.2844   -3221073.06649  -2500605.90848                  20564797.0034
        50.2504         45.0004
  20016134.1284   -1085696.77749   -843236.90448                  20016131.3214
        53.0004         45.5004
  22265075.4924    2290776.18849   1778722.53547                  22265072.8724
        48.0004         36.2504
  23124531.9394   -3661379.20749  -2833524.07347                  23124528.2144
        46.0004         32.7504
  22380302.4924    3356731.68849   2601476.85847                  22380299.0714
        45.0004         33.0004
  21008220.8254     230735.65649    178503.25348                  21008216.2344
        52.0004         43.0004
 04  7  1 18  0 30.0000000  0  8G 3G 9G14G15G18G19G21G22
  22229456.3304     449899.14849    350731.88747                  22229454.5104
        46.5004         36.5004
  23288675.0064     -36389.55549    -26826.08147                  23288672.9424
        44.5004         30.2504
  20561527.3574   -3238272.12949  -2514007.77048                  20561524.3324
        51.0004         45.0004
  20015307.2734   -1090040.73849   -846621.80148                  20015304.6154
        53.5004         46.0004
  22267648.2404    2304294.62949   1789256.37647                  22267645.0644
        47.5004         36.0004
  23120706.0154   -3681486.96549  -2849192.45647                  23120701.9644
        45.5004         33.2504
  22384557.6944    3379092.35949   2618900.75347                  22384554.7224
        45.5004         33.2504
  21008463.2484     232009.07049    179495.52648                  21008458.6124
        52.0004         44.0004
 04  7  1 18  0 40.0000000  0  8G 3G 9G14G15G18G19G21G22
  22230551.1724     455652.99649    355215.39947                  22230549.5394
        47.2504         36.5004
  23289353.4914     -32820.12949    -24044.71047                  23289352.2724
        44.5004         31.0004
  20558260.7274   -3255439.21549  -2527384.72148                  20558257.2414
        50.5004         45.2504
  20014486.1354   -1094356.69949   -849984.89648                  20014483.1764
        53.2504         45.7504
  22270217.9474    2317798.60949   1799778.94647                  22270214.3304
        47.2504         36.5004
  23116885.6224   -3701562.51649  -2864835.73347                  23116880.9894
        45.7504         33.5004
  22388814.9704    3401464.73449   2636333.73847                  22388811.9984
        46.0004         33.2504
  21008703.9764     233274.74249    180481.75448                  21008698.9714
        52.0004         43.5004
 04  7  1 18  0 50.0000000  0  8G 3G 9G14G15G18G19G21G22
  22231651.6524     461436.11349    359721.72147                  22231650.0124
        45.5004         36.2504
  23290041.0094     -29208.26649    -21230.27747                  23290039.5524
        45.0004         31.0004
  20554999.8794   -3272574.12149  -2540736.58848                  20554996.6364
        50.5004         44.7504
  20013670.3764   -1098644.31649   -853325.91048                  20013667.3224
        52.2504         45.7504
  22272785.0534    2331288.39149   1810290.45447                  22272782.1354
        47.0004         36.2504
  23113071.2224   -3721605.60949  -2880453.71247                  23113067.1734
        45.5004         33.0004
  22393074.5354    3423849.00849   2653776.01047                  22393071.7244
        44.5004         33.0004
  21008943.3524     234532.93449    181462.15948                  21008939.0594
        51.7504         43.5004
 04  7  1 18  1  0.0000000  0  8G 3G 9G14G15G18G19G21G22
  22232758.3564     467252.84449    364254.23347                  22232756.6664
        46.5004         36.2504
  23290736.8444     -25549.60249    -18379.37147                  23290736.0194
        45.0004         31.0004
  20551746.1954   -3289672.50449  -2554060.00348                  20551742.8444
        50.0004         45.0004
  20012860.7604   -1102899.22749   -856641.42648                  20012857.8614
        53.0004         45.7504
  22275349.9304    2344768.31349   1820794.27347                  22275346.4234
        46.7504         36.5004
  23109264.2764   -3741611.77749  -2896042.92847                  23109260.5764
        45.7504         33.5004
  22397337.2564    3446249.43849   2671230.86947                  22397334.0514
        45.0004         32.2504
  21009182.0104     235787.92249    182440.08148                  21009177.2944
        51.5004         43.5004
 04  7  1 18  1 10.0000000  0  8G 3G 9G14G15G18G19G21G22
  22233871.2654     473099.86749    368810.35347                  22233869.7204
        46.7504         36.0004
  23291441.9914     -21847.34049    -15494.48847                  23291440.4474
        45.0004         31.0004
  20548499.0294   -3306737.45749  -2567357.35448                  20548495.8784
        50.5004         44.5004
  20012056.8064   -1107124.59049   -859933.92148                  20012054.1694
        53.5004         45.5004
  22277912.4064    2358235.15249   1831287.91147                  22277909.4104
        46.7504         35.5004
  23105463.8064   -3761584.12149  -2911605.77947                  23105459.7554
        46.0004         32.5004
  22401602.4734    3468662.76249   2688695.77947                  22401599.6564
        44.5004         32.2504
  21009419.8834     237036.48049    183412.97948                  21009415.3154
        52.2504         43.0004
 04  7  1 18  1 20.0000000  0  8G 3G 9G14G15G18G19G21G22
  22234989.9214     478977.59049    373390.38347                  22234988.2884
        46.5004         35.7504
  23292154.6514     -18101.08649    -12575.31847                  23292153.1834
        44.0004         31.2504
  20545257.9554   -3323768.60549  -2580628.37848                  20545254.8304
        50.2504         45.0004
  20011258.1814   -1111320.02349   -863203.09248                  20011255.8794
        52.7504         45.7504
  22280473.0834    2371689.25449   1841771.61647                  22280469.4434
        47.2504         36.0004
  23101669.4634   -3781522.24249  -2927141.97747                  23101665.8294
        45.5004         33.0004
  22405869.9684    3491089.31649   2706171.00347                  22405867.0944
        45.0004         33.0004
  21009656.1354     238279.06649    184381.22548                  21009651.6404
        51.2504         43.2504
 04  7  1 18  1 30.0000000  0  8G 3G 9G14G15G18G19G21G22
  22236113.8884     484886.51649    377994.75947                  22236112.6244
        46.0004         36.0004
  23292876.0594     -14310.22349     -9621.39247                  23292875.0104
        44.0004         31.0004
  20542023.5984   -3340765.32049  -2593872.56248                  20542020.3684
        50.2504         45.0004
  20010465.8084   -1115484.78949   -866448.36248                  20010462.6934
        52.7504         45.5004
  22283030.6954    2385131.31349   1852245.95847                  22283027.6334
        46.0004         35.5004
  23097882.0004   -3801425.45749  -2942650.96847                  23097878.3084
        46.0004         32.5004
  22410140.3104    3513529.72349   2723657.01147                  22410137.1724
        45.7504         33.0004
  21009891.6134     239516.26249    185345.28548                  21009886.6184
        52.0004         43.2504
 04  7  1 18  1 40.0000000  0  8G 3G 9G14G15G18G19G21G22
  22237244.0964     490824.05949    382621.37747                  22237242.4524
        44.0004         36.2504
  23293605.3464     -10477.31249     -6634.70847                  23293604.3934
        44.2504         30.0004
  20538795.5444   -3357730.09449  -2607091.86148                  20538792.1404
        50.2504         45.0004
  20009678.4694   -1119621.41449   -869671.70648                  20009675.8084
        52.5004         46.0004
  22285585.6794    2398558.79749   1862708.92647                  22285582.6944
        46.5004         36.7504
  23094100.5204   -3821296.23049  -2958134.68147                  23094096.7504
        46.5004         32.5004
  22414412.6644    3535981.39149   2741151.79547                  22414409.5284
        45.7504         33.5004
  21010125.7664     240745.49249    186303.12248                  21010120.6654
        52.0004         43.2504
 04  7  1 18  1 50.0000000  0  8G 3G 9G14G15G18G19G21G22
  22238380.3724     496793.50049    387272.87947                  22238378.1554
        45.7504         36.5004
  23294343.7154      -6598.96149     -3612.64047                  23294342.3564
        43.2504         30.5004
  20535573.5634   -3374659.55549  -2620283.66148                  20535570.2304
        49.7504         45.0004
  20008897.5014   -1123726.47349   -872870.47248                  20008894.8114
        51.5004         45.7504
  22288139.2564    2411975.02749   1873163.10747                  22288135.9614
        47.0004         36.5004
  23090326.4024   -3841131.19149  -2973590.48347                  23090322.5394
        45.5004         33.0004
  22418687.4734    3558447.80949   2758658.07447                  22418685.0184
        45.2504         33.5004
  21010358.7664     241970.11349    187257.35448                  21010354.0684
        51.5004         43.5004
 04  7  1 18  2  0.0000000  0  8G 3G 9G14G15G18G19G21G22
  22239521.7734     502795.14549    391949.49047                  22239520.0914
        46.7504         36.2504
  23295089.9474      -2674.93449      -554.93647                  23295088.8484
        43.5004         30.5004
  20532358.9474   -3391553.40649  -2633447.68648                  20532355.8294
        50.0004         44.7504
  20008122.5024   -1127799.62149   -876044.35748                  20008119.7764
        53.5004         45.5004
  22290690.4374    2425380.33249   1883608.79147                  22290686.9594
        46.5004         35.7504
  23086558.8694   -3860929.98049  -2989018.11947                  23086555.4034
        47.2504         33.0004
  22422966.1034    3580929.14149   2776175.98747                  22422963.1004
        45.2504         33.2504
  21010590.8534     243190.38749    188208.22748                  21010586.2674
        52.2504         43.5004
 04  7  1 18  2 10.0000000  0  8G 3G 9G14G15G18G19G21G22
  22240669.8784     508825.84449    396648.73447                  22240667.9084
        46.0004         35.7504
  23295844.6894       1291.84849      2536.05047                  23295843.9874
        43.7504         30.0004
  20529150.3364   -3408414.56249  -2646586.24448                  20529147.1904
        50.5004         44.7504
  20007352.8784   -1131843.74649   -879195.62048                  20007350.4554
        52.7504         45.7504
  22293238.3754    2438771.71949   1894043.63247                  22293235.4174
        47.7504         35.7504
  23082797.4994   -3880695.50049  -3004419.80347                  23082793.5924
        45.5004         33.5004
  22427246.7404    3603422.46149   2793703.20847                  22427243.7044
        46.0004         32.7504
  21010821.7494     244403.42249    189153.45148                  21010816.7864
        51.5004         43.0004
 04  7  1 18  2 20.0000000  0  8G 3G 9G14G15G18G19G21G22
  22241823.9034     514890.32449    401374.29447                  22241822.0454
        44.2504         36.0004
  23296608.4344       5306.02349      5663.97247                  23296607.8964
        44.0004         29.2504
  20525948.8734   -3425238.40649  -2659695.72548                  20525945.5224
        50.5004         44.7504
  20006589.5324   -1135854.13749   -882320.61248                  20006586.6744
        52.7504         45.2504
  22295784.5194    2452153.85549   1904471.25847                  22295781.2644
        47.5004         35.5004
  23079042.9184   -3900422.94949  -3019791.84447                  23079039.9044
        45.7504         33.0004
  22431529.7164    3625932.41049   2811243.40647                  22431527.2024
        45.0004         32.7504
  21011052.1394     245613.83649    190096.62648                  21011047.2564
        52.5004         43.0004
 04  7  1 18  2 30.0000000  0  8G 3G 9G14G15G18G19G21G22
  22242983.7104     520985.93849    406124.11647                  22242981.7894
        46.5004         36.7504
  23297380.9604       9365.00849      8826.79847                  23297380.2034
        44.2504         29.7504
  20522753.9684   -3442027.41849  -2672778.07248                  20522750.6634
        50.5004         45.2504
  20005832.3024   -1139833.30149   -885421.26348                  20005829.4274
        53.2504         46.0004
  22298329.1174    2465524.28549   1914889.76947                  22298325.8804
        46.7504         36.0004
  23075295.2924   -3920114.83249  -3035136.16147                  23075291.8114
        46.2504         33.0004
  22435815.5444    3648456.35549   2828794.51147                  22435812.8814
        45.5004         33.0004
  21011281.1834     246819.07049    191035.77048                  21011276.3814
        52.2504         43.2504
 04  7  1 18  2 40.0000000  0  8G 3G 9G14G15G18G19G21G22
  22244149.1614     527109.83249    410895.98247                  22244147.4714
        46.5004         36.7504
  23298161.2474      13465.99649     12022.39147                  23298160.4494
        43.7504         29.0004
  20519565.1624   -3458784.41849  -2685835.46048                  20519561.5864
        50.7504         44.7504
  20005080.3444   -1143784.03549   -888499.76248                  20005077.4074
        53.5004         45.5004
  22300870.5254    2478880.12549   1925296.92447                  22300867.7674
        48.0004         36.0004
  23071555.1584   -3939774.04749  -3050455.01147                  23071551.1754
        45.2504         33.2504
  22440104.2284    3670991.42249   2846354.28247                  22440101.7464
        45.2504         33.2504
  21011509.2854     248016.27749    191968.65648                  21011504.5294
        51.5004         43.2504
 04  7  1 18  2 50.0000000  0  8G 3G 9G14G15G18G19G21G22
  22245319.7524     533263.34049    415690.91347                  22245318.3844
        47.0004         36.0004
  23298949.9384      17610.37549     15251.77347                  23298949.4444
        43.7504         28.7504
  20516382.9274   -3475507.94549  -2698866.77848                  20516379.1724
        51.2504         45.0004
  20004334.2934   -1147704.79349   -891554.89848                  20004331.7114
        53.2504         46.0004
  22303409.3874    2492222.83649   1935693.83847                  22303406.7134
        47.0004         36.0004
  23067820.5224   -3959399.02749  -3065747.19247                  23067816.3384
        44.5004         33.5004
  22444394.8084    3693539.14149   2863923.92647                  22444392.2184
        46.2504         33.0004
  21011735.7254     249206.92249    192896.43448                  21011731.2084
        52.2504         43.5004
 04  7  1 18  3  0.0000000  0  8G 3G 9G14G15G18G19G21G22
  22246496.8774     539447.56349    420509.77547                  22246495.1724
        45.0004         36.5004
  23299747.0544      21799.36349     18515.90347                  23299746.4444
        44.0004         29.7504
  20513207.1834   -3492196.84849  -2711871.11748                  20513203.5494
        51.7504         45.0004
  20003594.3214   -1151594.41849   -894585.78048                  20003591.5074
        53.5004         46.0004
  22305946.4214    2505553.48049   1946081.32947                  22305943.5684
        48.2504         35.7504
  23064092.5164   -3978988.53149  -3081011.75347                  23064088.6414
        45.2504         34.2504
  22448688.2434    3716100.48449   2881504.16747                  22448685.0774
        46.0004         33.0004
  21011961.3954     250392.15249    193819.98648                  21011956.7504
        51.7504         44.0004
 04  7  1 18  3 10.0000000  0  8G 3G 9G14G15G18G19G21G22
  22247679.7534     545662.68449    425352.71747                  22247677.8774
        45.0004         36.2504
  23300552.9384      26033.17249     21814.95847                  23300551.6364
        44.5004         29.2504
  20510037.6774   -3508850.80949  -2724848.23448                  20510034.3424
        51.2504         44.7504
  20002860.1454   -1155452.56649   -897592.13448                  20002857.5804
        52.7504         45.5004
  22308480.9094    2518872.35249   1956459.65747                  22308478.0424
        48.0004         35.2504
  23060371.5784   -3998542.25049  -3096248.40247                  23060367.9544
        45.7504         34.0004
  22452984.0954    3738675.67249   2899095.18847                  22452981.7124
        45.2504         32.7504
  21012186.1654     251572.16449    194739.46948                  21012181.1854
        52.0004         43.5004
 04  7  1 18  3 20.0000000  0  8G 3G 9G14G15G18G19G21G22
  22248868.0214     551906.05949    430217.70147                  22248866.3704
        46.0004         36.0004
  23301366.4144      30309.08649     25146.85547                  23301365.1214
        44.5004         28.7504
  20506874.6984   -3525472.47349  -2737800.16448                  20506871.5794
        51.0004         44.7504
  20002131.1604   -1159281.81249   -900575.95648                  20002128.6504
        53.0004         45.7504
  22311012.3164    2532176.79349   1966826.76147                  22311009.5354
        47.5004         35.7504
  23056657.1234   -4018062.73449  -3111459.14647                  23056653.6984
        44.5004         33.2504
  22457282.5424    3761262.10249   2916694.99547                  22457279.4844
        46.0004         32.7504
  21012408.7614     252744.36749    195652.87748                  21012404.2044
        52.0004         43.5004
 04  7  1 18  3 30.0000000  0  8G 3G 9G14G15G18G19G21G22
  22250061.9604     558180.67649    435106.99647                  22250059.6894
        45.2504         35.7504
  23302188.9644      34630.15649     28513.92147                  23302187.2464
        44.0004         29.0004
  20503718.4294   -3542058.81649  -2750724.59348                  20503715.5154
        50.0004         44.2504
  20001408.9254   -1163079.09449   -903534.88948                  20001406.2294
        52.5004         45.2504
  22313542.2504    2545469.96149   1977185.05547                  22313539.3234
        46.7504         35.0004
  23052949.5834   -4037546.93049  -3126641.64347                  23052945.8834
        43.7504         32.7504
  22461582.9524    3783862.76249   2934305.88147                  22461580.4734
        45.0004         33.0004
  21012631.2154     253911.73849    196562.51748                  21012626.1544
        52.0004         43.2504
 04  7  1 18  3 40.0000000  0  8G 3G 9G14G15G18G19G21G22
  22251261.9274     564487.69949    440021.55947                  22251260.1354
        45.5004         35.5004
  23303019.6404      38997.67649     31917.16447                  23303018.6784
        44.0004         29.0004
  20500569.3714   -3558608.59049  -2763620.51648                  20500566.1454
        50.7504         45.0004
  20000692.8984   -1166843.12549   -906467.90348                  20000690.1424
        52.5004         45.7504
  22316069.9744    2558752.93449   1987535.41847                  22316067.2014
        47.0004         36.0004
  23049248.7434   -4056993.53549  -3141794.83747                  23049245.3014
        45.0004         32.7504
  22465886.8994    3806478.85549   2951928.78647                  22465884.0074
        45.5004         33.0004
  21012852.5584     255075.50049    197469.34248                  21012847.6634
        52.7504         43.2504
 04  7  1 18  3 50.0000000  0  8G 3G 9G14G15G18G19G21G22
  22252467.1374     570822.73849    444957.94047                  22252466.0384
        43.5004         35.7504
  23303859.2954      43407.28149     35353.23447                  23303857.9964
        44.2504         29.7504
  20497426.0564   -3575126.09049  -2776491.28448                  20497422.6684
        50.5004         44.7504
  19999981.7104   -1170578.28149   -909378.42048                  19999978.9094
        52.0004         45.5004
  22318594.4454    2572021.44549   1997874.49347                  22318592.5254
        46.2504         35.7504
  23045554.5374   -4076406.86749  -3156922.09347                  23045550.6664
        43.2504         34.5004
  22470192.2824    3829105.91449   2969560.24147                  22470189.4544
        45.2504         32.2504
  21013072.3114     256231.32849    198369.98848                  21013067.6214
        51.5004         43.5004
 04  7  1 18  4  0.0000000  0  8G 3G 9G14G15G18G19G21G22
  22253678.2154     577185.90249    449916.24447                  22253676.5684
        45.2504         36.2504
  23304706.3774      47859.19949     38822.25047                  23304704.2794
        44.5004         29.2504
  20494289.0984   -3591611.04349  -2789336.69948                  20494285.6884
        51.0004         45.0004
  19999276.5874   -1174284.20749   -912266.15648                  19999273.6274
        53.2504         45.5004
  22321117.1384    2585275.74649   2008202.50147                  22321114.5024
        46.7504         36.0004
  23041866.9504   -4095786.61749  -3172023.19847                  23041862.9864
        44.7504         33.5004
  22474499.8904    3851744.23849   2987200.48447                  22474497.8374
        46.2504         32.5004
  21013290.9694     257379.50849    199264.66548                  21013286.0834
        52.0004         43.5004
 04  7  1 18  4 10.0000000  0  8G 3G 9G14G15G18G19G21G22
  22254893.8984     583575.96549    454895.52147                  22254892.8134
        46.0004         36.2504
  23305561.5124      52352.23049     42323.32847                  23305560.0184
        44.2504         29.2504
  20491157.9864   -3608064.62949  -2802157.66748                  20491154.6794
        51.2504         45.0004
  19998576.8694   -1177962.09049   -915132.02948                  19998574.1774
        52.5004         45.7504
  22323636.3954    2598514.61349   2018518.49247                  22323633.7414
        46.7504         36.5004
  23038185.6294   -4115133.89849  -3187098.98247                  23038181.1844
        45.5004         34.0004
  22478810.1814    3874392.61349   3004848.54147                  22478807.9644
        46.5004         33.2504
  21013507.6934     258518.73449    200152.37848                  21013502.9364
        52.0004         43.5004
 04  7  1 18  4 20.0000000  0  8G 3G 9G14G15G18G19G21G22
  22256115.6704     589995.21549    459897.52247                  22256114.3584
        47.2504         37.0004
  23306424.8144      56888.73449     45858.25947                  23306423.3614
        44.5004         28.7504
  20488033.3844   -3624484.45349  -2814952.33148                  20488030.4734
        51.0004         44.5004
  19997882.3774   -1181609.51249   -917974.19348                  19997879.7774
        53.7504         45.5004
  22326153.4614    2611740.46549   2028824.33647                  22326150.4934
        47.0004         36.5004
  23034510.1944   -4134446.31649  -3202147.61947                  23034506.5774
        44.5004         33.7504
  22483122.3064    3897053.35949   3022506.22647                  22483119.6054
        45.2504         32.0004
  21013723.3524     259651.46949    201035.02248                  21013718.6474
        52.0004         43.2504
 04  7  1 18  4 30.0000000  0  8G 3G 9G14G15G18G19G21G22
  22257342.3744     596441.84449    464920.86747                  22257340.9304
        47.0004         36.2504
  23307296.1184      61466.78949     49425.57647                  23307294.6874
        45.2504         28.5004
  20484914.8324   -3640872.47349  -2827722.21048                  20484911.1434
        51.0004         44.7504
  19997193.8104   -1185228.28549   -920794.01748                  19997191.1434
        53.0004         45.5004
  22328667.2974    2624951.36749   2039118.54747                  22328664.3904
        48.0004         36.2504
  23030841.2564   -4153725.68449  -3217170.49347                  23030838.0394
        44.2504         33.5004
  22487436.4394    3919724.59849   3040172.11547                  22487433.8834
        46.0004         32.5004
  21013937.0934     260775.80149    201911.13348                  21013932.7824
        51.7504         43.0004
 04  7  1 18  4 40.0000000  0  8G 3G 9G14G15G18G19G21G22
  22258575.0464     602916.62549    469966.14047                  22258573.0264
        45.5004         36.2504
  23308174.9684      66087.37549     53026.03847                  23308173.3894
        44.5004         28.0004
  20481802.5044   -3657227.65649  -2840466.50748                  20481799.3704
        50.0004         44.7504
  19996510.7004   -1188817.39849   -923590.73548                  19996508.0174
        53.2504         45.0004
  22331178.7034    2638148.24649   2049401.81147                  22331175.8434
        45.7504         36.0004
  23027179.2264   -4172971.01649  -3232166.86847                  23027175.0794
        45.5004         33.5004
  22491752.9444    3942407.23049   3057846.89047                  22491750.4784
        45.0004         31.2504
  21014149.5234     261892.66449    202781.40548                  21014144.7814
        52.5004         43.0004
 04  7  1 18  4 50.0000000  0  8G 3G 9G14G15G18G19G21G22
  22259813.1334     609425.43449    475037.93947                  22259812.1454
        44.0004         36.2504
  23309063.8344      70756.38749     56664.22847                  23309061.7274
        44.5004         29.0004
  20478697.7424   -3673544.03149  -2853180.56348                  20478694.4194
        50.5004         45.0004
  19995834.9664   -1192370.82049   -926359.64148                  19995831.8114
        52.7504         45.5004
  22333688.7264    2651337.11749   2059678.83847                  22333684.9584
        46.7504         36.0004
  23023524.3314   -4192176.28949  -3247131.99847                  23023520.7424
        43.7504         33.2504
  22496072.6864    3965107.18049   3075535.12047                  22496070.3214
        45.5004         32.7504
  21014361.9544     263007.98449    203650.49048                  21014357.3644
        51.7504         44.0004
 04  7  1 18  5  0.0000000  0  8G 3G 9G14G15G18G19G21G22
  22261057.0324     615961.52349    480130.98647                  22261055.4894
        47.2504         36.0004
  23309960.0044      75467.10249     60334.91547                  23309958.2234
        45.0004         28.5004
  20475598.9654   -3689828.27349  -2865869.57548                  20475595.6584
        50.7504         44.5004
  19995164.1384   -1195895.21949   -929105.93448                  19995161.5744
        53.5004         45.5004
  22336195.2664    2664511.20349   2069944.36847                  22336192.1634
        47.0004         35.5004
  23019876.3264   -4211348.14849  -3262071.11047                  23019872.0484
        43.5004         33.7504
  22500394.0724    3987817.68449   3093231.59747                  22500391.9764
        46.0004         32.0004
  21014572.8624     264115.03549    204513.12148                  21014567.9334
        51.7504         43.5004
 04  7  1 18  5 10.0000000  0  8G 3G 9G14G15G18G19G21G22
  22262307.1814     622528.95349    485248.45647                  22262305.5574
        44.7504         36.2504
  23310864.5434      80223.62949     64041.28347                  23310863.8394
        43.7504         28.5004
  20472507.1914   -3706076.29349  -2878530.36748                  20472504.0324
        51.0004         45.0004
  19994499.9254   -1199386.44149   -931826.36648                  19994497.0504
        52.7504         45.7504
  22338700.3014    2677674.79749   2080201.71047                  22338696.6074
        47.0004         35.7504
  23016235.1604   -4230482.46149  -3276980.95347                  23016230.6474
        44.0004         34.5004
  22504718.5694    4010542.82049   3110939.47147                  22504716.3994
        45.2504         32.5004
  21014782.6084     265217.94149    205372.53248                  21014777.9514
        51.5004         43.2504
 04  7  1 18  5 20.0000000  0  8G 3G 9G14G15G18G19G21G22
  22263561.8734     629124.60549    490387.93347                  22263560.4594
        44.0004         36.5004
  23311778.7704      85022.90249     67780.98447                  23311777.5394
        43.7504         29.2504
  20469421.1864   -3722291.09049  -2891165.26448                  20469417.9344
        51.2504         45.0004
  19993841.0764   -1202847.55949   -934523.34348                  19993838.2504
        53.2504         45.7504
  22341202.4214    2690824.80149   2090448.44847                  22341199.2434
        48.0004         35.5004
  23012600.1824   -4249582.19949  -3291863.87247                  23012596.2444
        45.2504         34.2504
  22509045.4194    4033279.52349   3128656.36647                  22509043.0794
        45.5004         32.2504
  21014991.0404     266313.65249    206226.32848                  21014986.0844
        52.0004         43.2504
 04  7  1 18  5 30.0000000  0  8G 3G 9G14G15G18G19G21G22
  22264822.0674     635748.08649    495549.09347                  22264820.7134
        44.7504         35.7504
  23312699.5164      89864.63349     71553.77647                  23312698.2084
        44.0004         28.5004
  20466341.9704   -3738472.94549  -2903774.48948                  20466338.8594
        50.5004         44.5004
  19993188.1724   -1206278.76649   -937197.00548                  19993185.7874
        54.0004         45.7504
  22343701.9254    2703960.85249   2100684.34047                  22343698.9724
        46.5004         35.0004
  23008972.5974   -4268647.57049  -3306719.98847                  23008968.3974
        44.0004         33.5004
  22513374.3174    4056027.48049   3146382.03747                  22513371.9844
        45.0004         32.5004
  21015198.2114     267401.87549    207074.30348                  21015193.3324
        52.0004         43.5004
 04  7  1 18  5 40.0000000  0  8G 3G 9G14G15G18G19G21G22
  22266088.2754     642399.64149    500732.10247                  22266086.6014
        46.5004         36.0004
  23313628.8874      94749.05149     75359.79247                  23313627.6994
        44.5004         29.0004
  20463269.0834   -3754621.63349  -2916357.87748                  20463265.8604
        51.2504         44.5004
  19992540.7664   -1209679.79749   -939847.16448                  19992538.3924
        53.0004         45.7504
  22346199.2844    2717083.22749   2110909.55747                  22346196.6544
        46.5004         34.7504
  23005351.0124   -4287678.36749  -3321549.18447                  23005346.6364
        45.0004         33.5004
  22517705.1004    4078786.91049   3164116.62547                  22517702.7204
        44.0004         32.5004
  21015403.8364     268482.84849    207916.61648                  21015399.0964
        51.7504         43.2504
 04  7  1 18  5 50.0000000  0  8G 3G 9G14G15G18G19G21G22
  22267358.8004     649078.96549    505936.76847                  22267357.9674
        45.0004         35.5004
  23314566.7404      99675.95749     79198.93847                  23314565.5964
        43.7504         27.7504
  20460202.2184   -3770737.35249  -2928915.57648                  20460198.8184
        52.0004         44.0004
  19991899.5244   -1213050.74649   -942473.88948                  19991896.8074
        53.2504         45.0004
  22348694.1164    2730191.73049   2121123.96847                  22348690.8644
        47.0004         34.0004
  23001735.3564   -4306674.66449  -3336351.48647                  23001732.1264
        43.0004         33.5004
  22522038.1824    4101557.63749   3181860.02547                  22522035.7614
        45.0004         32.2504
  21015608.2614     269556.36749    208753.12348                  21015603.5334
        52.0004         42.5004
 04  7  1 18  6  0.0000000  0  8G 3G 9G14G15G18G19G21G22
  22268635.1834     655785.39849    511162.54347                  22268633.5934
        46.2504         35.7504
  23315511.8284     104644.68849     83070.67147                  23315510.9464
        44.0004         28.5004
  20457141.7424   -3786820.71949  -2941448.07448                  20457138.0734
        51.7504         44.5004
  19991263.5304   -1216392.25449   -945077.67248                  19991260.9304
        53.5004         45.7504
  22351185.2514    2743285.73849   2131327.07547                  22351182.2934
        47.2504         35.0004
  22998128.1244   -4325637.05149  -3351127.36547                  22998123.4574
        43.7504         33.5004
  22526373.9164    4124338.89549   3199611.61347                  22526371.0604
        44.5004         31.7504
  21015810.8914     270621.74649    209583.28148                  21015806.5014
        52.0004         43.7504
 04  7  1 18  6 10.0000000  0  8G 3G 9G14G15G18G19G21G22
  22269917.2114     662521.68449    516411.61047                  22269915.5654
        47.0004         36.0004
  23316466.2564     109658.07049     86977.19347                  23316464.8654
        44.7504         28.0004
  20454087.6964   -3802868.84449  -2953953.09348                  20454084.6754
        51.5004         44.2504
  19990633.5664   -1219701.48449   -947656.28948                  19990631.0554
        53.2504         45.5004
  22353674.7434    2756367.95749   2141520.99647                  22353672.1554
        47.0004         35.0004
  22994525.8924   -4344562.68049  -3365874.61047                  22994521.9444
        45.0004         33.7504
  22530711.0204    4147133.52349   3217373.65547                  22530708.4094
        44.0004         32.2504
  21016012.6744     271681.87949    210409.35748                  21016007.6314
        52.7504         43.7504
 04  7  1 18  6 20.0000000  0  8G 3G 9G14G15G18G19G21G22
  22271204.7814     669287.27349    521683.47247                  22271202.8524
        46.7504         36.5004
  23317429.0904     114715.66049     90918.15347                  23317427.8234
        45.0004         28.5004
  20451040.6544   -3818882.24249  -2966431.07048                  20451037.3544
        51.7504         44.5004
  19990010.3934   -1222978.77349   -950210.02648                  19990007.6384
        53.7504         45.7504
  22356162.1544    2769437.99249   2151705.42947                  22356159.4094
        47.5004         35.2504
  22990931.8844   -4363451.86749  -3380593.46347                  22990927.4934
        43.5004         33.5004
  22535051.7094    4169940.98449   3235145.67347                  22535048.6244
        44.5004         31.7504
  21016213.4824     272736.26249    211230.94948                  21016208.4914
        52.5004         43.7504
 04  7  1 18  6 30.0000000  0  8G 3G 9G14G15G18G19G21G22
  22272497.8414     676082.69949    526978.61047                  22272496.3824
        46.5004         36.2504
  23318399.3754     119817.95749     94893.96547                  23318398.6034
        45.0004         28.0004
  20448000.2124   -3834860.35549  -2978881.54248                  20447996.7664
        50.7504         44.5004
  19989392.8484   -1226223.56249   -952738.43348                  19989389.7074
        53.5004         45.5004
  22358646.9704    2782496.34049   2161880.75347                  22358644.5634
        48.0004         35.2504
  22987343.9524   -4382304.10549  -3395283.50647                  22987339.9654
        45.0004         33.0004
  22539393.9044    4192761.70349   3252928.03047                  22539391.5224
        45.5004         31.5004
  21016412.8564     273785.39849    212048.46148                  21016407.9864
        52.0004         43.2504
 04  7  1 18  6 40.0000000  0  8G 3G 9G14G15G18G19G21G22
  22273796.5084     682907.16049    532296.37647                  22273795.0794
        46.0004         36.0004
  23319378.7774     124964.14849     98903.98447                  23319377.7094
        44.2504         27.2504
  20444966.4904   -3850803.81649  -2991305.00848                  20444962.8764
        51.7504         44.5004
  19988781.5394   -1229436.53949   -955242.04648                  19988778.6314
        52.7504         45.5004
  22361129.7504    2795542.43449   2172046.52847                  22361126.7084
        47.5004         35.2504
  22983763.5504   -4401120.07049  -3409945.28447                  22983759.6894
        43.0004         33.5004
  22543738.8574    4215595.03149   3270720.21347                  22543736.3234
        45.0004         31.2504
  21016611.5964     274828.64849    212861.38348                  21016606.2074
        51.7504         43.7504
 04  7  1 18  6 50.0000000  0  8G 3G 9G14G15G18G19G21G22
  22275100.3074     689758.77749    537635.28447                  22275098.5744
        44.0004         36.0004
  23320366.4324     130152.41449    102946.80247                  23320365.0774
        44.7504         27.7504
  20441938.2874   -3866714.47349  -3003702.91748                  20441935.1524
        51.5004         44.2504
  19988175.8644   -1232619.44949   -957722.24548                  19988172.8494
        52.5004         45.5004
  22363609.3044    2808574.36749   2182201.27447                  22363606.3094
        49.0004         35.0004
  22980189.7224   -4419901.48849  -3424580.16047                  22980185.6104
        43.7504         33.7504
  22548085.9594    4238439.08249   3288520.73947                  22548083.6544
        45.5004         30.2504
  21016808.3204     275864.12149    213668.24348                  21016803.4964
        51.2504         43.0004
 04  7  1 18  7  0.0000000  0  8G 3G 9G14G15G18G19G21G22
  22276409.3674     696638.40649    542996.03647                  22276407.2644
        46.7504         35.2504
  23321361.2684     135383.70749    107023.11747                  23321360.3324
        44.2504         26.7504
  20438917.0064   -3882591.40649  -3016074.54748                  20438913.8444
        51.0004         44.0004
  19987576.0204   -1235771.35249   -960178.27648                  19987573.1004
        53.0004         45.0004
  22366086.9614    2821593.05549   2192345.69747                  22366084.2924
        48.0004         35.0004
  22976622.5034   -4438647.47749  -3439187.41047                  22976618.6654
        43.2504         34.0004
  22552435.8134    4261294.78949   3306330.35847                  22552433.4334
        45.7504         30.5004
  21017004.2194     276892.70749    214469.74048                  21016999.1294
        52.0004         42.5004
 04  7  1 18  7 10.0000000  0  8G 3G 9G14G15G18G19G21G22
  22277723.4544     703545.97349    548378.54647                  22277721.7924
        46.0004         36.0004
  23322365.5834     140657.98449    111132.93347                  23322363.9684
        44.0004         28.2504
  20435902.0094   -3898434.63749  -3028419.92048                  20435899.1424
        51.7504         44.5004
  19986982.3104   -1238892.20349   -962610.11548                  19986979.0494
        53.0004         45.5004
  22368561.6384    2834598.47349   2202479.78647                  22368559.1434
        48.0004         35.2504
  22973061.7914   -4457357.91449  -3453766.97747                  22973058.4144
        44.0004         34.2504
  22556787.1204    4284162.10949   3324149.02047                  22556784.8454
        46.0004         31.5004
  21017198.8764     277914.41449    215265.87148                  21017193.8164
        52.0004         43.0004
 04  7  1 18  7 20.0000000  0  8G 3G 9G14G15G18G19G21G22
  22279043.4794     710481.86349    553783.12147                  22279042.2604
        46.0004         35.0004
  23323377.0194     145975.71149    115276.60847                  23323375.5974
        43.5004         28.0004
  20432893.7164   -3914243.63349  -3040738.62348                  20432890.6824
        51.7504         44.5004
  19986394.3164   -1241981.58249   -965017.43348                  19986391.3414
        53.7504         45.5004
  22371034.2944    2847591.18849   2212603.96247                  22371031.0624
        48.5004         35.5004
  22969508.2994   -4476032.27749  -3468318.42447                  22969504.5714
        44.0004         33.7504
  22561140.6174    4307041.42249   3341977.03147                  22561138.1154
        46.5004         31.2504
  21017392.1324     278929.62549    216056.93648                  21017386.8834
        51.5004         43.5004
 04  7  1 18  7 30.0000000  0  8G 3G 9G14G15G18G19G21G22
  22280369.2514     717445.42649    559209.27147                  22280367.0044
        46.0004         35.5004
  23324397.7534     151336.22349    119453.61747                  23324395.6354
        43.7504         28.2504
  20429891.8894   -3930019.00049  -3053031.10248                  20429888.9254
        51.2504         45.2504
  19985812.1184   -1245039.94149   -967400.57548                  19985809.2654
        52.7504         45.5004
  22373504.0524    2860570.60549   2222717.78547                  22373501.0074
        48.5004         35.5004
  22965961.3984   -4494671.16449  -3482842.21947                  22965957.7414
        43.7504         34.2504
  22565497.2094    4329932.14849   3359813.94547                  22565494.6084
        46.0004         31.7504
  21017583.7484     279937.87149    216842.58848                  21017578.9814
        51.7504         44.0004
 04  7  1 18  7 40.0000000  0  8G 3G 9G14G15G18G19G21G22
  22281698.7304     724434.83249    564655.54247                  22281697.0144
        46.2504         35.7504
  23325425.1704     156737.74249    123662.59947                  23325423.6724
        44.0004         26.7504
  20426896.2634   -3945762.51249  -3065298.77748                  20426893.0824
        51.0004         45.0004
  19985236.1414   -1248069.09449   -969760.95948                  19985233.2054
        53.5004         45.5004
  22375971.0684    2873534.85949   2232819.77747                  22375968.1934
        49.0004         35.7504
  22962421.0804   -4513276.36349  -3497339.79047                  22962416.9834
        43.0004         33.5004
  22569854.3784    4352832.43849   3377658.28347                  22569852.2174
        46.5004         31.7504
  21017773.9694     280937.29349    217621.33948                  21017769.2344
        51.7504         44.0004
 04  7  1 18  7 50.0000000  0  8G 3G 9G14G15G18G19G21G22
  22283032.7414     731445.53549    570118.43847                  22283031.8824
        45.5004         35.7504
  23326459.5974     162175.75849    127899.99947                  23326458.3924
        42.5004         27.5004
  20423905.1434   -3961478.69949  -3077545.14648                  20423901.8804
        51.7504         44.5004
  19984664.1104   -1251073.48449   -972102.03548                  19984661.3114
        53.5004         45.5004
  22378434.0664    2886479.43049   2242906.45047                  22378431.6154
        48.7504         35.7504
  22958885.9854   -4531852.18449  -3511814.43847                  22958882.5044
        45.0004         34.0004
  22574213.4404    4375737.85549   3395506.64547                  22574210.8794
        46.0004         31.2504
  21017961.4174     281923.41449    218389.75348                  21017956.6034
        52.2504         43.0004
 04  7  1 18  8  0.0000000  0  8G 3G 9G14G15G18G19G21G22
  22284371.8214     738481.74649    575601.20547                  22284370.5174
        46.2504         35.5004
  23327502.1174     167654.59449    132169.24347                  23327501.3804
        43.0004         27.0004
  20420920.6234   -3977163.15249  -3089766.78048                  20420917.7514
        51.0004         44.7504
  19984097.6714   -1254048.64549   -974420.34048                  19984094.8704
        52.7504         45.5004
  22380894.8884    2899408.68849   2252981.19947                  22380892.3734
        49.0004         35.7504
  22955357.8574   -4550394.27049  -3526262.81247                  22955353.9674
        43.7504         33.7504
  22578573.2704    4398652.62549   3413362.28947                  22578571.1764
        47.2504         30.7504
  21018147.6574     282900.56649    219151.18048                  21018142.6744
        52.2504         43.0004
 04  7  1 18  8 10.0000000  0  8G 3G 9G14G15G18G19G21G22
  22285716.5474     745548.88749    581108.05047                  22285715.2514
        45.7504         35.2504
  23328553.9794     173179.71549    136474.50346                  23328552.7024
        43.2504         25.5004
  20417943.0484   -3992810.42649  -3101959.46848                  20417939.8644
        51.0004         44.5004
  19983538.5464   -1256989.05149   -976711.57548                  19983536.1244
        52.5004         45.0004
  22383353.5344    2912328.05149   2263048.21347                  22383350.2814
        48.5004         36.0004
  22951836.9934   -4568897.12949  -3540680.63147                  22951833.1594
        44.7504         33.5004
  22582937.1544    4421582.12549   3431229.41347                  22582934.8844
        46.7504         30.7504
  21018332.8144     283874.22349    219909.85948                  21018327.7254
        51.2504         42.5004
 04  7  1 18  8 20.0000000  0  8G 3G 9G14G15G18G19G21G22
  22287066.8614     752643.27349    586636.13447                  22287065.0554
        45.0004         35.2504
  23329613.7924     178747.45349    140812.99747                  23329612.4014
        43.0004         28.0004
  20414971.9784   -4008424.15249  -3114125.99648                  20414968.5514
        51.5004         45.0004
  19982984.7964   -1259898.30549   -978978.52548                  19982981.9454
        52.5004         45.7504
  22385808.7924    2925233.99649   2273104.80047                  22385806.4554
        48.5004         36.0004
  22948322.6164   -4587364.33249  -3555070.65247                  22948318.8404
        42.7504         34.5004
  22587302.8794    4444522.77349   3449105.20147                  22587300.4294
        46.7504         31.0004
  21018516.4984     284840.71949    220662.97748                  21018511.7354
        52.0004         43.0004
 04  7  1 18  8 30.0000000  0  8G 3G 9G14G15G18G19G21G22
  22288421.6884     759762.97749    592183.94447                  22288419.8844
        44.2504         35.2504
  23330680.7674     184356.03549    145183.30047                  23330679.8984
        43.2504         26.7504
  20412007.1334   -4024006.07449  -3126267.76148                  20412003.7984
        51.7504         44.7504
  19982436.8704   -1262778.24649   -981222.65248                  19982433.9524
        53.0004         45.5004
  22388262.3764    2938124.66849   2283149.45447                  22388259.3934
        49.0004         36.0004
  22944815.2104   -4605797.62549  -3569434.25447                  22944811.1844
        45.0004         33.5004
  22591670.2064    4467472.76649   3466988.29147                  22591667.6974
        46.5004         31.5004
  21018699.0214     285798.21949    221409.07248                  21018693.8644
        52.5004         42.7504
 04  7  1 18  8 40.0000000  0  8G 3G 9G14G15G18G19G21G22
  22289781.9324     766911.02349    597753.84547                  22289780.6594
        45.5004         35.7504
  23331756.4424     190008.46549    149587.78747                  23331755.8954
        43.5004         27.2504
  20409048.5204   -4039553.17649  -3138382.37848                  20409045.0184
        51.5004         44.7504
  19981894.9344   -1265625.76249   -983441.48248                  19981892.7534
        52.7504         46.0004
  22390712.9754    2951003.23449   2293184.69247                  22390710.3514
        48.5004         36.0004
  22941314.2294   -4624193.86749  -3583768.98047                  22941310.3844
        46.0004         34.2504
  22596039.8384    4490435.05149   3484880.96447                  22596037.0834
        46.0004         31.7504
  21018880.1774     286749.83649    222150.58948                  21018875.0114
        52.0004         43.0004
 04  7  1 18  8 50.0000000  0  8G 3G 9G14G15G18G19G21G22
  22291146.7524     774086.48849    603345.11247                  22291145.7014
        44.0004         36.2504
  23332840.1284     195703.82449    154025.72547                  23332839.1944
        44.0004         28.2504
  20406096.2364   -4055066.27749  -3150470.49548                  20406093.0344
        52.0004         45.0004
  19981359.2014   -1268441.63749   -985635.67348                  19981356.2684
        53.0004         46.0004
  22393161.3014    2963868.75449   2303209.75647                  22393158.2654
        48.5004         35.7504
  22937820.3394   -4642553.98449  -3598075.56647                  22937816.3044
        44.5004         34.7504
  22600411.5974    4513408.74649   3502782.50347                  22600409.1124
        46.0004         32.0004
  21019059.7624     287694.64849    222886.81348                  21019054.7864
        51.7504         43.5004
 04  7  1 18  9  0.0000000  0  8G 3G 9G14G15G18G19G21G22
  22292517.4104     781288.46149    608957.03547                  22292515.9294
        46.2504         35.5004
  23333932.0284     201441.10949    158496.33847                  23333930.9484
        43.5004         27.5004
  20403150.2434   -4070546.30149  -3162532.85648                  20403147.4904
        51.5004         44.5004
  19980829.2034   -1271226.75849   -987805.90748                  19980826.2094
        53.0004         45.5004
  22395606.9094    2976720.37549   2313224.00847                  22395604.4204
        48.2504         35.7504
  22934333.2154   -4660878.84449  -3612354.67147                  22934329.3704
        45.0004         34.2504
  22604785.4364    4536392.85949   3520692.16947                  22604782.9614
        46.0004         32.0004
  21019238.1484     288631.74249    223617.01048                  21019233.4804
        52.0004         43.2504
 04  7  1 18  9 10.0000000  0  8G 3G 9G14G15G18G19G21G22
  22293894.2874     788522.73049    614594.12647                  22293893.0754
        43.7504         35.0004
  23335032.9194     207226.40649    163004.35447                  23335032.0024
        42.7504         28.5004
  20400212.1184   -4085987.32449  -3174564.81748                  20400208.4814
        51.2504         45.0004
  19980306.0534   -1273975.10949   -989947.48148                  19980303.4634
        51.7504         45.2504
  22398050.6694    2989563.91049   2323231.94147                  22398047.9704
        48.5004         35.5004
  22930854.0584   -4679162.43049  -3626601.60947                  22930850.1774
        45.5004         34.2504
  22609162.3924    4559393.36749   3538614.62047                  22609159.6484
        46.0004         31.2504
  21019416.2654     289567.14549    224345.89148                  21019411.1014
        52.2504         43.5004
 04  7  1 18  9 20.0000000  0  8G 3G 9G14G15G18G19G21G22
  22295276.4574     795785.28549    620253.24947                  22295275.1344
        45.7504         35.0004
  23336142.0324     213055.64549    167546.59447                  23336140.9594
        44.2504         27.5004
  20397280.4264   -4101393.34449  -3186569.50048                  20397277.1414
        51.7504         44.2504
  19979789.4444   -1276690.68749   -992063.52348                  19979786.2994
        53.2504         45.0004
  22400492.8174    3002395.43849   2333230.52747                  22400489.9654
        48.0004         34.5004
  22927381.8214   -4697408.73049  -3640819.49947                  22927377.8634
        46.5004         34.0004
  22613540.9884    4582406.21549   3556546.70847                  22613538.6944
        45.0004         30.5004
  21019592.9604     290496.76249    225070.26648                  21019588.0494
        52.0004         42.5004
 04  7  1 18  9 30.0000000  0  8G 3G 9G14G15G18G19G21G22
  22296662.4694     803071.77749    625931.03547                  22296661.3334
        45.5004         35.0004
  23337259.6144     218924.50049    172119.74647                  23337257.8244
        44.0004         27.0004
  20394354.7814   -4116768.64549  -3198550.24948                  20394351.4014
        51.5004         44.7504
  19979278.2144   -1279377.71149   -994157.30648                  19979275.4314
        53.2504         45.7504
  22402930.8954    3015210.64549   2343216.39047                  22402928.7084
        48.0004         35.5004
  22923915.6744   -4715621.89849  -3655011.57947                  22923911.9854
        46.2504         34.5004
  22617922.1644    4605427.12949   3574485.04247                  22617919.5614
        45.5004         31.5004
  21019768.0034     291416.31649    225786.79848                  21019763.2214
        52.2504         43.0004
 04  7  1 18  9 40.0000000  0  8G 3G 9G14G15G18G19G21G22
  22298053.6504     810382.82849    631627.94547                  22298052.3414
        45.2504         35.5004
  23338383.5454     224833.69149    176724.29647                  23338382.6204
        43.2504         27.2504
  20391434.8594   -4132112.45349  -3210506.46848                  20391431.9324
        52.0004         45.0004
  19978772.3554   -1282035.45749   -996228.28348                  19978769.6474
        53.2504         45.5004
  22405366.8954    3028010.27749   2353190.12047                  22405364.6324
        48.0004         35.0004
  22920456.5734   -4733801.13749  -3669177.21547                  22920452.4854
        46.5004         34.2504
  22622304.2844    4628456.64849   3592430.09547                  22622302.0014
        45.5004         31.0004
  21019941.0064     292326.51649    226496.03948                  21019936.1584
        53.0004         43.0004
 04  7  1 18  9 50.0000000  0  8G 3G 9G14G15G18G19G21G22
  22299451.1624     817723.47349    637347.92847                  22299449.7734
        45.0004         35.2504
  23339516.7034     230788.20749    181364.14947                  23339515.3604
        44.2504         26.5004
  20388521.8704   -4147419.67649  -3222434.16448                  20388518.4794
        51.7504         45.0004
  19978272.8644   -1284658.77049   -998272.42348                  19978270.4164
        52.5004         45.7504
  22407800.2664    3040799.43449   2363155.68847                  22407797.5814
        48.2504         35.0004
  22917004.5224   -4751941.35949  -3683312.44547                  22917000.7244
        46.0004         34.5004
  22626689.7914    4651499.84849   3610385.81047                  22626687.4894
        45.7504         31.2504
  21020113.4174     293232.46549    227201.97648                  21020108.6974
        52.2504         43.0004
 04  7  1 18 10  0.0000000  0  8G 3G 9G14G15G18G19G21G22
  22300852.7024     825090.92249    643088.77847                  22300851.8354
        47.0004         35.2504
  23340657.8294     236785.43849    186037.34247                  23340656.5864
        43.0004         26.2504
  20385615.2784   -4162692.96549  -3234335.41748                  20385612.5294
        52.5004         45.0004
  19977779.7704   -1287250.27749  -1000291.78348                  19977777.1894
        53.2504         45.7504
  22410231.6454    3053575.50449   2373111.05347                  22410228.7564
        48.2504         34.7504
  22913559.4904   -4770045.14549  -3697419.28847                  22913555.5284
        46.7504         35.0004
  22631076.5804    4674554.06649   3628350.12647                  22631074.0394
        46.0004         31.0004
  21020284.8824     294131.47349    227902.49848                  21020279.8724
        52.2504         43.5004
 04  7  1 18 10 10.0000000  0  8G 3G 9G14G15G18G19G21G22
  22302259.1524     832482.37949    648848.35447                  22302258.1974
        43.5004         35.2504
  23341806.5884     242822.64549    190741.64247                  23341805.6034
        43.5004         26.5004
  20382715.1664   -4177935.02049  -3246212.34848                  20382712.0194
        51.7504         45.0004
  19977292.5214   -1289812.67649  -1002288.46548                  19977289.7184
        52.0004         45.5004
  22412659.9634    3066335.69949   2383054.06047                  22412657.1034
        48.2504         34.7504
  22910120.8224   -4788115.21949  -3711499.87747                  22910116.9024
        47.0004         34.5004
  22635465.2044    4697616.51249   3646320.84347                  22635462.2954
        46.0004         30.5004
  21020454.2244     295020.87149    228595.53048                  21020449.5274
        51.5004         43.5004
 04  7  1 18 10 20.0000000  0  8G 3G 9G14G15G18G19G21G22
  22303670.6534     839897.58649    654626.43747                  22303669.5854
        45.7504         35.5004
  23342962.9844     248899.57849    195476.90047                  23342961.2724
        43.2504         26.0004
  20379820.3254   -4193146.10249  -3258065.13348                  20379817.1244
        52.0004         45.0004
  19976810.2734   -1292346.18049  -1004262.62648                  19976807.2714
        53.2504         45.5004
  22415084.8364    3079079.72349   2392984.45847                  22415082.3654
        47.5004         34.5004
  22906688.9494   -4806151.80549  -3725554.34347                  22906684.6254
        46.5004         34.0004
  22639855.2044    4720686.96149   3664297.80647                  22639852.8424
        44.5004         31.2504
  21020621.2214     295900.37949    229280.86348                  21020616.6534
        52.5004         43.2504
 04  7  1 18 10 30.0000000  0  8G 3G 9G14G15G18G19G21G22
  22305086.6004     847338.78149    660424.77147                  22305085.5594
        45.2504         35.5004
  23344127.6384     255018.49249    200244.87246                  23344125.5674
        42.7504         24.7504
  20376932.0714   -4208323.87549  -3269891.95448                  20376929.2034
        51.2504         44.5004
  19976334.0244   -1294848.39849  -1006212.40148                  19976331.4634
        52.7504         45.2504
  22417507.4604    3091810.00849   2402904.14147                  22417504.2724
        47.7504         33.5004
  22903263.0474   -4824152.44149  -3739580.82047                  22903259.2044
        46.5004         33.5004
  22644247.6694    4743767.80949   3682282.83847                  22644245.4524
        45.0004         31.0004
  21020787.0164     296772.23449    229960.23148                  21020782.5874
        52.0004         42.5004
 04  7  1 18 10 40.0000000  0  8G 3G 9G14G15G18G19G21G22
  22306507.7854     854807.68049    666244.68047                  22306506.4494
        44.5004         35.5004
  23345300.1414     261181.15649    205046.94346                  23345298.3104
        43.5004         25.2504
  20374050.8314   -4223466.57049  -3281691.46748                  20374047.2534
        52.0004         45.2504
  19975864.5084   -1297317.51649  -1008136.40148                  19975861.6894
        53.0004         45.7504
  22419927.5224    3104528.33249   2412814.51147                  22419924.5184
        48.0004         33.7504
  22899845.0154   -4842115.40649  -3753577.93847                  22899841.1034
        46.7504         35.0004
  22648641.5954    4766860.68049   3700277.26647                  22648639.6834
        45.5004         30.7504
  21020951.9974     297638.29749    230635.06848                  21020947.4014
        52.5004         43.0004
 04  7  1 18 10 50.0000000  0  8G 3G 9G14G15G18G19G21G22
  22307934.3984     862304.87549    672086.64747                  22307933.2484
        44.2504         35.2504
  23346481.3284     267388.17249    209883.56646                  23346479.4334
        43.7504         25.2504
  20371175.7274   -4238573.54349  -3293463.11448                  20371172.5504
        52.0004         44.7504
  19975400.8114   -1299752.85249  -1010034.05948                  19975397.8474
        53.0004         46.0004
  22422345.8154    3117235.37949   2422716.11147                  22422342.7684
        46.0004         34.0004
  22896434.3144   -4860039.99649  -3767545.13947                  22896430.3504
        45.0004         34.2504
  22653038.8734    4789966.18449   3718281.52647                  22653036.3944
        44.0004         31.5004
  21021115.9234     298499.17249    231305.88548                  21021110.8714
        52.2504         43.0004
 04  7  1 18 11  0.0000000  0  8G 3G 9G14G15G18G19G21G22
  22309366.5324     869829.75049    677950.18147                  22309365.2534
        44.5004         35.2504
  23347671.2654     273638.96549    214754.31147                  23347669.4094
        44.0004         25.7504
  20368307.7864   -4253645.32849  -3305207.35948                  20368305.0324
        51.5004         45.5004
  19974943.6604   -1302154.87549  -1011905.76548                  19974941.3104
        52.5004         45.5004
  22424761.4544    3129930.52349   2432608.41547                  22424758.8504
        46.5004         34.2504
  22893031.1214   -4877926.68749  -3781482.81047                  22893026.3814
        45.7504         34.7504
  22657438.0464    4813083.71949   3736295.17547                  22657435.6184
        44.2504         31.2504
  21021278.5764     299354.41849    231972.31348                  21021274.0644
        52.2504         42.7504
 04  7  1 18 11 10.0000000  0  8G 3G 9G14G15G18G19G21G22
  22310803.0714     877378.71149    683832.46947                  22310801.8074
        44.2504         36.0004
  23348868.6944     279929.97749    219656.38047                  23348866.4384
        44.5004         28.2504
  20365445.9274   -4268685.45349  -3316926.93448                  20365442.6674
        51.0004         45.5004
  19974492.1384   -1304527.12949  -1013754.29048                  19974489.3224
        53.5004         45.7504
  22427174.7984    3142610.21949   2442488.69247                  22427171.6164
        47.0004         34.5004
  22889633.2044   -4895779.00449  -3795393.70747                  22889629.5114
        45.2504         35.0004
  22661838.6114    4836209.69949   3754315.39347                  22661836.6894
        45.2504         31.5004
  21021439.4084     300200.35549    232631.47648                  21021435.0954
        52.2504         43.2504
 04  7  1 18 11 20.0000000  0  8G 3G 9G14G15G18G19G21G22
  22312244.3894     884953.84449    689735.17247                  22312243.1944
        46.0004         35.5004
  23350073.5364     286263.38749    224591.51747                  23350072.1064
        44.0004         27.5004
  20362590.1524   -4283691.69949  -3328620.10448                  20362587.1734
        52.0004         45.0004
  19974047.0754   -1306867.34449  -1015577.83948                  19974044.0964
        54.5004         45.7504
  22429585.0694    3155276.80549   2452358.75347                  22429581.9364
        47.0004         34.5004
  22886242.6644   -4913594.64849  -3809276.01847                  22886239.1114
        45.5004         34.0004
  22666241.4174    4859346.38749   3772343.94447                  22666239.3734
        45.2504         30.7504
  21021599.1364     301039.27749    233285.18348                  21021594.3824
        52.2504         42.7504
 04  7  1 18 11 30.0000000  0  8G 3G 9G14G15G18G19G21G22
  22313690.6334     892554.19549    695657.51047                  22313689.5664
        44.7504         35.2504
  23351287.0524     292638.31649    229558.98547                  23351285.1584
        45.0004         28.7504
  20359741.0314   -4298664.93049  -3340287.56148                  20359737.6874
        52.0004         45.0004
  19973607.3544   -1309176.37949  -1017377.09048                  19973604.4444
        53.2504         45.5004
  22431992.5664    3167929.44149   2462217.92947                  22431989.9494
        47.7504         34.5004
  22882859.5334   -4931374.48449  -3823130.45447                  22882855.4254
        44.7504         34.0004
  22670646.5094    4882492.75049   3790380.05647                  22670643.8564
        44.7504         30.7504
  21021757.4954     301870.26649    233932.69748                  21021752.7584
        52.2504         42.7504
 04  7  1 18 11 40.0000000  0  8G 3G 9G14G15G18G19G21G22
  22315142.5794     900182.16049    701601.37247                  22315141.2044
        45.0004         35.0004
  23352508.1204     299057.11349    234560.64747                  23352506.7454
        44.2504         27.0004
  20356898.4754   -4313602.76649  -3351927.42048                  20356895.5974
        51.5004         44.7504
  19973174.5674   -1311451.83649  -1019150.18048                  19973171.7314
        53.0004         45.0004
  22434398.2384    3180570.26649   2472067.91247                  22434394.8184
        47.2504         34.7504
  22879483.7534   -4949116.11349  -3836955.08447                  22879479.4894
        45.7504         34.0004
  22675053.3734    4905651.18449   3808425.55647                  22675051.1344
        44.7504         31.2504
  21021914.7344     302695.68449    234575.88248                  21021909.9184
        53.2504         42.7504
 04  7  1 18 11 50.0000000  0  8G 3G 9G14G15G18G19G21G22
  22316598.9094     907835.40649    707564.93647                  22316597.3324
        46.0004         35.2504
  23353736.8734     305517.52049    239594.69847                  23353736.5754
        44.0004         27.5004
  20354061.8744   -4328507.46149  -3363541.46648                  20354059.0564
        52.0004         44.7504
  19972747.4634   -1313695.90249  -1020898.81348                  19972745.0754
        52.5004         45.2504
  22436800.9664    3193197.21149   2481907.07047                  22436797.9914
        47.0004         34.5004
  22876114.1084   -4966821.62949  -3850751.59647                  22876110.1924
        44.7504         34.0004
  22679462.0994    4928819.53549   3826478.77747                  22679459.4054
        45.2504         31.0004
  21022070.2004     303513.39149    235213.05048                  21022065.3114
        52.7504         43.0004
 04  7  1 18 12  0.0000000  0  8G 3G 9G14G15G18G19G21G22
  22318059.2824     915512.05149    713546.71847                  22318058.7214
        46.2504         35.2504
  23354974.6684     312017.73449    244659.79147                  23354973.4564
        44.0004         27.7504
  20351231.6104   -4343380.78149  -3375131.06548                  20351228.6704
        52.0004         45.0004
  19972326.0574   -1315910.27749  -1022624.30048                  19972323.4324
        52.7504         45.5004
  22439201.0274    3205808.50049   2491734.05847                  22439198.1094
        46.7504         34.7504
  22872751.2844   -4984492.82449  -3864521.36247                  22872747.6814
        44.7504         34.5004
  22683872.0544    4951995.91049   3844538.26747                  22683870.3874
        44.5004         31.2504
  21022223.8054     304321.57849    235842.81748                  21022218.8574
        52.0004         42.5004
 04  7  1 18 12 10.0000000  0  8G 3G 9G14G15G18G19G21G22
  22319525.6624     923216.60949    719550.27047                  22319524.2344
        46.5004         35.2504
  23356219.4124     318562.28149    249759.43947                  23356218.9294
        44.2504         28.5004
  20348408.2204   -4358218.14149  -3386692.64048                  20348405.1394
        52.2504         45.0004
  19971911.5714   -1318090.41849  -1024323.10748                  19971908.7994
        52.2504         45.7504
  22441599.0094    3218408.68849   2501552.37447                  22441596.0394
        47.5004         34.5004
  22869396.3134   -5002125.05149  -3878260.74647                  22869391.8784
        44.2504         35.0004
  22688284.6964    4975184.84049   3862607.54347                  22688282.6674
        46.0004         31.2504
  21022376.8174     305124.76249    236468.65948                  21022371.8514
        52.0004         42.5004
 04  7  1 18 12 20.0000000  0  8G 3G 9G14G15G18G19G21G22
  22320996.4674     930943.39549    725571.13047                  22320994.7874
        45.0004         35.7504
  23357472.2574     325145.50449    254889.19847                  23357471.2254
        43.7504         27.7504
  20345590.6134   -4373025.12949  -3398230.54848                  20345587.3794
        51.5004         45.5004
  19971501.8354   -1320241.86349  -1025999.57648                  19971499.3604
        52.7504         46.0004
  22443993.2494    3230992.12149   2511357.62747                  22443990.1884
        48.0004         35.0004
  22866047.3464   -5019723.97349  -3891974.19847                  22866043.7244
        45.5004         35.0004
  22692698.8124    4998380.54349   3880682.08047                  22692696.7384
        45.2504         31.2504
  21022527.4684     305917.29349    237086.21148                  21022522.4284
        52.0004         43.0004
 04  7  1 18 12 30.0000000  0  8G 3G 9G14G15G18G19G21G22
  22322471.6404     938697.18849    731613.02447                  22322470.4644
        44.2504         35.2504
  23358733.5304     331772.22349    260052.86247                  23358732.1504
        43.5004         26.7504
  20342779.5264   -4387796.96149  -3409741.05848                  20342776.4184
        52.5004         45.0004
  19971098.9404   -1322359.75049  -1027649.88048                  19971095.5844
        52.7504         45.7504
  22446385.1504    3243563.64149   2521153.60147                  22446382.5564
        48.0004         35.2504
  22862705.4894   -5037284.70749  -3905657.87747                  22862701.1854
        46.5004         33.7504
  22697115.3214    5021587.94549   3898765.76047                  22697112.8774
        45.7504         30.2504
  21022677.0884     306703.93849    237699.18048                  21022672.1744
        53.0004         42.7504
 04  7  1 18 12 40.0000000  0  8G 3G 9G14G15G18G19G21G22
  22323952.5584     946478.30149    737676.23847                  22323951.2954
        44.7504         35.2504
  23360002.4964     338442.78149    265250.69747                  23360001.5994
        44.0004         27.5004
  20339975.6204   -4402533.24649  -3421223.87948                  20339972.0044
        51.2504         45.2504
  19970702.2794   -1324443.56249  -1029273.62848                  19970699.4334
        52.7504         45.5004
  22448775.3934    3256123.61749   2530940.59247                  22448772.4754
        48.2504         35.0004
  22859371.3174   -5054806.71149  -3919311.38547                  22859367.5024
        47.0004         34.5004
  22701533.6814    5044807.17649   3916858.64447                  22701531.0934
        45.7504         30.2504
  21022826.0754     307485.19549    238307.95948                  21022821.1184
        52.0004         42.5004
 04  7  1 18 12 50.0000000  0  8G 3G 9G14G15G18G19G21G22
  22325437.7144     954283.03949    743757.83747                  22325436.2494
        44.0004         34.7504
  23361279.8094     345153.61349    270479.91347                  23361278.7414
        44.2504         28.5004
  20337177.2844   -4417237.57049  -3432681.78648                  20337174.1854
        51.2504         45.2504
  19970311.6894   -1326496.91449  -1030873.65248                  19970309.0434
        52.5004         45.2504
  22451162.7624    3268668.50849   2540715.80747                  22451159.9444
        48.7504         35.2504
  22856043.2884   -5072293.60249  -3932937.53047                  22856039.3984
        47.5004         34.0004
  22705953.6394    5068034.77349   3934958.03047                  22705952.0964
        45.7504         30.7504
  21022972.5174     308257.43049    238909.68548                  21022967.8254
        52.0004         42.5004
 04  7  1 18 13  0.0000000  0  8G 3G 9G14G15G18G19G21G22
  22326927.7544     962114.78949    749860.47647                  22326926.8874
        45.2504         34.5004
  23362565.0934     351908.03549    275743.05047                  23362564.0224
        45.0004         25.7504
  20334385.9674   -4431906.48849  -3444112.12348                  20334382.6454
        51.7504         44.2504
  19969927.1504   -1328516.40649  -1032447.29248                  19969924.2844
        53.7504         44.5004
  22453547.8534    3281201.76249   2550481.95247                  22453545.0684
        48.2504         34.5004
  22852723.2084   -5089741.92649  -3946533.62747                  22852719.3994
        46.7504         33.0004
  22710376.2194    5091274.26649   3953066.71047                  22710373.9484
        46.0004         29.7504
  21023118.7744     309024.05149    239507.03948                  21023114.2224
        52.0004         41.5004
 04  7  1 18 13 10.0000000  0  8G 3G 9G14G15G18G19G21G22
  22328423.2944     969971.61749    755982.68447                  22328421.7804
        43.5004         34.5004
  23363858.5414     358704.19549    281038.81047                  23363856.9554
        45.0004         27.7504
  20331600.7324   -4446541.84449  -3455516.26448                  20331597.7334
        51.5004         45.2504
  19969549.1144   -1330503.79349  -1033995.89148                  19969546.7624
        52.5004         45.5004
  22455930.4224    3293721.47749   2560237.59447                  22455927.4834
        48.2504         34.5004
  22849409.7514   -5107153.51249  -3960101.08147                  22849406.2304
        46.0004         34.0004
  22714800.1664    5114523.65249   3971183.08947                  22714798.4824
        45.2504         31.2504
  21023263.0064     309783.23049    240098.62148                  21023258.1724
        52.0004         42.5004
 04  7  1 18 13 20.0000000  0  8G 3G 9G14G15G18G19G21G22
  22329922.7154     977851.95749    762123.20747                  22329921.0534
        46.5004         34.0004
  23365159.5554     365540.53549    286365.79047                  23365158.0154
        44.7504         26.7504
  20328821.9794   -4461145.18749  -3466895.49048                  20328818.7374
        52.0004         45.0004
  19969176.6224   -1332460.56249  -1035520.65348                  19969174.0304
        53.0004         45.5004
  22458309.5314    3306226.17249   2569981.51247                  22458306.9654
        48.2504         34.0004
  22846103.6404   -5124529.79749  -3973641.03047                  22846099.6184
        46.0004         34.7504
  22719225.9964    5137781.44149   3989306.02047                  22719224.0404
        45.5004         30.7504
  21023405.8114     310533.46549    240683.21148                  21023400.9934
        52.7504         42.7504
 04  7  1 18 13 30.0000000  0  8G 3G 9G14G15G18G19G21G22
  22331426.7504     985756.87149    768282.87947                  22331425.3064
        46.5004         34.7504
  23366468.3694     372418.27049    291725.06747                  23366466.8804
        45.2504         27.5004
  20326049.1484   -4475715.29749  -3478248.82248                  20326045.9304
        52.0004         45.5004
  19968810.4854   -1334385.50049  -1037020.60948                  19968807.6344
        53.5004         45.5004
  22460686.9214    3318717.11349   2579714.69447                  22460683.1594
        47.5004         35.2504
  22842803.4244   -5141869.60249  -3987152.57847                  22842799.5944
        45.5004         34.7504
  22723653.9224    5161048.75849   4007436.35647                  22723651.4964
        46.0004         31.2504
  21023547.0854     311275.86749    241261.70948                  21023542.1264
        52.0004         43.0004
 04  7  1 18 13 40.0000000  0  8G 3G 9G14G15G18G19G21G22
  22332935.9024     993686.16049    774461.50847                  22332934.2124
        45.0004         35.0004
  23367785.3554     379337.18449    297116.42247                  23367783.0594
        44.7504         27.0004
  20323282.8724   -4490252.36349  -3489576.40948                  20323279.9814
        51.5004         45.2504
  19968450.1234   -1336278.74249  -1038495.86748                  19968447.6884
        52.5004         45.2504
  22463060.8494    3331194.13349   2589437.03647                  22463058.0644
        47.7504         34.5004
  22839510.9424   -5159173.06249  -4000635.80247                  22839506.9224
        45.5004         34.2504
  22728082.9364    5184325.27049   4025573.87347                  22728080.9284
        45.5004         30.5004
  21023687.0634     312010.30949    241833.99348                  21023681.7044
        51.7504         42.5004
 04  7  1 18 13 50.0000000  0  8G 3G 9G14G15G18G19G21G22
  22334449.7044    1001640.65649    780659.82947                  22334448.1484
        43.5004         35.0004
  23369110.0534     386298.14149    302540.54047                  23369108.2654
        44.5004         28.0004
  20320523.1204   -4504755.46949  -3500877.52348                  20320519.5954
        51.5004         45.5004
  19968096.0904   -1338139.33649  -1039945.68048                  19968093.2384
        52.7504         45.0004
  22465432.7174    3343658.10249   2599149.20847                  22465429.9854
        47.2504         33.7504
  22836225.2974   -5176439.23049  -4014089.96047                  22836221.4564
        45.0004         33.2504
  22732514.4894    5207611.77749   4043719.16347                  22732512.4404
        44.7504         30.5004
  21023825.2064     312737.72349    242400.81348                  21023820.2114
        52.5004         42.2504
 04  7  1 18 14  0.0000000  0  8G 3G 9G14G15G18G19G21G22
  22335968.1784    1009620.55149    786877.91147                  22335966.5974
        45.7504         35.5004
  23370442.6454     393301.37549    307997.60147                  23370440.1964
        45.0004         27.5004
  20317770.2654   -4519224.30549  -3512151.94248                  20317767.0734
        52.2504         45.2504
  19967748.0644   -1339966.98849  -1041369.82548                  19967745.1054
        53.0004         45.2504
  22467801.8864    3356109.27049   2608851.40847                  22467799.2104
        47.7504         33.5004
  22832946.6424   -5193667.71949  -4027514.75747                  22832942.7914
        45.2504         34.0004
  22736947.7534    5230908.63749   4061872.54347                  22736945.7024
        45.0004         30.5004
  21023962.4664     313458.36749    242962.35548                  21023957.7004
        52.0004         42.5004
 04  7  1 18 14 10.0000000  0  8G 3G 9G14G15G18G19G21G22
  22337491.3824    1017624.23049    793114.53747                  22337489.4764
        43.0004         33.7504
  23371783.0434     400345.32049    313486.40347                  23371781.2654
        45.0004         27.5004
  20315022.7474   -4533660.43049  -3523400.87748                  20315019.7184
        51.2504         44.5004
  19967406.4434   -1341763.21549  -1042769.50048                  19967403.8744
        51.5004         44.5004
  22470168.5394    3368546.06349   2618542.39947                  22470165.6924
        47.5004         32.5004
  22829675.6184   -5210860.10949  -4040911.41647                  22829671.0684
        45.2504         33.5004
  22741382.2814    5254214.27049   4080032.73547                  22741380.6524
        44.5004         29.2504
  21024098.4444     314170.66449    243517.37648                  21024093.5764
        51.7504         41.5004
 04  7  1 18 14 20.0000000  0  8G 3G 9G14G15G18G19G21G22
  22339019.5644    1025655.67649    799372.79747                  22339017.9904
        44.0004         35.5004
  23373131.8104     407433.95349    319010.01447                  23373130.1754
        45.5004         27.5004
  20312282.5704   -4548059.83649  -3534621.17448                  20312279.5224
        51.7504         45.5004
  19967071.6934   -1343523.87149  -1044141.43848                  19967068.6724
        52.2504         45.5004
  22472533.5944    3380972.61349   2628225.41647                  22472530.6864
        46.5004         33.5004
  22826411.8274   -5228012.26649  -4054276.72947                  22826407.2124
        45.0004         33.5004
  22745820.0664    5277532.75049   4098202.95147                  22745818.1674
        44.7504         30.5004
  21024232.7014     314878.68449    244069.07648                  21024228.0564
        51.5004         42.5004
 04  7  1 18 14 30.0000000  0  8G 3G 9G14G15G18G19G21G22
  22340552.1324    1033712.10949    805650.53247                  22340551.2394
        45.7504         35.7504
  23374488.7374     414564.58249    324566.34347                  23374487.1634
        45.7504         27.2504
  20309548.8944   -4562425.21549  -3545814.97048                  20309545.8064
        51.5004         45.0004
  19966742.7914   -1345251.66449  -1045487.76348                  19966740.3104
        52.7504         45.0004
  22474895.7874    3393386.23449   2637898.35947                  22474892.7344
        47.0004         33.7504
  22823154.5854   -5245126.82049  -4067612.74047                  22823150.3334
        44.7504         33.2504
  22750259.7864    5300861.31349   4116381.03347                  22750257.3794
        45.2504         30.5004
  21024366.2784     315579.70749    244615.33848                  21024361.2494
        52.5004         42.5004
 04  7  1 18 14 40.0000000  0  8G 3G 9G14G15G18G19G21G22
  22342089.7834    1041792.06649    811946.59747                  22342088.6724
        45.5004         36.0004
  23375852.8894     421735.86349    330154.32847                  23375852.3114
        44.7504         28.7504
  20306821.4804   -4576757.88749  -3556983.28548                  20306818.3224
        51.2504         45.7504
  19966419.9454   -1346947.88749  -1046809.50148                  19966417.3994
        53.0004         45.7504
  22477254.7484    3405785.52049   2647560.13147                  22477251.8104
        47.5004         34.5004
  22819904.7174   -5262205.11349  -4080920.49147                  22819900.4994
        45.2504         34.7504
  22754700.5294    5324198.46149   4134565.79447                  22754698.5024
        44.5004         30.7504
  21024497.8734     316272.43049    245155.12248                  21024493.0474
        52.0004         43.0004
 04  7  1 18 14 50.0000000  0  8G 3G 9G14G15G18G19G21G22
  22343632.5444    1049898.52349    818263.29147                  22343631.1304
        43.5004         35.0004
  23377226.0474     428950.76249    335776.33647                  23377224.5854
        44.5004         28.7504
  20304101.0204   -4591054.80149  -3568123.72348                  20304097.5854
        52.2504         45.5004
  19966103.7354   -1348609.49649  -1048104.26248                  19966100.9474
        52.5004         45.2504
  22479612.7644    3418173.41049   2657213.02947                  22479609.8424
        48.0004         34.5004
  22816662.1864   -5279244.09449  -4094197.61047                  22816657.7864
        45.5004         34.2504
  22759143.8344    5347547.39149   4152759.73547                  22759141.8734
        44.2504         30.7504
  21024629.0604     316959.86349    245690.77848                  21024624.0564
        51.7504         42.7504
 04  7  1 18 15  0.0000000  0  8G 3G 9G14G15G18G19G21G22
  22345179.7144    1058029.89149    824599.41547                  22345178.6074
        46.0004         35.0004
  23378606.3684     436207.67649    341431.04746                  23378605.7124
        43.0004         25.5004
  20301386.8504   -4605317.54349  -3579237.54948                  20301383.8774
        51.5004         45.5004
  19965793.7454   -1350237.98449  -1049373.22048                  19965790.9824
        53.0004         45.0004
  22481967.4024    3430548.51249   2666855.94247                  22481964.8554
        47.7504         34.0004
  22813426.8264   -5296245.24249  -4107445.27047                  22813422.8094
        44.7504         33.5004
  22763588.8414    5370906.37949   4170961.52247                  22763586.6344
        44.0004         30.2504
  21024758.1724     317640.44149    246221.09348                  21024753.2904
        52.7504         42.2504
 04  7  1 18 15 10.0000000  0  8G 3G 9G14G15G18G19G21G22
  22346732.3964    1066186.94549    830955.54947                  22346731.0464
        46.0004         35.0004
  23379995.0194     443507.50049    347119.19746                  23379995.4264
        43.2504         25.2504
  20298679.4454   -4619545.19549  -3590324.03248                  20298676.2824
        52.0004         45.5004
  19965490.2174   -1351832.43749  -1050615.65848                  19965487.5024
        53.7504         45.0004
  22484320.0514    3442911.74249   2676489.61747                  22484317.6224
        47.7504         34.0004
  22810198.9654   -5313207.62149  -4120662.71147                  22810194.9664
        46.0004         33.5004
  22768035.5944    5394276.26249   4189171.77747                  22768033.2464
        45.2504         30.5004
  21024886.8014     318315.06649    246746.77348                  21024881.9484
        52.0004         42.0004
 04  7  1 18 15 20.0000000  0  8G 3G 9G14G15G18G19G21G22
  22348289.2154    1074369.64549    837331.68347                  22348287.8644
        45.7504         34.5004
  23381392.4804     450850.20749    352840.77846                  23381392.4454
        42.5004         25.5004
  20295978.4234   -4633737.77049  -3601383.15948                  20295975.3284
        51.7504         44.5004
  19965193.3714   -1353392.82049  -1051831.53748                  19965190.6214
        52.5004         44.5004
  22486670.7344    3455263.04349   2686113.99947                  22486668.0994
        48.0004         33.0004
  22806978.5614   -5330131.25049  -4133849.92947                  22806974.3454
        46.0004         32.7504
  22772484.5054    5417657.10549   4207390.60347                  22772482.9284
        44.5004         30.2504
  21025013.8504     318983.73849    247267.82848                  21025008.9134
        52.5004         41.7504
